<?xml version="1.0" encoding="UTF-8" standalone="no" ?>
<gpx xmlns="http://www.topografix.com/GPX/1/1" xmlns:xsi="http://www.w3.org/2001/XMLSchema-instance" xsi:schemaLocation="http://www.topografix.com/GPX/1/1 http://www.topografix.com/GPX/1/1/gpx.xsd" version="1.1" creator="VisuGPX - https://www.visugpx.com">
  <metadata>
    <name>boucle arthez-arthez</name>
    <desc><![CDATA[parcours sympa avec quelques singles pour bien s\'amuser
trace roulant un peu dur par temps humide mais reste agreable
]]></desc>
  </metadata>
  <trk>
    <name><![CDATA[Boucle arthez roulant avec singles]]></name>
    <desc><![CDATA[22 mars 2011  1:02 pm]]></desc>
    <trkseg>
      <trkpt lat="43.46469" lon="-0.61558">
        <ele>228.376505</ele>
        <time>2011-03-22T12:02:29Z</time>
      </trkpt>
      <trkpt lat="43.46469" lon="-0.61558">
        <ele>228.311056</ele>
        <time>2011-03-22T12:02:57Z</time>
      </trkpt>
      <trkpt lat="43.46468" lon="-0.61583">
        <ele>228.261841</ele>
        <time>2011-03-22T12:06:28Z</time>
      </trkpt>
      <trkpt lat="43.46468" lon="-0.61583">
        <ele>228.24348</ele>
        <time>2011-03-22T12:06:42Z</time>
      </trkpt>
      <trkpt lat="43.46464" lon="-0.61621">
        <ele>228.243697</ele>
        <time>2011-03-22T12:06:50Z</time>
      </trkpt>
      <trkpt lat="43.46462" lon="-0.61659">
        <ele>228.24909</ele>
        <time>2011-03-22T12:06:58Z</time>
      </trkpt>
      <trkpt lat="43.4646" lon="-0.61699">
        <ele>229.08214</ele>
        <time>2011-03-22T12:07:04Z</time>
      </trkpt>
      <trkpt lat="43.46459" lon="-0.61721">
        <ele>231.657389</ele>
        <time>2011-03-22T12:07:07Z</time>
      </trkpt>
      <trkpt lat="43.4646" lon="-0.61739">
        <ele>234.953419</ele>
        <time>2011-03-22T12:07:09Z</time>
      </trkpt>
      <trkpt lat="43.46464" lon="-0.61772">
        <ele>237.112639</ele>
        <time>2011-03-22T12:07:12Z</time>
      </trkpt>
      <trkpt lat="43.46466" lon="-0.61791">
        <ele>237.797186</ele>
        <time>2011-03-22T12:07:14Z</time>
      </trkpt>
      <trkpt lat="43.46468" lon="-0.61808">
        <ele>237.696724</ele>
        <time>2011-03-22T12:07:16Z</time>
      </trkpt>
      <trkpt lat="43.46471" lon="-0.61828">
        <ele>237.426106</ele>
        <time>2011-03-22T12:07:18Z</time>
      </trkpt>
      <trkpt lat="43.46473" lon="-0.61851">
        <ele>237.251194</ele>
        <time>2011-03-22T12:07:21Z</time>
      </trkpt>
      <trkpt lat="43.46475" lon="-0.6188">
        <ele>237.196736</ele>
        <time>2011-03-22T12:07:24Z</time>
      </trkpt>
      <trkpt lat="43.46475" lon="-0.61912">
        <ele>237.205593</ele>
        <time>2011-03-22T12:07:27Z</time>
      </trkpt>
      <trkpt lat="43.46476" lon="-0.61943">
        <ele>237.227735</ele>
        <time>2011-03-22T12:07:30Z</time>
      </trkpt>
      <trkpt lat="43.46475" lon="-0.61974">
        <ele>237.241822</ele>
        <time>2011-03-22T12:07:33Z</time>
      </trkpt>
      <trkpt lat="43.46474" lon="-0.62">
        <ele>237.246071</ele>
        <time>2011-03-22T12:07:36Z</time>
      </trkpt>
      <trkpt lat="43.46473" lon="-0.62017">
        <ele>237.245241</ele>
        <time>2011-03-22T12:07:39Z</time>
      </trkpt>
      <trkpt lat="43.46473" lon="-0.62035">
        <ele>237.243405</ele>
        <time>2011-03-22T12:07:42Z</time>
      </trkpt>
      <trkpt lat="43.46472" lon="-0.62054">
        <ele>237.380372</ele>
        <time>2011-03-22T12:07:45Z</time>
      </trkpt>
      <trkpt lat="43.46471" lon="-0.62073">
        <ele>237.739761</ele>
        <time>2011-03-22T12:07:48Z</time>
      </trkpt>
      <trkpt lat="43.4647" lon="-0.62093">
        <ele>238.247272</ele>
        <time>2011-03-22T12:07:51Z</time>
      </trkpt>
      <trkpt lat="43.4647" lon="-0.62112">
        <ele>238.920637</ele>
        <time>2011-03-22T12:07:54Z</time>
      </trkpt>
      <trkpt lat="43.4647" lon="-0.6213">
        <ele>239.814663</ele>
        <time>2011-03-22T12:07:57Z</time>
      </trkpt>
      <trkpt lat="43.4647" lon="-0.62148">
        <ele>240.689195</ele>
        <time>2011-03-22T12:08:00Z</time>
      </trkpt>
      <trkpt lat="43.46469" lon="-0.62164">
        <ele>241.230262</ele>
        <time>2011-03-22T12:08:03Z</time>
      </trkpt>
      <trkpt lat="43.46468" lon="-0.62178">
        <ele>241.52612</ele>
        <time>2011-03-22T12:08:06Z</time>
      </trkpt>
      <trkpt lat="43.46467" lon="-0.62192">
        <ele>241.850371</ele>
        <time>2011-03-22T12:08:09Z</time>
      </trkpt>
      <trkpt lat="43.46467" lon="-0.62206">
        <ele>242.286201</ele>
        <time>2011-03-22T12:08:12Z</time>
      </trkpt>
      <trkpt lat="43.46468" lon="-0.6222">
        <ele>242.777488</ele>
        <time>2011-03-22T12:08:15Z</time>
      </trkpt>
      <trkpt lat="43.46469" lon="-0.62233">
        <ele>243.160908</ele>
        <time>2011-03-22T12:08:18Z</time>
      </trkpt>
      <trkpt lat="43.46469" lon="-0.62246">
        <ele>243.447409</ele>
        <time>2011-03-22T12:08:21Z</time>
      </trkpt>
      <trkpt lat="43.4647" lon="-0.62259">
        <ele>243.809525</ele>
        <time>2011-03-22T12:08:24Z</time>
      </trkpt>
      <trkpt lat="43.46471" lon="-0.62271">
        <ele>244.138331</ele>
        <time>2011-03-22T12:08:27Z</time>
      </trkpt>
      <trkpt lat="43.46473" lon="-0.62284">
        <ele>244.282408</ele>
        <time>2011-03-22T12:08:30Z</time>
      </trkpt>
      <trkpt lat="43.46474" lon="-0.62297">
        <ele>244.29706</ele>
        <time>2011-03-22T12:08:33Z</time>
      </trkpt>
      <trkpt lat="43.46476" lon="-0.6231">
        <ele>244.267011</ele>
        <time>2011-03-22T12:08:36Z</time>
      </trkpt>
      <trkpt lat="43.46478" lon="-0.62324">
        <ele>244.240219</ele>
        <time>2011-03-22T12:08:39Z</time>
      </trkpt>
      <trkpt lat="43.4648" lon="-0.62338">
        <ele>244.228612</ele>
        <time>2011-03-22T12:08:42Z</time>
      </trkpt>
      <trkpt lat="43.46482" lon="-0.62352">
        <ele>244.227505</ele>
        <time>2011-03-22T12:08:45Z</time>
      </trkpt>
      <trkpt lat="43.46484" lon="-0.62366">
        <ele>244.229974</ele>
        <time>2011-03-22T12:08:48Z</time>
      </trkpt>
      <trkpt lat="43.46487" lon="-0.6238">
        <ele>244.232147</ele>
        <time>2011-03-22T12:08:51Z</time>
      </trkpt>
      <trkpt lat="43.4649" lon="-0.62393">
        <ele>244.371217</ele>
        <time>2011-03-22T12:08:54Z</time>
      </trkpt>
      <trkpt lat="43.46493" lon="-0.62407">
        <ele>244.731091</ele>
        <time>2011-03-22T12:08:57Z</time>
      </trkpt>
      <trkpt lat="43.46496" lon="-0.62421">
        <ele>245.100224</ele>
        <time>2011-03-22T12:09:00Z</time>
      </trkpt>
      <trkpt lat="43.46499" lon="-0.62434">
        <ele>245.275277</ele>
        <time>2011-03-22T12:09:03Z</time>
      </trkpt>
      <trkpt lat="43.46502" lon="-0.62448">
        <ele>245.30175</ele>
        <time>2011-03-22T12:09:06Z</time>
      </trkpt>
      <trkpt lat="43.46505" lon="-0.62462">
        <ele>245.409944</ele>
        <time>2011-03-22T12:09:09Z</time>
      </trkpt>
      <trkpt lat="43.46509" lon="-0.62475">
        <ele>245.877874</ele>
        <time>2011-03-22T12:09:12Z</time>
      </trkpt>
      <trkpt lat="43.46513" lon="-0.62489">
        <ele>246.593039</ele>
        <time>2011-03-22T12:09:15Z</time>
      </trkpt>
      <trkpt lat="43.46516" lon="-0.62502">
        <ele>247.135672</ele>
        <time>2011-03-22T12:09:18Z</time>
      </trkpt>
      <trkpt lat="43.46518" lon="-0.62515">
        <ele>247.478121</ele>
        <time>2011-03-22T12:09:21Z</time>
      </trkpt>
      <trkpt lat="43.46522" lon="-0.62529">
        <ele>247.836985</ele>
        <time>2011-03-22T12:09:24Z</time>
      </trkpt>
      <trkpt lat="43.46525" lon="-0.62543">
        <ele>248.285604</ele>
        <time>2011-03-22T12:09:27Z</time>
      </trkpt>
      <trkpt lat="43.46526" lon="-0.62557">
        <ele>248.914849</ele>
        <time>2011-03-22T12:09:30Z</time>
      </trkpt>
      <trkpt lat="43.46526" lon="-0.62571">
        <ele>249.792518</ele>
        <time>2011-03-22T12:09:33Z</time>
      </trkpt>
      <trkpt lat="43.46525" lon="-0.62585">
        <ele>250.805514</ele>
        <time>2011-03-22T12:09:36Z</time>
      </trkpt>
      <trkpt lat="43.46524" lon="-0.626">
        <ele>251.711299</ele>
        <time>2011-03-22T12:09:39Z</time>
      </trkpt>
      <trkpt lat="43.46527" lon="-0.62612">
        <ele>252.24196</ele>
        <time>2011-03-22T12:09:42Z</time>
      </trkpt>
      <trkpt lat="43.46528" lon="-0.62627">
        <ele>252.382954</ele>
        <time>2011-03-22T12:09:46Z</time>
      </trkpt>
      <trkpt lat="43.46528" lon="-0.62627">
        <ele>252.337799</ele>
        <time>2011-03-22T12:09:50Z</time>
      </trkpt>
      <trkpt lat="43.46531" lon="-0.62595">
        <ele>252.401811</ele>
        <time>2011-03-22T12:10:07Z</time>
      </trkpt>
      <trkpt lat="43.46531" lon="-0.62595">
        <ele>252.580571</ele>
        <time>2011-03-22T12:10:10Z</time>
      </trkpt>
      <trkpt lat="43.46531" lon="-0.62595">
        <ele>252.588246</ele>
        <time>2011-03-22T12:10:37Z</time>
      </trkpt>
      <trkpt lat="43.46564" lon="-0.62587">
        <ele>252.551012</ele>
        <time>2011-03-22T12:12:08Z</time>
      </trkpt>
      <trkpt lat="43.46564" lon="-0.62587">
        <ele>252.639991</ele>
        <time>2011-03-22T12:12:20Z</time>
      </trkpt>
      <trkpt lat="43.46564" lon="-0.62587">
        <ele>252.607643</ele>
        <time>2011-03-22T12:12:38Z</time>
      </trkpt>
      <trkpt lat="43.46564" lon="-0.62587">
        <ele>252.432848</ele>
        <time>2011-03-22T12:13:23Z</time>
      </trkpt>
      <trkpt lat="43.46538" lon="-0.62573">
        <ele>252.317554</ele>
        <time>2011-03-22T12:13:56Z</time>
      </trkpt>
      <trkpt lat="43.46538" lon="-0.62573">
        <ele>252.284401</ele>
        <time>2011-03-22T12:13:59Z</time>
      </trkpt>
      <trkpt lat="43.46526" lon="-0.62584">
        <ele>252.296791</ele>
        <time>2011-03-22T12:14:15Z</time>
      </trkpt>
      <trkpt lat="43.46522" lon="-0.626">
        <ele>252.323834</ele>
        <time>2011-03-22T12:14:18Z</time>
      </trkpt>
      <trkpt lat="43.46517" lon="-0.62619">
        <ele>253.433003</ele>
        <time>2011-03-22T12:14:21Z</time>
      </trkpt>
      <trkpt lat="43.46514" lon="-0.62632">
        <ele>256.274776</ele>
        <time>2011-03-22T12:14:23Z</time>
      </trkpt>
      <trkpt lat="43.46511" lon="-0.62652">
        <ele>259.183561</ele>
        <time>2011-03-22T12:14:26Z</time>
      </trkpt>
      <trkpt lat="43.4651" lon="-0.62671">
        <ele>260.561176</ele>
        <time>2011-03-22T12:14:29Z</time>
      </trkpt>
      <trkpt lat="43.46509" lon="-0.62689">
        <ele>260.768304</ele>
        <time>2011-03-22T12:14:32Z</time>
      </trkpt>
      <trkpt lat="43.46508" lon="-0.62705">
        <ele>260.531522</ele>
        <time>2011-03-22T12:14:35Z</time>
      </trkpt>
      <trkpt lat="43.46506" lon="-0.62723">
        <ele>260.294423</ele>
        <time>2011-03-22T12:14:38Z</time>
      </trkpt>
      <trkpt lat="43.46504" lon="-0.6274">
        <ele>260.183557</ele>
        <time>2011-03-22T12:14:41Z</time>
      </trkpt>
      <trkpt lat="43.46501" lon="-0.62756">
        <ele>260.167719</ele>
        <time>2011-03-22T12:14:44Z</time>
      </trkpt>
      <trkpt lat="43.46501" lon="-0.62773">
        <ele>260.187389</ele>
        <time>2011-03-22T12:14:47Z</time>
      </trkpt>
      <trkpt lat="43.46501" lon="-0.62788">
        <ele>260.206693</ele>
        <time>2011-03-22T12:14:50Z</time>
      </trkpt>
      <trkpt lat="43.46499" lon="-0.62803">
        <ele>260.353721</ele>
        <time>2011-03-22T12:14:53Z</time>
      </trkpt>
      <trkpt lat="43.465" lon="-0.6282">
        <ele>260.714653</ele>
        <time>2011-03-22T12:14:56Z</time>
      </trkpt>
      <trkpt lat="43.46501" lon="-0.62833">
        <ele>261.082287</ele>
        <time>2011-03-22T12:14:58Z</time>
      </trkpt>
      <trkpt lat="43.46502" lon="-0.6285">
        <ele>261.255898</ele>
        <time>2011-03-22T12:15:01Z</time>
      </trkpt>
      <trkpt lat="43.46504" lon="-0.62867">
        <ele>261.281692</ele>
        <time>2011-03-22T12:15:04Z</time>
      </trkpt>
      <trkpt lat="43.46509" lon="-0.62887">
        <ele>261.251604</ele>
        <time>2011-03-22T12:15:07Z</time>
      </trkpt>
      <trkpt lat="43.46513" lon="-0.62908">
        <ele>261.221604</ele>
        <time>2011-03-22T12:15:10Z</time>
      </trkpt>
      <trkpt lat="43.46515" lon="-0.62929">
        <ele>261.207591</ele>
        <time>2011-03-22T12:15:13Z</time>
      </trkpt>
      <trkpt lat="43.46513" lon="-0.62944">
        <ele>261.067394</ele>
        <time>2011-03-22T12:15:15Z</time>
      </trkpt>
      <trkpt lat="43.46509" lon="-0.62968">
        <ele>260.709948</ele>
        <time>2011-03-22T12:15:18Z</time>
      </trkpt>
      <trkpt lat="43.46505" lon="-0.6299">
        <ele>260.20472</ele>
        <time>2011-03-22T12:15:21Z</time>
      </trkpt>
      <trkpt lat="43.46499" lon="-0.63013">
        <ele>259.67063</ele>
        <time>2011-03-22T12:15:24Z</time>
      </trkpt>
      <trkpt lat="43.46493" lon="-0.63036">
        <ele>259.274747</ele>
        <time>2011-03-22T12:15:27Z</time>
      </trkpt>
      <trkpt lat="43.46488" lon="-0.63051">
        <ele>259.129183</ele>
        <time>2011-03-22T12:15:29Z</time>
      </trkpt>
      <trkpt lat="43.46482" lon="-0.63065">
        <ele>259.132468</ele>
        <time>2011-03-22T12:15:31Z</time>
      </trkpt>
      <trkpt lat="43.46471" lon="-0.63084">
        <ele>259.03818</ele>
        <time>2011-03-22T12:15:34Z</time>
      </trkpt>
      <trkpt lat="43.46459" lon="-0.63102">
        <ele>258.710313</ele>
        <time>2011-03-22T12:15:37Z</time>
      </trkpt>
      <trkpt lat="43.46445" lon="-0.63118">
        <ele>258.352431</ele>
        <time>2011-03-22T12:15:40Z</time>
      </trkpt>
      <trkpt lat="43.46429" lon="-0.63137">
        <ele>258.176704</ele>
        <time>2011-03-22T12:15:43Z</time>
      </trkpt>
      <trkpt lat="43.46412" lon="-0.6316">
        <ele>258.146488</ele>
        <time>2011-03-22T12:15:46Z</time>
      </trkpt>
      <trkpt lat="43.46394" lon="-0.63185">
        <ele>258.173766</ele>
        <time>2011-03-22T12:15:49Z</time>
      </trkpt>
      <trkpt lat="43.46378" lon="-0.63213">
        <ele>258.202794</ele>
        <time>2011-03-22T12:15:52Z</time>
      </trkpt>
      <trkpt lat="43.46362" lon="-0.6324">
        <ele>258.216763</ele>
        <time>2011-03-22T12:15:55Z</time>
      </trkpt>
      <trkpt lat="43.46351" lon="-0.63257">
        <ele>258.218916</ele>
        <time>2011-03-22T12:15:57Z</time>
      </trkpt>
      <trkpt lat="43.46333" lon="-0.63274">
        <ele>258.078292</ele>
        <time>2011-03-22T12:16:00Z</time>
      </trkpt>
      <trkpt lat="43.46316" lon="-0.6329">
        <ele>257.577682</ele>
        <time>2011-03-22T12:16:03Z</time>
      </trkpt>
      <trkpt lat="43.46305" lon="-0.633">
        <ele>256.847063</ele>
        <time>2011-03-22T12:16:05Z</time>
      </trkpt>
      <trkpt lat="43.4629" lon="-0.63316">
        <ele>256.025695</ele>
        <time>2011-03-22T12:16:08Z</time>
      </trkpt>
      <trkpt lat="43.4628" lon="-0.63327">
        <ele>254.827828</ele>
        <time>2011-03-22T12:16:10Z</time>
      </trkpt>
      <trkpt lat="43.46267" lon="-0.63342">
        <ele>252.958172</ele>
        <time>2011-03-22T12:16:13Z</time>
      </trkpt>
      <trkpt lat="43.46254" lon="-0.63359">
        <ele>250.572823</ele>
        <time>2011-03-22T12:16:16Z</time>
      </trkpt>
      <trkpt lat="43.46241" lon="-0.63376">
        <ele>248.24709</ele>
        <time>2011-03-22T12:16:19Z</time>
      </trkpt>
      <trkpt lat="43.46228" lon="-0.63393">
        <ele>246.507285</ele>
        <time>2011-03-22T12:16:22Z</time>
      </trkpt>
      <trkpt lat="43.46214" lon="-0.6341">
        <ele>245.467444</ele>
        <time>2011-03-22T12:16:25Z</time>
      </trkpt>
      <trkpt lat="43.46199" lon="-0.63427">
        <ele>245.04299</ele>
        <time>2011-03-22T12:16:28Z</time>
      </trkpt>
      <trkpt lat="43.46181" lon="-0.63441">
        <ele>244.881851</ele>
        <time>2011-03-22T12:16:31Z</time>
      </trkpt>
      <trkpt lat="43.46169" lon="-0.63449">
        <ele>244.487392</ele>
        <time>2011-03-22T12:16:33Z</time>
      </trkpt>
      <trkpt lat="43.46156" lon="-0.63455">
        <ele>243.427923</ele>
        <time>2011-03-22T12:16:35Z</time>
      </trkpt>
      <trkpt lat="43.46133" lon="-0.63463">
        <ele>241.699248</ele>
        <time>2011-03-22T12:16:38Z</time>
      </trkpt>
      <trkpt lat="43.46108" lon="-0.63471">
        <ele>239.89245</ele>
        <time>2011-03-22T12:16:41Z</time>
      </trkpt>
      <trkpt lat="43.46082" lon="-0.63479">
        <ele>238.632125</ele>
        <time>2011-03-22T12:16:44Z</time>
      </trkpt>
      <trkpt lat="43.46066" lon="-0.63485">
        <ele>237.922797</ele>
        <time>2011-03-22T12:16:46Z</time>
      </trkpt>
      <trkpt lat="43.46051" lon="-0.63494">
        <ele>237.354276</ele>
        <time>2011-03-22T12:16:48Z</time>
      </trkpt>
      <trkpt lat="43.46029" lon="-0.63511">
        <ele>236.596457</ele>
        <time>2011-03-22T12:16:51Z</time>
      </trkpt>
      <trkpt lat="43.46012" lon="-0.63532">
        <ele>235.65618</ele>
        <time>2011-03-22T12:16:54Z</time>
      </trkpt>
      <trkpt lat="43.45996" lon="-0.63556">
        <ele>234.632645</ele>
        <time>2011-03-22T12:16:57Z</time>
      </trkpt>
      <trkpt lat="43.45985" lon="-0.63583">
        <ele>233.598466</ele>
        <time>2011-03-22T12:17:00Z</time>
      </trkpt>
      <trkpt lat="43.45982" lon="-0.636">
        <ele>232.580014</ele>
        <time>2011-03-22T12:17:02Z</time>
      </trkpt>
      <trkpt lat="43.4598" lon="-0.63617">
        <ele>231.714624</ele>
        <time>2011-03-22T12:17:04Z</time>
      </trkpt>
      <trkpt lat="43.45979" lon="-0.63643">
        <ele>231.077628</ele>
        <time>2011-03-22T12:17:07Z</time>
      </trkpt>
      <trkpt lat="43.4598" lon="-0.63669">
        <ele>230.450947</ele>
        <time>2011-03-22T12:17:10Z</time>
      </trkpt>
      <trkpt lat="43.45984" lon="-0.63695">
        <ele>229.766986</ele>
        <time>2011-03-22T12:17:13Z</time>
      </trkpt>
      <trkpt lat="43.45987" lon="-0.63712">
        <ele>229.154829</ele>
        <time>2011-03-22T12:17:15Z</time>
      </trkpt>
      <trkpt lat="43.45993" lon="-0.63729">
        <ele>228.633351</ele>
        <time>2011-03-22T12:17:17Z</time>
      </trkpt>
      <trkpt lat="43.45997" lon="-0.63745">
        <ele>228.277411</ele>
        <time>2011-03-22T12:17:19Z</time>
      </trkpt>
      <trkpt lat="43.46002" lon="-0.63769">
        <ele>228.158299</ele>
        <time>2011-03-22T12:17:22Z</time>
      </trkpt>
      <trkpt lat="43.46005" lon="-0.63793">
        <ele>228.17012</ele>
        <time>2011-03-22T12:17:25Z</time>
      </trkpt>
      <trkpt lat="43.46005" lon="-0.6382">
        <ele>228.212926</ele>
        <time>2011-03-22T12:17:28Z</time>
      </trkpt>
      <trkpt lat="43.46005" lon="-0.63848">
        <ele>228.241731</ele>
        <time>2011-03-22T12:17:31Z</time>
      </trkpt>
      <trkpt lat="43.46004" lon="-0.63868">
        <ele>228.251157</ele>
        <time>2011-03-22T12:17:33Z</time>
      </trkpt>
      <trkpt lat="43.46003" lon="-0.63899">
        <ele>228.249957</ele>
        <time>2011-03-22T12:17:36Z</time>
      </trkpt>
      <trkpt lat="43.46002" lon="-0.63931">
        <ele>228.24628</ele>
        <time>2011-03-22T12:17:39Z</time>
      </trkpt>
      <trkpt lat="43.46001" lon="-0.63963">
        <ele>228.243805</ele>
        <time>2011-03-22T12:17:42Z</time>
      </trkpt>
      <trkpt lat="43.45999" lon="-0.63984">
        <ele>228.242977</ele>
        <time>2011-03-22T12:17:44Z</time>
      </trkpt>
      <trkpt lat="43.45998" lon="-0.64004">
        <ele>228.243043</ele>
        <time>2011-03-22T12:17:46Z</time>
      </trkpt>
      <trkpt lat="43.45993" lon="-0.64032">
        <ele>228.243298</ele>
        <time>2011-03-22T12:17:49Z</time>
      </trkpt>
      <trkpt lat="43.45986" lon="-0.64058">
        <ele>228.243455</ele>
        <time>2011-03-22T12:17:52Z</time>
      </trkpt>
      <trkpt lat="43.4598" lon="-0.64084">
        <ele>228.2435</ele>
        <time>2011-03-22T12:17:55Z</time>
      </trkpt>
      <trkpt lat="43.45974" lon="-0.64109">
        <ele>228.243472</ele>
        <time>2011-03-22T12:17:58Z</time>
      </trkpt>
      <trkpt lat="43.45967" lon="-0.64133">
        <ele>228.243396</ele>
        <time>2011-03-22T12:18:01Z</time>
      </trkpt>
      <trkpt lat="43.45961" lon="-0.64158">
        <ele>228.2433</ele>
        <time>2011-03-22T12:18:04Z</time>
      </trkpt>
      <trkpt lat="43.45956" lon="-0.64183">
        <ele>228.243154</ele>
        <time>2011-03-22T12:18:07Z</time>
      </trkpt>
      <trkpt lat="43.4595" lon="-0.64207">
        <ele>228.242896</ele>
        <time>2011-03-22T12:18:10Z</time>
      </trkpt>
      <trkpt lat="43.45944" lon="-0.64231">
        <ele>228.104447</ele>
        <time>2011-03-22T12:18:13Z</time>
      </trkpt>
      <trkpt lat="43.45939" lon="-0.64255">
        <ele>227.744419</ele>
        <time>2011-03-22T12:18:16Z</time>
      </trkpt>
      <trkpt lat="43.45933" lon="-0.64278">
        <ele>227.374931</ele>
        <time>2011-03-22T12:18:19Z</time>
      </trkpt>
      <trkpt lat="43.45928" lon="-0.64302">
        <ele>227.199581</ele>
        <time>2011-03-22T12:18:22Z</time>
      </trkpt>
      <trkpt lat="43.45923" lon="-0.64324">
        <ele>227.034748</ele>
        <time>2011-03-22T12:18:25Z</time>
      </trkpt>
      <trkpt lat="43.4592" lon="-0.64339">
        <ele>226.566541</ele>
        <time>2011-03-22T12:18:27Z</time>
      </trkpt>
      <trkpt lat="43.45912" lon="-0.64362">
        <ele>225.867208</ele>
        <time>2011-03-22T12:18:30Z</time>
      </trkpt>
      <trkpt lat="43.45903" lon="-0.64383">
        <ele>225.198326</ele>
        <time>2011-03-22T12:18:33Z</time>
      </trkpt>
      <trkpt lat="43.45894" lon="-0.64405">
        <ele>224.638553</ele>
        <time>2011-03-22T12:18:36Z</time>
      </trkpt>
      <trkpt lat="43.45888" lon="-0.6442">
        <ele>224.26995</ele>
        <time>2011-03-22T12:18:38Z</time>
      </trkpt>
      <trkpt lat="43.45882" lon="-0.64434">
        <ele>224.014064</ele>
        <time>2011-03-22T12:18:40Z</time>
      </trkpt>
      <trkpt lat="43.45873" lon="-0.64456">
        <ele>223.670678</ele>
        <time>2011-03-22T12:18:43Z</time>
      </trkpt>
      <trkpt lat="43.45864" lon="-0.64478">
        <ele>223.347126</ele>
        <time>2011-03-22T12:18:46Z</time>
      </trkpt>
      <trkpt lat="43.45859" lon="-0.64492">
        <ele>223.201587</ele>
        <time>2011-03-22T12:18:48Z</time>
      </trkpt>
      <trkpt lat="43.4585" lon="-0.64514">
        <ele>223.184273</ele>
        <time>2011-03-22T12:18:51Z</time>
      </trkpt>
      <trkpt lat="43.45845" lon="-0.64529">
        <ele>223.212654</ele>
        <time>2011-03-22T12:18:53Z</time>
      </trkpt>
      <trkpt lat="43.45837" lon="-0.64551">
        <ele>223.238887</ele>
        <time>2011-03-22T12:18:56Z</time>
      </trkpt>
      <trkpt lat="43.45832" lon="-0.64567">
        <ele>223.250493</ele>
        <time>2011-03-22T12:18:58Z</time>
      </trkpt>
      <trkpt lat="43.45825" lon="-0.64592">
        <ele>223.251724</ele>
        <time>2011-03-22T12:19:01Z</time>
      </trkpt>
      <trkpt lat="43.45821" lon="-0.64609">
        <ele>223.249356</ele>
        <time>2011-03-22T12:19:03Z</time>
      </trkpt>
      <trkpt lat="43.45816" lon="-0.64635">
        <ele>223.247224</ele>
        <time>2011-03-22T12:19:06Z</time>
      </trkpt>
      <trkpt lat="43.45814" lon="-0.64652">
        <ele>223.384357</ele>
        <time>2011-03-22T12:19:08Z</time>
      </trkpt>
      <trkpt lat="43.45812" lon="-0.64679">
        <ele>223.605778</ele>
        <time>2011-03-22T12:19:11Z</time>
      </trkpt>
      <trkpt lat="43.4581" lon="-0.64705">
        <ele>223.615413</ele>
        <time>2011-03-22T12:19:14Z</time>
      </trkpt>
      <trkpt lat="43.45808" lon="-0.64731">
        <ele>223.421392</ele>
        <time>2011-03-22T12:19:17Z</time>
      </trkpt>
      <trkpt lat="43.45805" lon="-0.64748">
        <ele>223.272639</ele>
        <time>2011-03-22T12:19:19Z</time>
      </trkpt>
      <trkpt lat="43.45799" lon="-0.64772">
        <ele>223.077787</ele>
        <time>2011-03-22T12:19:22Z</time>
      </trkpt>
      <trkpt lat="43.45793" lon="-0.64795">
        <ele>222.717597</ele>
        <time>2011-03-22T12:19:25Z</time>
      </trkpt>
      <trkpt lat="43.45788" lon="-0.6481">
        <ele>222.364035</ele>
        <time>2011-03-22T12:19:27Z</time>
      </trkpt>
      <trkpt lat="43.45781" lon="-0.64831">
        <ele>222.200747</ele>
        <time>2011-03-22T12:19:30Z</time>
      </trkpt>
      <trkpt lat="43.45771" lon="-0.64851">
        <ele>222.178647</ele>
        <time>2011-03-22T12:19:33Z</time>
      </trkpt>
      <trkpt lat="43.45765" lon="-0.64865">
        <ele>222.208487</ele>
        <time>2011-03-22T12:19:35Z</time>
      </trkpt>
      <trkpt lat="43.45756" lon="-0.64884">
        <ele>222.237147</ele>
        <time>2011-03-22T12:19:38Z</time>
      </trkpt>
      <trkpt lat="43.45749" lon="-0.64897">
        <ele>222.111995</ele>
        <time>2011-03-22T12:19:40Z</time>
      </trkpt>
      <trkpt lat="43.45739" lon="-0.64915">
        <ele>221.753733</ele>
        <time>2011-03-22T12:19:43Z</time>
      </trkpt>
      <trkpt lat="43.45729" lon="-0.64933">
        <ele>221.381753</ele>
        <time>2011-03-22T12:19:46Z</time>
      </trkpt>
      <trkpt lat="43.45721" lon="-0.64944">
        <ele>221.204007</ele>
        <time>2011-03-22T12:19:48Z</time>
      </trkpt>
      <trkpt lat="43.45711" lon="-0.64961">
        <ele>221.038096</ele>
        <time>2011-03-22T12:19:51Z</time>
      </trkpt>
      <trkpt lat="43.45701" lon="-0.64979">
        <ele>220.707994</ele>
        <time>2011-03-22T12:19:54Z</time>
      </trkpt>
      <trkpt lat="43.45695" lon="-0.64991">
        <ele>220.368842</ele>
        <time>2011-03-22T12:19:56Z</time>
      </trkpt>
      <trkpt lat="43.45689" lon="-0.65003">
        <ele>220.069613</ele>
        <time>2011-03-22T12:19:58Z</time>
      </trkpt>
      <trkpt lat="43.45678" lon="-0.65015">
        <ele>219.685183</ele>
        <time>2011-03-22T12:20:01Z</time>
      </trkpt>
      <trkpt lat="43.45668" lon="-0.65028">
        <ele>219.204956</ele>
        <time>2011-03-22T12:20:04Z</time>
      </trkpt>
      <trkpt lat="43.45664" lon="-0.6504">
        <ele>218.697347</ele>
        <time>2011-03-22T12:20:07Z</time>
      </trkpt>
      <trkpt lat="43.45664" lon="-0.6504">
        <ele>218.314266</ele>
        <time>2011-03-22T12:20:10Z</time>
      </trkpt>
      <trkpt lat="43.45666" lon="-0.65068">
        <ele>218.170822</ele>
        <time>2011-03-22T12:20:16Z</time>
      </trkpt>
      <trkpt lat="43.45667" lon="-0.65084">
        <ele>218.172106</ele>
        <time>2011-03-22T12:20:20Z</time>
      </trkpt>
      <trkpt lat="43.45668" lon="-0.65098">
        <ele>218.241027</ele>
        <time>2011-03-22T12:20:24Z</time>
      </trkpt>
      <trkpt lat="43.45669" lon="-0.65111">
        <ele>218.453699</ele>
        <time>2011-03-22T12:20:27Z</time>
      </trkpt>
      <trkpt lat="43.45668" lon="-0.65126">
        <ele>218.826777</ele>
        <time>2011-03-22T12:20:30Z</time>
      </trkpt>
      <trkpt lat="43.45666" lon="-0.65144">
        <ele>219.157776</ele>
        <time>2011-03-22T12:20:33Z</time>
      </trkpt>
      <trkpt lat="43.45661" lon="-0.65161">
        <ele>219.438539</ele>
        <time>2011-03-22T12:20:36Z</time>
      </trkpt>
      <trkpt lat="43.45656" lon="-0.65178">
        <ele>219.811281</ele>
        <time>2011-03-22T12:20:39Z</time>
      </trkpt>
      <trkpt lat="43.4565" lon="-0.65195">
        <ele>220.149726</ele>
        <time>2011-03-22T12:20:42Z</time>
      </trkpt>
      <trkpt lat="43.45644" lon="-0.65211">
        <ele>220.298048</ele>
        <time>2011-03-22T12:20:45Z</time>
      </trkpt>
      <trkpt lat="43.45636" lon="-0.65227">
        <ele>220.451278</ele>
        <time>2011-03-22T12:20:48Z</time>
      </trkpt>
      <trkpt lat="43.45629" lon="-0.65243">
        <ele>220.780097</ele>
        <time>2011-03-22T12:20:51Z</time>
      </trkpt>
      <trkpt lat="43.45622" lon="-0.65259">
        <ele>221.121816</ele>
        <time>2011-03-22T12:20:54Z</time>
      </trkpt>
      <trkpt lat="43.45616" lon="-0.65269">
        <ele>221.285099</ele>
        <time>2011-03-22T12:20:56Z</time>
      </trkpt>
      <trkpt lat="43.45609" lon="-0.65284">
        <ele>221.310509</ele>
        <time>2011-03-22T12:20:59Z</time>
      </trkpt>
      <trkpt lat="43.456" lon="-0.65299">
        <ele>221.28308</ele>
        <time>2011-03-22T12:21:02Z</time>
      </trkpt>
      <trkpt lat="43.4559" lon="-0.6531">
        <ele>221.255215</ele>
        <time>2011-03-22T12:21:05Z</time>
      </trkpt>
      <trkpt lat="43.4559" lon="-0.6531">
        <ele>221.242064</ele>
        <time>2011-03-22T12:21:08Z</time>
      </trkpt>
      <trkpt lat="43.4559" lon="-0.6531">
        <ele>221.240072</ele>
        <time>2011-03-22T12:21:54Z</time>
      </trkpt>
      <trkpt lat="43.45555" lon="-0.65313">
        <ele>221.242272</ele>
        <time>2011-03-22T12:22:04Z</time>
      </trkpt>
      <trkpt lat="43.45541" lon="-0.65313">
        <ele>221.382595</ele>
        <time>2011-03-22T12:22:07Z</time>
      </trkpt>
      <trkpt lat="43.45531" lon="-0.65311">
        <ele>221.881539</ele>
        <time>2011-03-22T12:22:09Z</time>
      </trkpt>
      <trkpt lat="43.45531" lon="-0.65311">
        <ele>222.472671</ele>
        <time>2011-03-22T12:22:10Z</time>
      </trkpt>
      <trkpt lat="43.45515" lon="-0.65299">
        <ele>222.65722</ele>
        <time>2011-03-22T12:22:13Z</time>
      </trkpt>
      <trkpt lat="43.45507" lon="-0.65291">
        <ele>222.627559</ele>
        <time>2011-03-22T12:22:15Z</time>
      </trkpt>
      <trkpt lat="43.45507" lon="-0.65291">
        <ele>222.808629</ele>
        <time>2011-03-22T12:22:18Z</time>
      </trkpt>
      <trkpt lat="43.45493" lon="-0.65244">
        <ele>223.091401</ele>
        <time>2011-03-22T12:22:29Z</time>
      </trkpt>
      <trkpt lat="43.45488" lon="-0.65228">
        <ele>223.131953</ele>
        <time>2011-03-22T12:22:33Z</time>
      </trkpt>
      <trkpt lat="43.45484" lon="-0.65214">
        <ele>222.84099</ele>
        <time>2011-03-22T12:22:36Z</time>
      </trkpt>
      <trkpt lat="43.45483" lon="-0.652">
        <ele>222.45742</ele>
        <time>2011-03-22T12:22:39Z</time>
      </trkpt>
      <trkpt lat="43.45483" lon="-0.652">
        <ele>222.234219</ele>
        <time>2011-03-22T12:22:42Z</time>
      </trkpt>
      <trkpt lat="43.4547" lon="-0.65152">
        <ele>222.16982</ele>
        <time>2011-03-22T12:22:55Z</time>
      </trkpt>
      <trkpt lat="43.45461" lon="-0.65145">
        <ele>222.041837</ele>
        <time>2011-03-22T12:22:58Z</time>
      </trkpt>
      <trkpt lat="43.45451" lon="-0.65136">
        <ele>221.574785</ele>
        <time>2011-03-22T12:23:01Z</time>
      </trkpt>
      <trkpt lat="43.45442" lon="-0.65129">
        <ele>220.457218</ele>
        <time>2011-03-22T12:23:04Z</time>
      </trkpt>
      <trkpt lat="43.45434" lon="-0.65122">
        <ele>218.705635</ele>
        <time>2011-03-22T12:23:07Z</time>
      </trkpt>
      <trkpt lat="43.45425" lon="-0.65113">
        <ele>217.036413</ele>
        <time>2011-03-22T12:23:10Z</time>
      </trkpt>
      <trkpt lat="43.45425" lon="-0.65113">
        <ele>216.142098</ele>
        <time>2011-03-22T12:23:15Z</time>
      </trkpt>
      <trkpt lat="43.4541" lon="-0.65071">
        <ele>215.945201</ele>
        <time>2011-03-22T12:23:28Z</time>
      </trkpt>
      <trkpt lat="43.4541" lon="-0.65071">
        <ele>216.05195</ele>
        <time>2011-03-22T12:23:32Z</time>
      </trkpt>
      <trkpt lat="43.45402" lon="-0.65034">
        <ele>216.188317</ele>
        <time>2011-03-22T12:23:35Z</time>
      </trkpt>
      <trkpt lat="43.45402" lon="-0.65034">
        <ele>216.260439</ele>
        <time>2011-03-22T12:23:39Z</time>
      </trkpt>
      <trkpt lat="43.45382" lon="-0.65035">
        <ele>216.23277</ele>
        <time>2011-03-22T12:23:43Z</time>
      </trkpt>
      <trkpt lat="43.45376" lon="-0.65048">
        <ele>216.078073</ele>
        <time>2011-03-22T12:23:47Z</time>
      </trkpt>
      <trkpt lat="43.45368" lon="-0.65056">
        <ele>215.802837</ele>
        <time>2011-03-22T12:23:50Z</time>
      </trkpt>
      <trkpt lat="43.45361" lon="-0.65065">
        <ele>215.216025</ele>
        <time>2011-03-22T12:23:53Z</time>
      </trkpt>
      <trkpt lat="43.4535" lon="-0.65065">
        <ele>214.141486</ele>
        <time>2011-03-22T12:23:55Z</time>
      </trkpt>
      <trkpt lat="43.45337" lon="-0.65068">
        <ele>212.830105</ele>
        <time>2011-03-22T12:23:58Z</time>
      </trkpt>
      <trkpt lat="43.45327" lon="-0.65073">
        <ele>211.755952</ele>
        <time>2011-03-22T12:24:01Z</time>
      </trkpt>
      <trkpt lat="43.45314" lon="-0.65076">
        <ele>210.907303</ele>
        <time>2011-03-22T12:24:04Z</time>
      </trkpt>
      <trkpt lat="43.45302" lon="-0.65083">
        <ele>210.063195</ele>
        <time>2011-03-22T12:24:07Z</time>
      </trkpt>
      <trkpt lat="43.45291" lon="-0.65092">
        <ele>209.393868</ele>
        <time>2011-03-22T12:24:10Z</time>
      </trkpt>
      <trkpt lat="43.45279" lon="-0.65099">
        <ele>209.131006</ele>
        <time>2011-03-22T12:24:13Z</time>
      </trkpt>
      <trkpt lat="43.45269" lon="-0.65106">
        <ele>208.985829</ele>
        <time>2011-03-22T12:24:16Z</time>
      </trkpt>
      <trkpt lat="43.45259" lon="-0.65106">
        <ele>208.695569</ele>
        <time>2011-03-22T12:24:19Z</time>
      </trkpt>
      <trkpt lat="43.45248" lon="-0.65109">
        <ele>208.380471</ele>
        <time>2011-03-22T12:24:23Z</time>
      </trkpt>
      <trkpt lat="43.45239" lon="-0.65113">
        <ele>208.087991</ele>
        <time>2011-03-22T12:24:26Z</time>
      </trkpt>
      <trkpt lat="43.45231" lon="-0.65125">
        <ele>207.701804</ele>
        <time>2011-03-22T12:24:30Z</time>
      </trkpt>
      <trkpt lat="43.45225" lon="-0.65136">
        <ele>207.218354</ele>
        <time>2011-03-22T12:24:34Z</time>
      </trkpt>
      <trkpt lat="43.45215" lon="-0.65139">
        <ele>206.570659</ele>
        <time>2011-03-22T12:24:39Z</time>
      </trkpt>
      <trkpt lat="43.45215" lon="-0.65139">
        <ele>205.827175</ele>
        <time>2011-03-22T12:24:40Z</time>
      </trkpt>
      <trkpt lat="43.45208" lon="-0.65159">
        <ele>205.038092</ele>
        <time>2011-03-22T12:24:52Z</time>
      </trkpt>
      <trkpt lat="43.45208" lon="-0.65159">
        <ele>204.14457</ele>
        <time>2011-03-22T12:24:56Z</time>
      </trkpt>
      <trkpt lat="43.45171" lon="-0.65175">
        <ele>203.282945</ele>
        <time>2011-03-22T12:25:22Z</time>
      </trkpt>
      <trkpt lat="43.45171" lon="-0.65175">
        <ele>202.633613</ele>
        <time>2011-03-22T12:25:26Z</time>
      </trkpt>
      <trkpt lat="43.45133" lon="-0.65166">
        <ele>201.838106</ele>
        <time>2011-03-22T12:25:33Z</time>
      </trkpt>
      <trkpt lat="43.45133" lon="-0.65166">
        <ele>200.980175</ele>
        <time>2011-03-22T12:25:36Z</time>
      </trkpt>
      <trkpt lat="43.45118" lon="-0.65206">
        <ele>200.008161</ele>
        <time>2011-03-22T12:25:47Z</time>
      </trkpt>
      <trkpt lat="43.4512" lon="-0.65222">
        <ele>198.478062</ele>
        <time>2011-03-22T12:25:51Z</time>
      </trkpt>
      <trkpt lat="43.45116" lon="-0.65235">
        <ele>196.175714</ele>
        <time>2011-03-22T12:25:54Z</time>
      </trkpt>
      <trkpt lat="43.4511" lon="-0.65247">
        <ele>193.185856</ele>
        <time>2011-03-22T12:25:57Z</time>
      </trkpt>
      <trkpt lat="43.45108" lon="-0.6526">
        <ele>190.134647</ele>
        <time>2011-03-22T12:26:00Z</time>
      </trkpt>
      <trkpt lat="43.45101" lon="-0.65268">
        <ele>188.139358</ele>
        <time>2011-03-22T12:26:03Z</time>
      </trkpt>
      <trkpt lat="43.45101" lon="-0.65268">
        <ele>187.252317</ele>
        <time>2011-03-22T12:26:05Z</time>
      </trkpt>
      <trkpt lat="43.45084" lon="-0.65303">
        <ele>186.877422</ele>
        <time>2011-03-22T12:26:34Z</time>
      </trkpt>
      <trkpt lat="43.45084" lon="-0.65317">
        <ele>186.592241</ele>
        <time>2011-03-22T12:26:41Z</time>
      </trkpt>
      <trkpt lat="43.45087" lon="-0.6533">
        <ele>186.346402</ele>
        <time>2011-03-22T12:26:54Z</time>
      </trkpt>
      <trkpt lat="43.45089" lon="-0.6535">
        <ele>185.137322</ele>
        <time>2011-03-22T12:27:01Z</time>
      </trkpt>
      <trkpt lat="43.45099" lon="-0.65369">
        <ele>182.112024</ele>
        <time>2011-03-22T12:27:12Z</time>
      </trkpt>
      <trkpt lat="43.45112" lon="-0.6539">
        <ele>178.820113</ele>
        <time>2011-03-22T12:27:20Z</time>
      </trkpt>
      <trkpt lat="43.45116" lon="-0.65403">
        <ele>177.068471</ele>
        <time>2011-03-22T12:27:23Z</time>
      </trkpt>
      <trkpt lat="43.45119" lon="-0.65419">
        <ele>176.68922</ele>
        <time>2011-03-22T12:27:27Z</time>
      </trkpt>
      <trkpt lat="43.45123" lon="-0.65433">
        <ele>176.903105</ele>
        <time>2011-03-22T12:27:30Z</time>
      </trkpt>
      <trkpt lat="43.45136" lon="-0.65453">
        <ele>177.171991</ele>
        <time>2011-03-22T12:27:36Z</time>
      </trkpt>
      <trkpt lat="43.45141" lon="-0.65477">
        <ele>177.313244</ele>
        <time>2011-03-22T12:27:48Z</time>
      </trkpt>
      <trkpt lat="43.45134" lon="-0.65496">
        <ele>177.204666</ele>
        <time>2011-03-22T12:27:59Z</time>
      </trkpt>
      <trkpt lat="43.4513" lon="-0.65511">
        <ele>176.688597</ele>
        <time>2011-03-22T12:28:06Z</time>
      </trkpt>
      <trkpt lat="43.45126" lon="-0.65538">
        <ele>175.937283</ele>
        <time>2011-03-22T12:28:13Z</time>
      </trkpt>
      <trkpt lat="43.45125" lon="-0.65553">
        <ele>175.381125</ele>
        <time>2011-03-22T12:28:19Z</time>
      </trkpt>
      <trkpt lat="43.45126" lon="-0.65568">
        <ele>175.038747</ele>
        <time>2011-03-22T12:28:23Z</time>
      </trkpt>
      <trkpt lat="43.45127" lon="-0.65583">
        <ele>174.683765</ele>
        <time>2011-03-22T12:28:30Z</time>
      </trkpt>
      <trkpt lat="43.45127" lon="-0.65583">
        <ele>174.37621</ele>
        <time>2011-03-22T12:28:44Z</time>
      </trkpt>
      <trkpt lat="43.45127" lon="-0.65583">
        <ele>174.229349</ele>
        <time>2011-03-22T12:29:00Z</time>
      </trkpt>
      <trkpt lat="43.4511" lon="-0.65617">
        <ele>174.054086</ele>
        <time>2011-03-22T12:30:29Z</time>
      </trkpt>
      <trkpt lat="43.45105" lon="-0.6563">
        <ele>173.584183</ele>
        <time>2011-03-22T12:30:33Z</time>
      </trkpt>
      <trkpt lat="43.451" lon="-0.65643">
        <ele>172.35057</ele>
        <time>2011-03-22T12:30:37Z</time>
      </trkpt>
      <trkpt lat="43.45096" lon="-0.65655">
        <ele>167.354724</ele>
        <time>2011-03-22T12:30:41Z</time>
      </trkpt>
      <trkpt lat="43.45091" lon="-0.65666">
        <ele>157.764994</ele>
        <time>2011-03-22T12:30:45Z</time>
      </trkpt>
      <trkpt lat="43.45088" lon="-0.65678">
        <ele>148.937283</ele>
        <time>2011-03-22T12:30:49Z</time>
      </trkpt>
      <trkpt lat="43.45084" lon="-0.6569">
        <ele>145.031432</ele>
        <time>2011-03-22T12:30:53Z</time>
      </trkpt>
      <trkpt lat="43.4508" lon="-0.65702">
        <ele>144.609563</ele>
        <time>2011-03-22T12:30:57Z</time>
      </trkpt>
      <trkpt lat="43.45078" lon="-0.65714">
        <ele>145.40519</ele>
        <time>2011-03-22T12:31:01Z</time>
      </trkpt>
      <trkpt lat="43.45082" lon="-0.65726">
        <ele>146.123645</ele>
        <time>2011-03-22T12:31:06Z</time>
      </trkpt>
      <trkpt lat="43.4509" lon="-0.65732">
        <ele>146.437169</ele>
        <time>2011-03-22T12:31:10Z</time>
      </trkpt>
      <trkpt lat="43.451" lon="-0.65739">
        <ele>146.4682</ele>
        <time>2011-03-22T12:31:14Z</time>
      </trkpt>
      <trkpt lat="43.45109" lon="-0.65745">
        <ele>146.402185</ele>
        <time>2011-03-22T12:31:17Z</time>
      </trkpt>
      <trkpt lat="43.45117" lon="-0.65752">
        <ele>146.20552</ele>
        <time>2011-03-22T12:31:20Z</time>
      </trkpt>
      <trkpt lat="43.45126" lon="-0.65762">
        <ele>145.82047</ele>
        <time>2011-03-22T12:31:24Z</time>
      </trkpt>
      <trkpt lat="43.45133" lon="-0.65775">
        <ele>145.586959</ele>
        <time>2011-03-22T12:31:28Z</time>
      </trkpt>
      <trkpt lat="43.45138" lon="-0.65786">
        <ele>145.777051</ele>
        <time>2011-03-22T12:31:31Z</time>
      </trkpt>
      <trkpt lat="43.45143" lon="-0.65799">
        <ele>146.124706</ele>
        <time>2011-03-22T12:31:34Z</time>
      </trkpt>
      <trkpt lat="43.45146" lon="-0.65816">
        <ele>146.470157</ele>
        <time>2011-03-22T12:31:37Z</time>
      </trkpt>
      <trkpt lat="43.45151" lon="-0.65834">
        <ele>146.886857</ele>
        <time>2011-03-22T12:31:40Z</time>
      </trkpt>
      <trkpt lat="43.45153" lon="-0.65848">
        <ele>147.37812</ele>
        <time>2011-03-22T12:31:42Z</time>
      </trkpt>
      <trkpt lat="43.45157" lon="-0.65871">
        <ele>147.884778</ele>
        <time>2011-03-22T12:31:45Z</time>
      </trkpt>
      <trkpt lat="43.45161" lon="-0.65895">
        <ele>148.402132</ele>
        <time>2011-03-22T12:31:48Z</time>
      </trkpt>
      <trkpt lat="43.45165" lon="-0.65925">
        <ele>148.902772</ele>
        <time>2011-03-22T12:31:51Z</time>
      </trkpt>
      <trkpt lat="43.45169" lon="-0.65947">
        <ele>149.408135</ele>
        <time>2011-03-22T12:31:53Z</time>
      </trkpt>
      <trkpt lat="43.45174" lon="-0.65981">
        <ele>149.901418</ele>
        <time>2011-03-22T12:31:56Z</time>
      </trkpt>
      <trkpt lat="43.45179" lon="-0.66003">
        <ele>150.266494</ele>
        <time>2011-03-22T12:31:58Z</time>
      </trkpt>
      <trkpt lat="43.45184" lon="-0.66023">
        <ele>150.400472</ele>
        <time>2011-03-22T12:32:00Z</time>
      </trkpt>
      <trkpt lat="43.45193" lon="-0.66051">
        <ele>150.397188</ele>
        <time>2011-03-22T12:32:03Z</time>
      </trkpt>
      <trkpt lat="43.45197" lon="-0.66072">
        <ele>150.356513</ele>
        <time>2011-03-22T12:32:06Z</time>
      </trkpt>
      <trkpt lat="43.45189" lon="-0.66086">
        <ele>150.326829</ele>
        <time>2011-03-22T12:32:09Z</time>
      </trkpt>
      <trkpt lat="43.45178" lon="-0.66097">
        <ele>150.177889</ele>
        <time>2011-03-22T12:32:12Z</time>
      </trkpt>
      <trkpt lat="43.45169" lon="-0.66104">
        <ele>149.680153</ele>
        <time>2011-03-22T12:32:15Z</time>
      </trkpt>
      <trkpt lat="43.45153" lon="-0.66111">
        <ele>148.954109</ele>
        <time>2011-03-22T12:32:18Z</time>
      </trkpt>
      <trkpt lat="43.45141" lon="-0.66124">
        <ele>148.411726</ele>
        <time>2011-03-22T12:32:21Z</time>
      </trkpt>
      <trkpt lat="43.45129" lon="-0.66137">
        <ele>148.210654</ele>
        <time>2011-03-22T12:32:24Z</time>
      </trkpt>
      <trkpt lat="43.45118" lon="-0.6615">
        <ele>148.213921</ele>
        <time>2011-03-22T12:32:27Z</time>
      </trkpt>
      <trkpt lat="43.45108" lon="-0.66165">
        <ele>148.273617</ele>
        <time>2011-03-22T12:32:30Z</time>
      </trkpt>
      <trkpt lat="43.45101" lon="-0.6618">
        <ele>148.317552</ele>
        <time>2011-03-22T12:32:33Z</time>
      </trkpt>
      <trkpt lat="43.45098" lon="-0.66198">
        <ele>148.333605</ele>
        <time>2011-03-22T12:32:36Z</time>
      </trkpt>
      <trkpt lat="43.45096" lon="-0.66216">
        <ele>148.333194</ele>
        <time>2011-03-22T12:32:39Z</time>
      </trkpt>
      <trkpt lat="43.45097" lon="-0.66234">
        <ele>148.328312</ele>
        <time>2011-03-22T12:32:42Z</time>
      </trkpt>
      <trkpt lat="43.45097" lon="-0.66252">
        <ele>148.324721</ele>
        <time>2011-03-22T12:32:45Z</time>
      </trkpt>
      <trkpt lat="43.451" lon="-0.66269">
        <ele>148.323364</ele>
        <time>2011-03-22T12:32:48Z</time>
      </trkpt>
      <trkpt lat="43.45103" lon="-0.66286">
        <ele>148.323291</ele>
        <time>2011-03-22T12:32:51Z</time>
      </trkpt>
      <trkpt lat="43.45105" lon="-0.66303">
        <ele>148.323526</ele>
        <time>2011-03-22T12:32:54Z</time>
      </trkpt>
      <trkpt lat="43.45108" lon="-0.6632">
        <ele>148.323662</ele>
        <time>2011-03-22T12:32:57Z</time>
      </trkpt>
      <trkpt lat="43.45112" lon="-0.66338">
        <ele>148.323663</ele>
        <time>2011-03-22T12:33:00Z</time>
      </trkpt>
      <trkpt lat="43.45115" lon="-0.6635">
        <ele>148.323587</ele>
        <time>2011-03-22T12:33:02Z</time>
      </trkpt>
      <trkpt lat="43.45118" lon="-0.66369">
        <ele>148.323498</ele>
        <time>2011-03-22T12:33:05Z</time>
      </trkpt>
      <trkpt lat="43.4512" lon="-0.66382">
        <ele>148.323431</ele>
        <time>2011-03-22T12:33:07Z</time>
      </trkpt>
      <trkpt lat="43.45122" lon="-0.66403">
        <ele>148.323392</ele>
        <time>2011-03-22T12:33:10Z</time>
      </trkpt>
      <trkpt lat="43.45123" lon="-0.66425">
        <ele>148.32337</ele>
        <time>2011-03-22T12:33:13Z</time>
      </trkpt>
      <trkpt lat="43.45123" lon="-0.66441">
        <ele>148.323347</ele>
        <time>2011-03-22T12:33:15Z</time>
      </trkpt>
      <trkpt lat="43.45124" lon="-0.66463">
        <ele>148.046953</ele>
        <time>2011-03-22T12:33:18Z</time>
      </trkpt>
      <trkpt lat="43.45126" lon="-0.66485">
        <ele>147.327114</ele>
        <time>2011-03-22T12:33:21Z</time>
      </trkpt>
      <trkpt lat="43.45129" lon="-0.66509">
        <ele>146.450002</ele>
        <time>2011-03-22T12:33:24Z</time>
      </trkpt>
      <trkpt lat="43.45131" lon="-0.66532">
        <ele>145.739519</ele>
        <time>2011-03-22T12:33:27Z</time>
      </trkpt>
      <trkpt lat="43.45134" lon="-0.66556">
        <ele>145.040597</ele>
        <time>2011-03-22T12:33:30Z</time>
      </trkpt>
      <trkpt lat="43.45137" lon="-0.6658">
        <ele>144.067273</ele>
        <time>2011-03-22T12:33:33Z</time>
      </trkpt>
      <trkpt lat="43.45141" lon="-0.66605">
        <ele>142.863947</ele>
        <time>2011-03-22T12:33:36Z</time>
      </trkpt>
      <trkpt lat="43.45145" lon="-0.6663">
        <ele>141.70403</ele>
        <time>2011-03-22T12:33:39Z</time>
      </trkpt>
      <trkpt lat="43.45147" lon="-0.66654">
        <ele>140.642286</ele>
        <time>2011-03-22T12:33:42Z</time>
      </trkpt>
      <trkpt lat="43.45146" lon="-0.66668">
        <ele>139.641996</ele>
        <time>2011-03-22T12:33:44Z</time>
      </trkpt>
      <trkpt lat="43.4514" lon="-0.66683">
        <ele>138.798123</ele>
        <time>2011-03-22T12:33:47Z</time>
      </trkpt>
      <trkpt lat="43.45129" lon="-0.66689">
        <ele>138.17217</ele>
        <time>2011-03-22T12:33:51Z</time>
      </trkpt>
      <trkpt lat="43.45119" lon="-0.66694">
        <ele>137.547712</ele>
        <time>2011-03-22T12:33:54Z</time>
      </trkpt>
      <trkpt lat="43.45108" lon="-0.66698">
        <ele>136.724112</ele>
        <time>2011-03-22T12:33:57Z</time>
      </trkpt>
      <trkpt lat="43.45097" lon="-0.66703">
        <ele>135.750336</ele>
        <time>2011-03-22T12:34:00Z</time>
      </trkpt>
      <trkpt lat="43.45085" lon="-0.66708">
        <ele>134.858549</ele>
        <time>2011-03-22T12:34:03Z</time>
      </trkpt>
      <trkpt lat="43.45073" lon="-0.66714">
        <ele>134.189018</ele>
        <time>2011-03-22T12:34:06Z</time>
      </trkpt>
      <trkpt lat="43.45064" lon="-0.66718">
        <ele>133.545446</ele>
        <time>2011-03-22T12:34:08Z</time>
      </trkpt>
      <trkpt lat="43.45055" lon="-0.66723">
        <ele>132.858067</ele>
        <time>2011-03-22T12:34:10Z</time>
      </trkpt>
      <trkpt lat="43.45041" lon="-0.66731">
        <ele>132.386336</ele>
        <time>2011-03-22T12:34:13Z</time>
      </trkpt>
      <trkpt lat="43.45026" lon="-0.66739">
        <ele>132.227425</ele>
        <time>2011-03-22T12:34:16Z</time>
      </trkpt>
      <trkpt lat="43.45012" lon="-0.6675">
        <ele>132.104128</ele>
        <time>2011-03-22T12:34:19Z</time>
      </trkpt>
      <trkpt lat="43.44996" lon="-0.66761">
        <ele>131.800671</ele>
        <time>2011-03-22T12:34:22Z</time>
      </trkpt>
      <trkpt lat="43.4498" lon="-0.66772">
        <ele>131.46939</ele>
        <time>2011-03-22T12:34:25Z</time>
      </trkpt>
      <trkpt lat="43.44964" lon="-0.66785">
        <ele>131.306691</ele>
        <time>2011-03-22T12:34:28Z</time>
      </trkpt>
      <trkpt lat="43.44947" lon="-0.66796">
        <ele>131.140506</ele>
        <time>2011-03-22T12:34:31Z</time>
      </trkpt>
      <trkpt lat="43.44936" lon="-0.66801">
        <ele>130.529501</ele>
        <time>2011-03-22T12:34:33Z</time>
      </trkpt>
      <trkpt lat="43.44917" lon="-0.66807">
        <ele>129.19083</ele>
        <time>2011-03-22T12:34:36Z</time>
      </trkpt>
      <trkpt lat="43.44898" lon="-0.66812">
        <ele>127.569896</ele>
        <time>2011-03-22T12:34:39Z</time>
      </trkpt>
      <trkpt lat="43.44884" lon="-0.66815">
        <ele>126.456019</ele>
        <time>2011-03-22T12:34:41Z</time>
      </trkpt>
      <trkpt lat="43.44864" lon="-0.66821">
        <ele>126.080217</ele>
        <time>2011-03-22T12:34:44Z</time>
      </trkpt>
      <trkpt lat="43.44851" lon="-0.66825">
        <ele>126.114948</ele>
        <time>2011-03-22T12:34:46Z</time>
      </trkpt>
      <trkpt lat="43.44832" lon="-0.6683">
        <ele>126.109912</ele>
        <time>2011-03-22T12:34:49Z</time>
      </trkpt>
      <trkpt lat="43.44818" lon="-0.66834">
        <ele>125.70202</ele>
        <time>2011-03-22T12:34:52Z</time>
      </trkpt>
      <trkpt lat="43.4481" lon="-0.66828">
        <ele>125.002525</ele>
        <time>2011-03-22T12:34:57Z</time>
      </trkpt>
      <trkpt lat="43.44814" lon="-0.66813">
        <ele>124.454524</ele>
        <time>2011-03-22T12:35:00Z</time>
      </trkpt>
      <trkpt lat="43.44821" lon="-0.66798">
        <ele>124.103526</ele>
        <time>2011-03-22T12:35:03Z</time>
      </trkpt>
      <trkpt lat="43.44828" lon="-0.66783">
        <ele>123.601526</ele>
        <time>2011-03-22T12:35:06Z</time>
      </trkpt>
      <trkpt lat="43.44836" lon="-0.66768">
        <ele>122.929867</ele>
        <time>2011-03-22T12:35:09Z</time>
      </trkpt>
      <trkpt lat="43.4484" lon="-0.66757">
        <ele>122.291526</ele>
        <time>2011-03-22T12:35:11Z</time>
      </trkpt>
      <trkpt lat="43.44845" lon="-0.66744">
        <ele>121.746995</ele>
        <time>2011-03-22T12:35:13Z</time>
      </trkpt>
      <trkpt lat="43.44848" lon="-0.6673">
        <ele>121.381277</ele>
        <time>2011-03-22T12:35:15Z</time>
      </trkpt>
      <trkpt lat="43.44852" lon="-0.66707">
        <ele>121.261427</ele>
        <time>2011-03-22T12:35:18Z</time>
      </trkpt>
      <trkpt lat="43.44855" lon="-0.66691">
        <ele>121.275544</ele>
        <time>2011-03-22T12:35:20Z</time>
      </trkpt>
      <trkpt lat="43.44859" lon="-0.66675">
        <ele>121.458497</ele>
        <time>2011-03-22T12:35:22Z</time>
      </trkpt>
      <trkpt lat="43.44864" lon="-0.66652">
        <ele>121.848011</ele>
        <time>2011-03-22T12:35:25Z</time>
      </trkpt>
      <trkpt lat="43.44869" lon="-0.6663">
        <ele>122.226992</ele>
        <time>2011-03-22T12:35:28Z</time>
      </trkpt>
      <trkpt lat="43.44872" lon="-0.66611">
        <ele>122.401069</ele>
        <time>2011-03-22T12:35:31Z</time>
      </trkpt>
      <trkpt lat="43.44875" lon="-0.66592">
        <ele>122.424069</ele>
        <time>2011-03-22T12:35:34Z</time>
      </trkpt>
      <trkpt lat="43.44876" lon="-0.66573">
        <ele>122.391848</ele>
        <time>2011-03-22T12:35:37Z</time>
      </trkpt>
      <trkpt lat="43.44874" lon="-0.66561">
        <ele>122.361105</ele>
        <time>2011-03-22T12:35:39Z</time>
      </trkpt>
      <trkpt lat="43.44868" lon="-0.66545">
        <ele>122.347178</ele>
        <time>2011-03-22T12:35:42Z</time>
      </trkpt>
      <trkpt lat="43.4486" lon="-0.6653">
        <ele>122.345486</ele>
        <time>2011-03-22T12:35:45Z</time>
      </trkpt>
      <trkpt lat="43.44853" lon="-0.66515">
        <ele>122.348193</ele>
        <time>2011-03-22T12:35:48Z</time>
      </trkpt>
      <trkpt lat="43.44844" lon="-0.66498">
        <ele>122.350728</ele>
        <time>2011-03-22T12:35:51Z</time>
      </trkpt>
      <trkpt lat="43.44836" lon="-0.66481">
        <ele>122.490079</ele>
        <time>2011-03-22T12:35:54Z</time>
      </trkpt>
      <trkpt lat="43.44827" lon="-0.66464">
        <ele>123.126514</ele>
        <time>2011-03-22T12:35:57Z</time>
      </trkpt>
      <trkpt lat="43.4482" lon="-0.66446">
        <ele>124.215557</ele>
        <time>2011-03-22T12:36:00Z</time>
      </trkpt>
      <trkpt lat="43.44816" lon="-0.66428">
        <ele>125.129528</ele>
        <time>2011-03-22T12:36:03Z</time>
      </trkpt>
      <trkpt lat="43.44812" lon="-0.66411">
        <ele>125.644695</ele>
        <time>2011-03-22T12:36:06Z</time>
      </trkpt>
      <trkpt lat="43.44808" lon="-0.66396">
        <ele>126.027645</ele>
        <time>2011-03-22T12:36:09Z</time>
      </trkpt>
      <trkpt lat="43.44802" lon="-0.66382">
        <ele>126.307016</ele>
        <time>2011-03-22T12:36:12Z</time>
      </trkpt>
      <trkpt lat="43.44795" lon="-0.66369">
        <ele>126.408018</ele>
        <time>2011-03-22T12:36:15Z</time>
      </trkpt>
      <trkpt lat="43.44786" lon="-0.66357">
        <ele>126.542578</ele>
        <time>2011-03-22T12:36:18Z</time>
      </trkpt>
      <trkpt lat="43.44778" lon="-0.66344">
        <ele>126.870985</ele>
        <time>2011-03-22T12:36:21Z</time>
      </trkpt>
      <trkpt lat="43.4477" lon="-0.66329">
        <ele>127.21778</ele>
        <time>2011-03-22T12:36:24Z</time>
      </trkpt>
      <trkpt lat="43.44761" lon="-0.66314">
        <ele>127.384987</ele>
        <time>2011-03-22T12:36:27Z</time>
      </trkpt>
      <trkpt lat="43.44753" lon="-0.66299">
        <ele>127.273745</ele>
        <time>2011-03-22T12:36:30Z</time>
      </trkpt>
      <trkpt lat="43.44746" lon="-0.66282">
        <ele>126.748314</ele>
        <time>2011-03-22T12:36:33Z</time>
      </trkpt>
      <trkpt lat="43.44742" lon="-0.6627">
        <ele>125.990754</ele>
        <time>2011-03-22T12:36:35Z</time>
      </trkpt>
      <trkpt lat="43.4474" lon="-0.66257">
        <ele>125.432618</ele>
        <time>2011-03-22T12:36:37Z</time>
      </trkpt>
      <trkpt lat="43.44737" lon="-0.66243">
        <ele>125.090596</ele>
        <time>2011-03-22T12:36:39Z</time>
      </trkpt>
      <trkpt lat="43.44732" lon="-0.66222">
        <ele>124.736469</ele>
        <time>2011-03-22T12:36:42Z</time>
      </trkpt>
      <trkpt lat="43.44724" lon="-0.66202">
        <ele>124.2913</ele>
        <time>2011-03-22T12:36:45Z</time>
      </trkpt>
      <trkpt lat="43.44712" lon="-0.66183">
        <ele>123.801499</ele>
        <time>2011-03-22T12:36:48Z</time>
      </trkpt>
      <trkpt lat="43.44699" lon="-0.66165">
        <ele>123.421868</ele>
        <time>2011-03-22T12:36:51Z</time>
      </trkpt>
      <trkpt lat="43.44691" lon="-0.66153">
        <ele>123.275945</ele>
        <time>2011-03-22T12:36:53Z</time>
      </trkpt>
      <trkpt lat="43.44686" lon="-0.66139">
        <ele>123.274371</ele>
        <time>2011-03-22T12:36:55Z</time>
      </trkpt>
      <trkpt lat="43.44691" lon="-0.66118">
        <ele>123.176587</ele>
        <time>2011-03-22T12:36:58Z</time>
      </trkpt>
      <trkpt lat="43.44698" lon="-0.66099">
        <ele>122.847539</ele>
        <time>2011-03-22T12:37:01Z</time>
      </trkpt>
      <trkpt lat="43.44702" lon="-0.66087">
        <ele>122.489805</ele>
        <time>2011-03-22T12:37:03Z</time>
      </trkpt>
      <trkpt lat="43.44707" lon="-0.66069">
        <ele>122.314553</ele>
        <time>2011-03-22T12:37:06Z</time>
      </trkpt>
      <trkpt lat="43.44711" lon="-0.66051">
        <ele>122.284727</ele>
        <time>2011-03-22T12:37:09Z</time>
      </trkpt>
      <trkpt lat="43.44716" lon="-0.66033">
        <ele>122.450476</ele>
        <time>2011-03-22T12:37:12Z</time>
      </trkpt>
      <trkpt lat="43.44721" lon="-0.66014">
        <ele>122.839646</ele>
        <time>2011-03-22T12:37:15Z</time>
      </trkpt>
      <trkpt lat="43.44723" lon="-0.66002">
        <ele>123.223249</ele>
        <time>2011-03-22T12:37:17Z</time>
      </trkpt>
      <trkpt lat="43.44728" lon="-0.65983">
        <ele>123.400824</ele>
        <time>2011-03-22T12:37:20Z</time>
      </trkpt>
      <trkpt lat="43.44731" lon="-0.65964">
        <ele>123.286954</ele>
        <time>2011-03-22T12:37:23Z</time>
      </trkpt>
      <trkpt lat="43.44734" lon="-0.65945">
        <ele>122.894886</ele>
        <time>2011-03-22T12:37:26Z</time>
      </trkpt>
      <trkpt lat="43.44737" lon="-0.65926">
        <ele>122.494407</ele>
        <time>2011-03-22T12:37:29Z</time>
      </trkpt>
      <trkpt lat="43.44738" lon="-0.65908">
        <ele>122.304968</ele>
        <time>2011-03-22T12:37:32Z</time>
      </trkpt>
      <trkpt lat="43.4474" lon="-0.6589">
        <ele>122.276623</ele>
        <time>2011-03-22T12:37:35Z</time>
      </trkpt>
      <trkpt lat="43.44742" lon="-0.65877">
        <ele>122.309294</ele>
        <time>2011-03-22T12:37:37Z</time>
      </trkpt>
      <trkpt lat="43.44745" lon="-0.65858">
        <ele>122.341957</ele>
        <time>2011-03-22T12:37:40Z</time>
      </trkpt>
      <trkpt lat="43.44749" lon="-0.65839">
        <ele>122.357231</ele>
        <time>2011-03-22T12:37:43Z</time>
      </trkpt>
      <trkpt lat="43.44752" lon="-0.6582">
        <ele>122.359439</ele>
        <time>2011-03-22T12:37:46Z</time>
      </trkpt>
      <trkpt lat="43.44757" lon="-0.65802">
        <ele>122.356794</ele>
        <time>2011-03-22T12:37:49Z</time>
      </trkpt>
      <trkpt lat="43.4476" lon="-0.65783">
        <ele>122.354239</ele>
        <time>2011-03-22T12:37:52Z</time>
      </trkpt>
      <trkpt lat="43.44764" lon="-0.65765">
        <ele>122.35314</ele>
        <time>2011-03-22T12:37:55Z</time>
      </trkpt>
      <trkpt lat="43.44768" lon="-0.65747">
        <ele>122.353096</ele>
        <time>2011-03-22T12:37:58Z</time>
      </trkpt>
      <trkpt lat="43.44772" lon="-0.65729">
        <ele>122.35342</ele>
        <time>2011-03-22T12:38:01Z</time>
      </trkpt>
      <trkpt lat="43.44775" lon="-0.65711">
        <ele>122.353719</ele>
        <time>2011-03-22T12:38:04Z</time>
      </trkpt>
      <trkpt lat="43.44779" lon="-0.65694">
        <ele>122.353892</ele>
        <time>2011-03-22T12:38:07Z</time>
      </trkpt>
      <trkpt lat="43.44783" lon="-0.65677">
        <ele>122.353978</ele>
        <time>2011-03-22T12:38:10Z</time>
      </trkpt>
      <trkpt lat="43.44787" lon="-0.65661">
        <ele>122.354035</ele>
        <time>2011-03-22T12:38:13Z</time>
      </trkpt>
      <trkpt lat="43.4479" lon="-0.65645">
        <ele>122.354096</ele>
        <time>2011-03-22T12:38:16Z</time>
      </trkpt>
      <trkpt lat="43.44794" lon="-0.65628">
        <ele>122.354167</ele>
        <time>2011-03-22T12:38:19Z</time>
      </trkpt>
      <trkpt lat="43.44797" lon="-0.65611">
        <ele>122.354241</ele>
        <time>2011-03-22T12:38:22Z</time>
      </trkpt>
      <trkpt lat="43.44801" lon="-0.65595">
        <ele>122.354314</ele>
        <time>2011-03-22T12:38:25Z</time>
      </trkpt>
      <trkpt lat="43.44804" lon="-0.65578">
        <ele>122.354386</ele>
        <time>2011-03-22T12:38:28Z</time>
      </trkpt>
      <trkpt lat="43.44807" lon="-0.65561">
        <ele>122.354459</ele>
        <time>2011-03-22T12:38:31Z</time>
      </trkpt>
      <trkpt lat="43.44804" lon="-0.65544">
        <ele>122.49271</ele>
        <time>2011-03-22T12:38:34Z</time>
      </trkpt>
      <trkpt lat="43.44799" lon="-0.65529">
        <ele>122.990853</ele>
        <time>2011-03-22T12:38:37Z</time>
      </trkpt>
      <trkpt lat="43.4479" lon="-0.65512">
        <ele>123.720251</ele>
        <time>2011-03-22T12:38:40Z</time>
      </trkpt>
      <trkpt lat="43.44785" lon="-0.65492">
        <ele>124.26502</ele>
        <time>2011-03-22T12:38:43Z</time>
      </trkpt>
      <trkpt lat="43.44783" lon="-0.65477">
        <ele>124.466875</ele>
        <time>2011-03-22T12:38:45Z</time>
      </trkpt>
      <trkpt lat="43.44782" lon="-0.65463">
        <ele>124.463456</ele>
        <time>2011-03-22T12:38:47Z</time>
      </trkpt>
      <trkpt lat="43.44781" lon="-0.65449">
        <ele>124.403373</ele>
        <time>2011-03-22T12:38:49Z</time>
      </trkpt>
      <trkpt lat="43.4478" lon="-0.65428">
        <ele>124.221011</ele>
        <time>2011-03-22T12:38:52Z</time>
      </trkpt>
      <trkpt lat="43.44779" lon="-0.65406">
        <ele>123.845048</ele>
        <time>2011-03-22T12:38:55Z</time>
      </trkpt>
      <trkpt lat="43.44779" lon="-0.65392">
        <ele>123.337989</ele>
        <time>2011-03-22T12:38:57Z</time>
      </trkpt>
      <trkpt lat="43.44779" lon="-0.65371">
        <ele>122.807896</ele>
        <time>2011-03-22T12:39:00Z</time>
      </trkpt>
      <trkpt lat="43.44778" lon="-0.65349">
        <ele>122.415617</ele>
        <time>2011-03-22T12:39:03Z</time>
      </trkpt>
      <trkpt lat="43.44778" lon="-0.65328">
        <ele>122.271672</ele>
        <time>2011-03-22T12:39:06Z</time>
      </trkpt>
      <trkpt lat="43.44778" lon="-0.65306">
        <ele>122.413387</ele>
        <time>2011-03-22T12:39:09Z</time>
      </trkpt>
      <trkpt lat="43.44779" lon="-0.65292">
        <ele>122.955158</ele>
        <time>2011-03-22T12:39:11Z</time>
      </trkpt>
      <trkpt lat="43.44781" lon="-0.65278">
        <ele>123.716379</ele>
        <time>2011-03-22T12:39:13Z</time>
      </trkpt>
      <trkpt lat="43.44787" lon="-0.65259">
        <ele>124.272647</ele>
        <time>2011-03-22T12:39:16Z</time>
      </trkpt>
      <trkpt lat="43.4479" lon="-0.65247">
        <ele>124.612267</ele>
        <time>2011-03-22T12:39:18Z</time>
      </trkpt>
      <trkpt lat="43.44794" lon="-0.65235">
        <ele>124.965175</ele>
        <time>2011-03-22T12:39:20Z</time>
      </trkpt>
      <trkpt lat="43.44798" lon="-0.65217">
        <ele>125.271984</ele>
        <time>2011-03-22T12:39:23Z</time>
      </trkpt>
      <trkpt lat="43.44802" lon="-0.65206">
        <ele>125.402151</ele>
        <time>2011-03-22T12:39:25Z</time>
      </trkpt>
      <trkpt lat="43.44807" lon="-0.65187">
        <ele>125.412627</ele>
        <time>2011-03-22T12:39:28Z</time>
      </trkpt>
      <trkpt lat="43.44811" lon="-0.65169">
        <ele>125.383447</ele>
        <time>2011-03-22T12:39:31Z</time>
      </trkpt>
      <trkpt lat="43.44815" lon="-0.65151">
        <ele>125.358556</ele>
        <time>2011-03-22T12:39:34Z</time>
      </trkpt>
      <trkpt lat="43.44819" lon="-0.65134">
        <ele>125.348205</ele>
        <time>2011-03-22T12:39:37Z</time>
      </trkpt>
      <trkpt lat="43.44823" lon="-0.65117">
        <ele>125.485766</ele>
        <time>2011-03-22T12:39:40Z</time>
      </trkpt>
      <trkpt lat="43.44826" lon="-0.65103">
        <ele>125.848207</ele>
        <time>2011-03-22T12:39:43Z</time>
      </trkpt>
      <trkpt lat="43.44828" lon="-0.65091">
        <ele>126.357954</ele>
        <time>2011-03-22T12:39:48Z</time>
      </trkpt>
      <trkpt lat="43.44828" lon="-0.65091">
        <ele>126.894017</ele>
        <time>2011-03-22T12:39:49Z</time>
      </trkpt>
      <trkpt lat="43.44814" lon="-0.6512">
        <ele>127.290079</ele>
        <time>2011-03-22T12:40:22Z</time>
      </trkpt>
      <trkpt lat="43.44802" lon="-0.65117">
        <ele>127.435195</ele>
        <time>2011-03-22T12:40:25Z</time>
      </trkpt>
      <trkpt lat="43.44789" lon="-0.65114">
        <ele>127.431504</ele>
        <time>2011-03-22T12:40:28Z</time>
      </trkpt>
      <trkpt lat="43.44772" lon="-0.65112">
        <ele>127.801915</ele>
        <time>2011-03-22T12:40:31Z</time>
      </trkpt>
      <trkpt lat="43.44753" lon="-0.6511">
        <ele>128.98758</ele>
        <time>2011-03-22T12:40:34Z</time>
      </trkpt>
      <trkpt lat="43.44736" lon="-0.65106">
        <ele>130.444064</ele>
        <time>2011-03-22T12:40:37Z</time>
      </trkpt>
      <trkpt lat="43.44719" lon="-0.65101">
        <ele>131.339617</ele>
        <time>2011-03-22T12:40:40Z</time>
      </trkpt>
      <trkpt lat="43.44702" lon="-0.65096">
        <ele>131.598058</ele>
        <time>2011-03-22T12:40:43Z</time>
      </trkpt>
      <trkpt lat="43.44683" lon="-0.65091">
        <ele>131.399046</ele>
        <time>2011-03-22T12:40:46Z</time>
      </trkpt>
      <trkpt lat="43.44665" lon="-0.65086">
        <ele>130.781573</ele>
        <time>2011-03-22T12:40:49Z</time>
      </trkpt>
      <trkpt lat="43.44646" lon="-0.6508">
        <ele>129.979762</ele>
        <time>2011-03-22T12:40:52Z</time>
      </trkpt>
      <trkpt lat="43.44627" lon="-0.65074">
        <ele>129.276373</ele>
        <time>2011-03-22T12:40:55Z</time>
      </trkpt>
      <trkpt lat="43.44608" lon="-0.65068">
        <ele>128.719884</ele>
        <time>2011-03-22T12:40:58Z</time>
      </trkpt>
      <trkpt lat="43.44595" lon="-0.65064">
        <ele>128.363624</ele>
        <time>2011-03-22T12:41:00Z</time>
      </trkpt>
      <trkpt lat="43.44575" lon="-0.65058">
        <ele>128.116077</ele>
        <time>2011-03-22T12:41:03Z</time>
      </trkpt>
      <trkpt lat="43.44555" lon="-0.65052">
        <ele>127.775419</ele>
        <time>2011-03-22T12:41:06Z</time>
      </trkpt>
      <trkpt lat="43.44535" lon="-0.65045">
        <ele>127.313405</ele>
        <time>2011-03-22T12:41:09Z</time>
      </trkpt>
      <trkpt lat="43.44521" lon="-0.65041">
        <ele>126.807033</ele>
        <time>2011-03-22T12:41:11Z</time>
      </trkpt>
      <trkpt lat="43.44502" lon="-0.65035">
        <ele>126.143332</ele>
        <time>2011-03-22T12:41:14Z</time>
      </trkpt>
      <trkpt lat="43.44489" lon="-0.65031">
        <ele>125.276521</ele>
        <time>2011-03-22T12:41:16Z</time>
      </trkpt>
      <trkpt lat="43.44469" lon="-0.65027">
        <ele>124.537427</ele>
        <time>2011-03-22T12:41:19Z</time>
      </trkpt>
      <trkpt lat="43.44449" lon="-0.65024">
        <ele>124.090422</ele>
        <time>2011-03-22T12:41:22Z</time>
      </trkpt>
      <trkpt lat="43.44429" lon="-0.65023">
        <ele>123.708859</ele>
        <time>2011-03-22T12:41:25Z</time>
      </trkpt>
      <trkpt lat="43.44409" lon="-0.65023">
        <ele>123.272913</ele>
        <time>2011-03-22T12:41:28Z</time>
      </trkpt>
      <trkpt lat="43.44389" lon="-0.65023">
        <ele>122.797791</ele>
        <time>2011-03-22T12:41:31Z</time>
      </trkpt>
      <trkpt lat="43.4437" lon="-0.65021">
        <ele>122.426509</ele>
        <time>2011-03-22T12:41:34Z</time>
      </trkpt>
      <trkpt lat="43.44351" lon="-0.65019">
        <ele>122.282648</ele>
        <time>2011-03-22T12:41:37Z</time>
      </trkpt>
      <trkpt lat="43.44333" lon="-0.65018">
        <ele>122.280213</ele>
        <time>2011-03-22T12:41:40Z</time>
      </trkpt>
      <trkpt lat="43.44321" lon="-0.65016">
        <ele>122.31933</ele>
        <time>2011-03-22T12:41:42Z</time>
      </trkpt>
      <trkpt lat="43.44303" lon="-0.65013">
        <ele>122.349398</ele>
        <time>2011-03-22T12:41:45Z</time>
      </trkpt>
      <trkpt lat="43.44285" lon="-0.6501">
        <ele>122.360825</ele>
        <time>2011-03-22T12:41:48Z</time>
      </trkpt>
      <trkpt lat="43.44274" lon="-0.65008">
        <ele>122.360818</ele>
        <time>2011-03-22T12:41:50Z</time>
      </trkpt>
      <trkpt lat="43.44256" lon="-0.65004">
        <ele>122.219349</ele>
        <time>2011-03-22T12:41:53Z</time>
      </trkpt>
      <trkpt lat="43.44245" lon="-0.65003">
        <ele>121.856953</ele>
        <time>2011-03-22T12:41:55Z</time>
      </trkpt>
      <trkpt lat="43.44233" lon="-0.65001">
        <ele>121.348363</ele>
        <time>2011-03-22T12:41:57Z</time>
      </trkpt>
      <trkpt lat="43.44217" lon="-0.65">
        <ele>120.813142</ele>
        <time>2011-03-22T12:42:00Z</time>
      </trkpt>
      <trkpt lat="43.44202" lon="-0.64998">
        <ele>120.417338</ele>
        <time>2011-03-22T12:42:03Z</time>
      </trkpt>
      <trkpt lat="43.44186" lon="-0.64997">
        <ele>120.134009</ele>
        <time>2011-03-22T12:42:06Z</time>
      </trkpt>
      <trkpt lat="43.44175" lon="-0.64996">
        <ele>119.777781</ele>
        <time>2011-03-22T12:42:08Z</time>
      </trkpt>
      <trkpt lat="43.44158" lon="-0.64995">
        <ele>119.45247</ele>
        <time>2011-03-22T12:42:11Z</time>
      </trkpt>
      <trkpt lat="43.44147" lon="-0.64995">
        <ele>119.309302</ele>
        <time>2011-03-22T12:42:13Z</time>
      </trkpt>
      <trkpt lat="43.44129" lon="-0.64994">
        <ele>119.29428</ele>
        <time>2011-03-22T12:42:16Z</time>
      </trkpt>
      <trkpt lat="43.44116" lon="-0.64993">
        <ele>119.323751</ele>
        <time>2011-03-22T12:42:18Z</time>
      </trkpt>
      <trkpt lat="43.44101" lon="-0.64993">
        <ele>119.350192</ele>
        <time>2011-03-22T12:42:20Z</time>
      </trkpt>
      <trkpt lat="43.44074" lon="-0.64993">
        <ele>119.499825</ele>
        <time>2011-03-22T12:42:23Z</time>
      </trkpt>
      <trkpt lat="43.44046" lon="-0.64994">
        <ele>119.998903</ele>
        <time>2011-03-22T12:42:26Z</time>
      </trkpt>
      <trkpt lat="43.44027" lon="-0.64994">
        <ele>120.725664</ele>
        <time>2011-03-22T12:42:28Z</time>
      </trkpt>
      <trkpt lat="43.44" lon="-0.64996">
        <ele>121.268128</ele>
        <time>2011-03-22T12:42:31Z</time>
      </trkpt>
      <trkpt lat="43.43977" lon="-0.6499">
        <ele>121.468972</ele>
        <time>2011-03-22T12:42:34Z</time>
      </trkpt>
      <trkpt lat="43.43961" lon="-0.64974">
        <ele>121.465396</ele>
        <time>2011-03-22T12:42:37Z</time>
      </trkpt>
      <trkpt lat="43.43955" lon="-0.6496">
        <ele>121.405385</ele>
        <time>2011-03-22T12:42:39Z</time>
      </trkpt>
      <trkpt lat="43.43956" lon="-0.64935">
        <ele>121.223016</ele>
        <time>2011-03-22T12:42:42Z</time>
      </trkpt>
      <trkpt lat="43.43956" lon="-0.64919">
        <ele>120.708778</ele>
        <time>2011-03-22T12:42:44Z</time>
      </trkpt>
      <trkpt lat="43.43958" lon="-0.64903">
        <ele>119.841696</ele>
        <time>2011-03-22T12:42:46Z</time>
      </trkpt>
      <trkpt lat="43.43961" lon="-0.6488">
        <ele>118.803901</ele>
        <time>2011-03-22T12:42:49Z</time>
      </trkpt>
      <trkpt lat="43.43964" lon="-0.64857">
        <ele>117.87648</ele>
        <time>2011-03-22T12:42:52Z</time>
      </trkpt>
      <trkpt lat="43.43966" lon="-0.64834">
        <ele>117.336647</ele>
        <time>2011-03-22T12:42:55Z</time>
      </trkpt>
      <trkpt lat="43.43967" lon="-0.64812">
        <ele>117.194953</ele>
        <time>2011-03-22T12:42:58Z</time>
      </trkpt>
      <trkpt lat="43.43969" lon="-0.64789">
        <ele>117.242215</ele>
        <time>2011-03-22T12:43:01Z</time>
      </trkpt>
      <trkpt lat="43.43972" lon="-0.64775">
        <ele>117.318126</ele>
        <time>2011-03-22T12:43:03Z</time>
      </trkpt>
      <trkpt lat="43.43975" lon="-0.64754">
        <ele>117.361743</ele>
        <time>2011-03-22T12:43:06Z</time>
      </trkpt>
      <trkpt lat="43.43975" lon="-0.64739">
        <ele>117.372925</ele>
        <time>2011-03-22T12:43:08Z</time>
      </trkpt>
      <trkpt lat="43.43974" lon="-0.64717">
        <ele>117.368941</ele>
        <time>2011-03-22T12:43:11Z</time>
      </trkpt>
      <trkpt lat="43.43974" lon="-0.64694">
        <ele>117.362805</ele>
        <time>2011-03-22T12:43:14Z</time>
      </trkpt>
      <trkpt lat="43.43974" lon="-0.64671">
        <ele>117.221253</ele>
        <time>2011-03-22T12:43:17Z</time>
      </trkpt>
      <trkpt lat="43.43974" lon="-0.64657">
        <ele>116.860723</ele>
        <time>2011-03-22T12:43:19Z</time>
      </trkpt>
      <trkpt lat="43.43973" lon="-0.64636">
        <ele>116.629992</ele>
        <time>2011-03-22T12:43:22Z</time>
      </trkpt>
      <trkpt lat="43.43972" lon="-0.64616">
        <ele>116.815134</ele>
        <time>2011-03-22T12:43:25Z</time>
      </trkpt>
      <trkpt lat="43.43971" lon="-0.64596">
        <ele>117.020123</ele>
        <time>2011-03-22T12:43:28Z</time>
      </trkpt>
      <trkpt lat="43.43969" lon="-0.64576">
        <ele>116.865654</ele>
        <time>2011-03-22T12:43:31Z</time>
      </trkpt>
      <trkpt lat="43.43968" lon="-0.64556">
        <ele>116.552981</ele>
        <time>2011-03-22T12:43:34Z</time>
      </trkpt>
      <trkpt lat="43.43967" lon="-0.64542">
        <ele>116.361891</ele>
        <time>2011-03-22T12:43:36Z</time>
      </trkpt>
      <trkpt lat="43.43966" lon="-0.64522">
        <ele>116.307317</ele>
        <time>2011-03-22T12:43:39Z</time>
      </trkpt>
      <trkpt lat="43.43963" lon="-0.64502">
        <ele>116.320726</ele>
        <time>2011-03-22T12:43:42Z</time>
      </trkpt>
      <trkpt lat="43.4396" lon="-0.64482">
        <ele>116.346325</ele>
        <time>2011-03-22T12:43:45Z</time>
      </trkpt>
      <trkpt lat="43.43959" lon="-0.64468">
        <ele>116.223593</ele>
        <time>2011-03-22T12:43:47Z</time>
      </trkpt>
      <trkpt lat="43.43962" lon="-0.64456">
        <ele>115.72992</ele>
        <time>2011-03-22T12:43:49Z</time>
      </trkpt>
      <trkpt lat="43.43972" lon="-0.64441">
        <ele>114.999552</ele>
        <time>2011-03-22T12:43:52Z</time>
      </trkpt>
      <trkpt lat="43.4398" lon="-0.64425">
        <ele>114.314689</ele>
        <time>2011-03-22T12:43:55Z</time>
      </trkpt>
      <trkpt lat="43.43983" lon="-0.64408">
        <ele>113.751885</ele>
        <time>2011-03-22T12:43:58Z</time>
      </trkpt>
      <trkpt lat="43.43985" lon="-0.6439">
        <ele>113.385677</ele>
        <time>2011-03-22T12:44:01Z</time>
      </trkpt>
      <trkpt lat="43.43987" lon="-0.64372">
        <ele>113.270657</ele>
        <time>2011-03-22T12:44:04Z</time>
      </trkpt>
      <trkpt lat="43.43989" lon="-0.64353">
        <ele>113.426694</ele>
        <time>2011-03-22T12:44:07Z</time>
      </trkpt>
      <trkpt lat="43.43992" lon="-0.64333">
        <ele>113.832818</ele>
        <time>2011-03-22T12:44:10Z</time>
      </trkpt>
      <trkpt lat="43.43998" lon="-0.64324">
        <ele>114.231966</ele>
        <time>2011-03-22T12:44:12Z</time>
      </trkpt>
      <trkpt lat="43.44012" lon="-0.64318">
        <ele>114.554615</ele>
        <time>2011-03-22T12:44:15Z</time>
      </trkpt>
      <trkpt lat="43.44026" lon="-0.64316">
        <ele>115.077714</ele>
        <time>2011-03-22T12:44:18Z</time>
      </trkpt>
      <trkpt lat="43.44036" lon="-0.64315">
        <ele>115.911518</ele>
        <time>2011-03-22T12:44:20Z</time>
      </trkpt>
      <trkpt lat="43.4405" lon="-0.64313">
        <ele>116.783671</ele>
        <time>2011-03-22T12:44:23Z</time>
      </trkpt>
      <trkpt lat="43.44062" lon="-0.64307">
        <ele>117.478324</ele>
        <time>2011-03-22T12:44:26Z</time>
      </trkpt>
      <trkpt lat="43.44072" lon="-0.64298">
        <ele>118.008224</ele>
        <time>2011-03-22T12:44:29Z</time>
      </trkpt>
      <trkpt lat="43.44079" lon="-0.64285">
        <ele>118.485161</ele>
        <time>2011-03-22T12:44:32Z</time>
      </trkpt>
      <trkpt lat="43.44081" lon="-0.6427">
        <ele>118.948807</ele>
        <time>2011-03-22T12:44:35Z</time>
      </trkpt>
      <trkpt lat="43.44078" lon="-0.64254">
        <ele>119.29976</ele>
        <time>2011-03-22T12:44:38Z</time>
      </trkpt>
      <trkpt lat="43.44074" lon="-0.64243">
        <ele>119.569796</ele>
        <time>2011-03-22T12:44:40Z</time>
      </trkpt>
      <trkpt lat="43.44072" lon="-0.64222">
        <ele>120.205248</ele>
        <time>2011-03-22T12:44:43Z</time>
      </trkpt>
      <trkpt lat="43.44072" lon="-0.6421">
        <ele>121.256334</ele>
        <time>2011-03-22T12:44:45Z</time>
      </trkpt>
      <trkpt lat="43.44072" lon="-0.64192">
        <ele>122.14205</ele>
        <time>2011-03-22T12:44:48Z</time>
      </trkpt>
      <trkpt lat="43.4407" lon="-0.64176">
        <ele>122.508632</ele>
        <time>2011-03-22T12:44:51Z</time>
      </trkpt>
      <trkpt lat="43.44066" lon="-0.64162">
        <ele>122.531958</ele>
        <time>2011-03-22T12:44:54Z</time>
      </trkpt>
      <trkpt lat="43.44062" lon="-0.64149">
        <ele>122.445072</ele>
        <time>2011-03-22T12:44:57Z</time>
      </trkpt>
      <trkpt lat="43.44053" lon="-0.64139">
        <ele>122.373098</ele>
        <time>2011-03-22T12:45:00Z</time>
      </trkpt>
      <trkpt lat="43.44039" lon="-0.64124">
        <ele>122.343732</ele>
        <time>2011-03-22T12:45:03Z</time>
      </trkpt>
      <trkpt lat="43.44026" lon="-0.64104">
        <ele>122.342157</ele>
        <time>2011-03-22T12:45:06Z</time>
      </trkpt>
      <trkpt lat="43.44021" lon="-0.64078">
        <ele>122.211187</ele>
        <time>2011-03-22T12:45:09Z</time>
      </trkpt>
      <trkpt lat="43.44019" lon="-0.64054">
        <ele>121.857201</ele>
        <time>2011-03-22T12:45:12Z</time>
      </trkpt>
      <trkpt lat="43.44019" lon="-0.64038">
        <ele>121.49016</ele>
        <time>2011-03-22T12:45:14Z</time>
      </trkpt>
      <trkpt lat="43.44018" lon="-0.64024">
        <ele>121.315005</ele>
        <time>2011-03-22T12:45:16Z</time>
      </trkpt>
      <trkpt lat="43.44018" lon="-0.64006">
        <ele>121.011558</ele>
        <time>2011-03-22T12:45:19Z</time>
      </trkpt>
      <trkpt lat="43.44017" lon="-0.63988">
        <ele>120.321381</ele>
        <time>2011-03-22T12:45:22Z</time>
      </trkpt>
      <trkpt lat="43.44016" lon="-0.6397">
        <ele>119.612517</ele>
        <time>2011-03-22T12:45:25Z</time>
      </trkpt>
      <trkpt lat="43.44014" lon="-0.63957">
        <ele>119.276093</ele>
        <time>2011-03-22T12:45:27Z</time>
      </trkpt>
      <trkpt lat="43.44011" lon="-0.63939">
        <ele>119.086936</ele>
        <time>2011-03-22T12:45:30Z</time>
      </trkpt>
      <trkpt lat="43.44011" lon="-0.6392">
        <ele>118.784652</ele>
        <time>2011-03-22T12:45:33Z</time>
      </trkpt>
      <trkpt lat="43.44013" lon="-0.63902">
        <ele>118.473106</ele>
        <time>2011-03-22T12:45:36Z</time>
      </trkpt>
      <trkpt lat="43.44016" lon="-0.63884">
        <ele>118.32494</ele>
        <time>2011-03-22T12:45:39Z</time>
      </trkpt>
      <trkpt lat="43.44019" lon="-0.63866">
        <ele>118.302274</ele>
        <time>2011-03-22T12:45:42Z</time>
      </trkpt>
      <trkpt lat="43.44021" lon="-0.63849">
        <ele>118.189294</ele>
        <time>2011-03-22T12:45:45Z</time>
      </trkpt>
      <trkpt lat="43.44021" lon="-0.63832">
        <ele>117.716698</ele>
        <time>2011-03-22T12:45:48Z</time>
      </trkpt>
      <trkpt lat="43.4402" lon="-0.63813">
        <ele>116.861258</ele>
        <time>2011-03-22T12:45:51Z</time>
      </trkpt>
      <trkpt lat="43.44017" lon="-0.63795">
        <ele>115.958559</ele>
        <time>2011-03-22T12:45:54Z</time>
      </trkpt>
      <trkpt lat="43.44013" lon="-0.63777">
        <ele>115.385351</ele>
        <time>2011-03-22T12:45:57Z</time>
      </trkpt>
      <trkpt lat="43.44011" lon="-0.63758">
        <ele>115.21151</ele>
        <time>2011-03-22T12:46:00Z</time>
      </trkpt>
      <trkpt lat="43.44011" lon="-0.63739">
        <ele>115.244093</ele>
        <time>2011-03-22T12:46:03Z</time>
      </trkpt>
      <trkpt lat="43.44014" lon="-0.6372">
        <ele>115.318119</ele>
        <time>2011-03-22T12:46:06Z</time>
      </trkpt>
      <trkpt lat="43.44016" lon="-0.63708">
        <ele>115.22636</ele>
        <time>2011-03-22T12:46:08Z</time>
      </trkpt>
      <trkpt lat="43.4402" lon="-0.6369">
        <ele>114.880343</ele>
        <time>2011-03-22T12:46:11Z</time>
      </trkpt>
      <trkpt lat="43.44025" lon="-0.63673">
        <ele>114.508138</ele>
        <time>2011-03-22T12:46:14Z</time>
      </trkpt>
      <trkpt lat="43.44033" lon="-0.6366">
        <ele>114.326831</ele>
        <time>2011-03-22T12:46:17Z</time>
      </trkpt>
      <trkpt lat="43.44044" lon="-0.63655">
        <ele>114.296553</ele>
        <time>2011-03-22T12:46:20Z</time>
      </trkpt>
      <trkpt lat="43.44056" lon="-0.63655">
        <ele>114.3255</ele>
        <time>2011-03-22T12:46:23Z</time>
      </trkpt>
      <trkpt lat="43.44068" lon="-0.63655">
        <ele>114.355988</ele>
        <time>2011-03-22T12:46:26Z</time>
      </trkpt>
      <trkpt lat="43.44077" lon="-0.63648">
        <ele>114.370734</ele>
        <time>2011-03-22T12:46:29Z</time>
      </trkpt>
      <trkpt lat="43.44082" lon="-0.63636">
        <ele>114.373169</ele>
        <time>2011-03-22T12:46:32Z</time>
      </trkpt>
      <trkpt lat="43.44084" lon="-0.63623">
        <ele>114.509004</ele>
        <time>2011-03-22T12:46:35Z</time>
      </trkpt>
      <trkpt lat="43.44085" lon="-0.63609">
        <ele>115.004648</ele>
        <time>2011-03-22T12:46:38Z</time>
      </trkpt>
      <trkpt lat="43.44086" lon="-0.63595">
        <ele>115.73285</ele>
        <time>2011-03-22T12:46:41Z</time>
      </trkpt>
      <trkpt lat="43.44087" lon="-0.63581">
        <ele>116.277426</ele>
        <time>2011-03-22T12:46:44Z</time>
      </trkpt>
      <trkpt lat="43.44087" lon="-0.63567">
        <ele>116.617654</ele>
        <time>2011-03-22T12:46:47Z</time>
      </trkpt>
      <trkpt lat="43.44087" lon="-0.63553">
        <ele>116.974347</ele>
        <time>2011-03-22T12:46:50Z</time>
      </trkpt>
      <trkpt lat="43.44087" lon="-0.63539">
        <ele>117.422013</ele>
        <time>2011-03-22T12:46:53Z</time>
      </trkpt>
      <trkpt lat="43.44087" lon="-0.63524">
        <ele>117.913028</ele>
        <time>2011-03-22T12:46:56Z</time>
      </trkpt>
      <trkpt lat="43.44088" lon="-0.63509">
        <ele>118.29291</ele>
        <time>2011-03-22T12:46:59Z</time>
      </trkpt>
      <trkpt lat="43.44089" lon="-0.63494">
        <ele>118.438695</ele>
        <time>2011-03-22T12:47:02Z</time>
      </trkpt>
      <trkpt lat="43.4409" lon="-0.63478">
        <ele>118.578287</ele>
        <time>2011-03-22T12:47:05Z</time>
      </trkpt>
      <trkpt lat="43.44092" lon="-0.63463">
        <ele>118.897732</ele>
        <time>2011-03-22T12:47:08Z</time>
      </trkpt>
      <trkpt lat="43.44097" lon="-0.63448">
        <ele>119.236394</ele>
        <time>2011-03-22T12:47:11Z</time>
      </trkpt>
      <trkpt lat="43.44107" lon="-0.63439">
        <ele>119.400102</ele>
        <time>2011-03-22T12:47:14Z</time>
      </trkpt>
      <trkpt lat="43.4412" lon="-0.63433">
        <ele>119.426768</ele>
        <time>2011-03-22T12:47:17Z</time>
      </trkpt>
      <trkpt lat="43.44133" lon="-0.6343">
        <ele>119.538346</ele>
        <time>2011-03-22T12:47:20Z</time>
      </trkpt>
      <trkpt lat="43.44142" lon="-0.63428">
        <ele>119.870588</ele>
        <time>2011-03-22T12:47:22Z</time>
      </trkpt>
      <trkpt lat="43.44157" lon="-0.63425">
        <ele>120.226826</ele>
        <time>2011-03-22T12:47:25Z</time>
      </trkpt>
      <trkpt lat="43.44171" lon="-0.63421">
        <ele>120.538308</ele>
        <time>2011-03-22T12:47:28Z</time>
      </trkpt>
      <trkpt lat="43.44185" lon="-0.63415">
        <ele>120.927081</ele>
        <time>2011-03-22T12:47:31Z</time>
      </trkpt>
      <trkpt lat="43.44198" lon="-0.63408">
        <ele>121.54524</ele>
        <time>2011-03-22T12:47:34Z</time>
      </trkpt>
      <trkpt lat="43.4421" lon="-0.63416">
        <ele>122.549491</ele>
        <time>2011-03-22T12:47:37Z</time>
      </trkpt>
      <trkpt lat="43.44222" lon="-0.63421">
        <ele>123.66091</ele>
        <time>2011-03-22T12:47:40Z</time>
      </trkpt>
      <trkpt lat="43.44236" lon="-0.63423">
        <ele>124.348744</ele>
        <time>2011-03-22T12:47:43Z</time>
      </trkpt>
      <trkpt lat="43.44249" lon="-0.63427">
        <ele>124.687516</ele>
        <time>2011-03-22T12:47:46Z</time>
      </trkpt>
      <trkpt lat="43.44263" lon="-0.63431">
        <ele>125.140468</ele>
        <time>2011-03-22T12:47:49Z</time>
      </trkpt>
      <trkpt lat="43.44277" lon="-0.63434">
        <ele>125.778732</ele>
        <time>2011-03-22T12:47:52Z</time>
      </trkpt>
      <trkpt lat="43.4429" lon="-0.63435">
        <ele>126.267831</ele>
        <time>2011-03-22T12:47:55Z</time>
      </trkpt>
      <trkpt lat="43.44303" lon="-0.63436">
        <ele>126.453793</ele>
        <time>2011-03-22T12:47:58Z</time>
      </trkpt>
      <trkpt lat="43.44317" lon="-0.63435">
        <ele>126.592476</ele>
        <time>2011-03-22T12:48:01Z</time>
      </trkpt>
      <trkpt lat="43.44325" lon="-0.63433">
        <ele>126.899776</ele>
        <time>2011-03-22T12:48:03Z</time>
      </trkpt>
      <trkpt lat="43.44337" lon="-0.63423">
        <ele>127.229546</ele>
        <time>2011-03-22T12:48:06Z</time>
      </trkpt>
      <trkpt lat="43.44342" lon="-0.63411">
        <ele>127.389999</ele>
        <time>2011-03-22T12:48:08Z</time>
      </trkpt>
      <trkpt lat="43.44345" lon="-0.63394">
        <ele>127.416725</ele>
        <time>2011-03-22T12:48:11Z</time>
      </trkpt>
      <trkpt lat="43.44347" lon="-0.63377">
        <ele>127.529314</ele>
        <time>2011-03-22T12:48:14Z</time>
      </trkpt>
      <trkpt lat="43.44348" lon="-0.63361">
        <ele>127.862385</ele>
        <time>2011-03-22T12:48:17Z</time>
      </trkpt>
      <trkpt lat="43.44348" lon="-0.63345">
        <ele>128.218978</ele>
        <time>2011-03-22T12:48:20Z</time>
      </trkpt>
      <trkpt lat="43.44347" lon="-0.63328">
        <ele>128.530439</ele>
        <time>2011-03-22T12:48:23Z</time>
      </trkpt>
      <trkpt lat="43.44346" lon="-0.63311">
        <ele>128.91906</ele>
        <time>2011-03-22T12:48:26Z</time>
      </trkpt>
      <trkpt lat="43.44344" lon="-0.63294">
        <ele>129.260736</ele>
        <time>2011-03-22T12:48:29Z</time>
      </trkpt>
      <trkpt lat="43.44343" lon="-0.63277">
        <ele>129.406938</ele>
        <time>2011-03-22T12:48:32Z</time>
      </trkpt>
      <trkpt lat="43.44343" lon="-0.63259">
        <ele>129.281387</ele>
        <time>2011-03-22T12:48:35Z</time>
      </trkpt>
      <trkpt lat="43.44342" lon="-0.63242">
        <ele>128.889398</ele>
        <time>2011-03-22T12:48:38Z</time>
      </trkpt>
      <trkpt lat="43.44342" lon="-0.63225">
        <ele>128.354115</ele>
        <time>2011-03-22T12:48:41Z</time>
      </trkpt>
      <trkpt lat="43.44342" lon="-0.63207">
        <ele>127.807363</ele>
        <time>2011-03-22T12:48:44Z</time>
      </trkpt>
      <trkpt lat="43.44341" lon="-0.63189">
        <ele>127.410598</ele>
        <time>2011-03-22T12:48:47Z</time>
      </trkpt>
      <trkpt lat="43.44339" lon="-0.63171">
        <ele>127.268026</ele>
        <time>2011-03-22T12:48:50Z</time>
      </trkpt>
      <trkpt lat="43.4434" lon="-0.63152">
        <ele>127.27388</ele>
        <time>2011-03-22T12:48:53Z</time>
      </trkpt>
      <trkpt lat="43.44344" lon="-0.63135">
        <ele>127.318936</ele>
        <time>2011-03-22T12:48:56Z</time>
      </trkpt>
      <trkpt lat="43.44352" lon="-0.6312">
        <ele>127.351166</ele>
        <time>2011-03-22T12:48:59Z</time>
      </trkpt>
      <trkpt lat="43.44362" lon="-0.63106">
        <ele>127.362564</ele>
        <time>2011-03-22T12:49:02Z</time>
      </trkpt>
      <trkpt lat="43.44369" lon="-0.63097">
        <ele>127.361951</ele>
        <time>2011-03-22T12:49:04Z</time>
      </trkpt>
      <trkpt lat="43.44379" lon="-0.63082">
        <ele>127.358252</ele>
        <time>2011-03-22T12:49:07Z</time>
      </trkpt>
      <trkpt lat="43.44386" lon="-0.63072">
        <ele>127.355669</ele>
        <time>2011-03-22T12:49:09Z</time>
      </trkpt>
      <trkpt lat="43.44396" lon="-0.63057">
        <ele>127.354849</ele>
        <time>2011-03-22T12:49:12Z</time>
      </trkpt>
      <trkpt lat="43.44405" lon="-0.63039">
        <ele>127.493249</ele>
        <time>2011-03-22T12:49:15Z</time>
      </trkpt>
      <trkpt lat="43.4441" lon="-0.63027">
        <ele>127.853618</ele>
        <time>2011-03-22T12:49:17Z</time>
      </trkpt>
      <trkpt lat="43.44408" lon="-0.63013">
        <ele>128.223391</ele>
        <time>2011-03-22T12:49:19Z</time>
      </trkpt>
      <trkpt lat="43.44407" lon="-0.62994">
        <ele>128.536995</ele>
        <time>2011-03-22T12:49:22Z</time>
      </trkpt>
      <trkpt lat="43.44407" lon="-0.62981">
        <ele>128.92349</ele>
        <time>2011-03-22T12:49:24Z</time>
      </trkpt>
      <trkpt lat="43.44407" lon="-0.62962">
        <ele>129.262983</ele>
        <time>2011-03-22T12:49:27Z</time>
      </trkpt>
      <trkpt lat="43.44407" lon="-0.62944">
        <ele>129.408177</ele>
        <time>2011-03-22T12:49:30Z</time>
      </trkpt>
      <trkpt lat="43.44407" lon="-0.62926">
        <ele>129.420656</ele>
        <time>2011-03-22T12:49:33Z</time>
      </trkpt>
      <trkpt lat="43.44406" lon="-0.62908">
        <ele>129.526878</ele>
        <time>2011-03-22T12:49:36Z</time>
      </trkpt>
      <trkpt lat="43.44404" lon="-0.62889">
        <ele>129.859217</ele>
        <time>2011-03-22T12:49:39Z</time>
      </trkpt>
      <trkpt lat="43.44396" lon="-0.62875">
        <ele>130.355249</ele>
        <time>2011-03-22T12:49:42Z</time>
      </trkpt>
      <trkpt lat="43.44386" lon="-0.62874">
        <ele>131.027756</ele>
        <time>2011-03-22T12:49:44Z</time>
      </trkpt>
      <trkpt lat="43.44371" lon="-0.6288">
        <ele>132.06268</ele>
        <time>2011-03-22T12:49:47Z</time>
      </trkpt>
      <trkpt lat="43.44357" lon="-0.62885">
        <ele>133.437651</ele>
        <time>2011-03-22T12:49:50Z</time>
      </trkpt>
      <trkpt lat="43.44349" lon="-0.62888">
        <ele>134.847226</ele>
        <time>2011-03-22T12:49:52Z</time>
      </trkpt>
      <trkpt lat="43.44336" lon="-0.62892">
        <ele>135.909568</ele>
        <time>2011-03-22T12:49:55Z</time>
      </trkpt>
      <trkpt lat="43.44325" lon="-0.62895">
        <ele>136.721294</ele>
        <time>2011-03-22T12:49:58Z</time>
      </trkpt>
      <trkpt lat="43.44316" lon="-0.62896">
        <ele>137.540924</ele>
        <time>2011-03-22T12:50:01Z</time>
      </trkpt>
      <trkpt lat="43.44317" lon="-0.62882">
        <ele>138.202319</ele>
        <time>2011-03-22T12:50:06Z</time>
      </trkpt>
      <trkpt lat="43.44327" lon="-0.62875">
        <ele>138.466158</ele>
        <time>2011-03-22T12:50:09Z</time>
      </trkpt>
      <trkpt lat="43.44338" lon="-0.62869">
        <ele>138.476109</ele>
        <time>2011-03-22T12:50:12Z</time>
      </trkpt>
      <trkpt lat="43.4435" lon="-0.62864">
        <ele>138.408418</ele>
        <time>2011-03-22T12:50:15Z</time>
      </trkpt>
      <trkpt lat="43.44362" lon="-0.62858">
        <ele>138.354707</ele>
        <time>2011-03-22T12:50:18Z</time>
      </trkpt>
      <trkpt lat="43.44373" lon="-0.62851">
        <ele>138.333625</ele>
        <time>2011-03-22T12:50:21Z</time>
      </trkpt>
      <trkpt lat="43.44384" lon="-0.62843">
        <ele>138.194921</ele>
        <time>2011-03-22T12:50:24Z</time>
      </trkpt>
      <trkpt lat="43.44394" lon="-0.62834">
        <ele>137.840684</ele>
        <time>2011-03-22T12:50:27Z</time>
      </trkpt>
      <trkpt lat="43.44404" lon="-0.62822">
        <ele>137.475704</ele>
        <time>2011-03-22T12:50:30Z</time>
      </trkpt>
      <trkpt lat="43.44412" lon="-0.62808">
        <ele>137.302233</ele>
        <time>2011-03-22T12:50:33Z</time>
      </trkpt>
      <trkpt lat="43.44421" lon="-0.62795">
        <ele>137.275824</ele>
        <time>2011-03-22T12:50:36Z</time>
      </trkpt>
      <trkpt lat="43.44428" lon="-0.6278">
        <ele>137.305403</ele>
        <time>2011-03-22T12:50:39Z</time>
      </trkpt>
      <trkpt lat="43.44434" lon="-0.62763">
        <ele>137.473324</ele>
        <time>2011-03-22T12:50:42Z</time>
      </trkpt>
      <trkpt lat="43.44441" lon="-0.62748">
        <ele>137.847146</ele>
        <time>2011-03-22T12:50:45Z</time>
      </trkpt>
      <trkpt lat="43.44449" lon="-0.62733">
        <ele>138.356809</ele>
        <time>2011-03-22T12:50:48Z</time>
      </trkpt>
      <trkpt lat="43.44459" lon="-0.62719">
        <ele>138.889603</ele>
        <time>2011-03-22T12:50:51Z</time>
      </trkpt>
      <trkpt lat="43.44466" lon="-0.6271">
        <ele>139.421431</ele>
        <time>2011-03-22T12:50:53Z</time>
      </trkpt>
      <trkpt lat="43.44473" lon="-0.62701">
        <ele>139.925575</ele>
        <time>2011-03-22T12:50:55Z</time>
      </trkpt>
      <trkpt lat="43.44485" lon="-0.62689">
        <ele>140.291369</ele>
        <time>2011-03-22T12:50:58Z</time>
      </trkpt>
      <trkpt lat="43.44497" lon="-0.6268">
        <ele>140.422834</ele>
        <time>2011-03-22T12:51:01Z</time>
      </trkpt>
      <trkpt lat="43.44509" lon="-0.62671">
        <ele>140.417504</ele>
        <time>2011-03-22T12:51:04Z</time>
      </trkpt>
      <trkpt lat="43.44522" lon="-0.62661">
        <ele>140.514254</ele>
        <time>2011-03-22T12:51:07Z</time>
      </trkpt>
      <trkpt lat="43.44534" lon="-0.62651">
        <ele>140.844556</ele>
        <time>2011-03-22T12:51:10Z</time>
      </trkpt>
      <trkpt lat="43.44543" lon="-0.62645">
        <ele>141.203588</ele>
        <time>2011-03-22T12:51:12Z</time>
      </trkpt>
      <trkpt lat="43.44555" lon="-0.62635">
        <ele>141.379504</ele>
        <time>2011-03-22T12:51:15Z</time>
      </trkpt>
      <trkpt lat="43.44562" lon="-0.62627">
        <ele>141.409535</ele>
        <time>2011-03-22T12:51:17Z</time>
      </trkpt>
      <trkpt lat="43.44572" lon="-0.62616">
        <ele>141.382037</ele>
        <time>2011-03-22T12:51:20Z</time>
      </trkpt>
      <trkpt lat="43.44579" lon="-0.62602">
        <ele>141.491019</ele>
        <time>2011-03-22T12:51:23Z</time>
      </trkpt>
      <trkpt lat="43.44584" lon="-0.62585">
        <ele>141.836828</ele>
        <time>2011-03-22T12:51:26Z</time>
      </trkpt>
      <trkpt lat="43.44589" lon="-0.6257">
        <ele>142.204028</ele>
        <time>2011-03-22T12:51:29Z</time>
      </trkpt>
      <trkpt lat="43.44596" lon="-0.62556">
        <ele>142.381662</ele>
        <time>2011-03-22T12:51:32Z</time>
      </trkpt>
      <trkpt lat="43.44602" lon="-0.62542">
        <ele>142.410656</ele>
        <time>2011-03-22T12:51:35Z</time>
      </trkpt>
      <trkpt lat="43.44606" lon="-0.62527">
        <ele>142.381887</ele>
        <time>2011-03-22T12:51:38Z</time>
      </trkpt>
      <trkpt lat="43.44609" lon="-0.62513">
        <ele>142.352043</ele>
        <time>2011-03-22T12:51:41Z</time>
      </trkpt>
      <trkpt lat="43.44611" lon="-0.62498">
        <ele>142.33785</ele>
        <time>2011-03-22T12:51:44Z</time>
      </trkpt>
      <trkpt lat="43.44613" lon="-0.62484">
        <ele>142.335702</ele>
        <time>2011-03-22T12:51:47Z</time>
      </trkpt>
      <trkpt lat="43.44617" lon="-0.62471">
        <ele>142.33814</ele>
        <time>2011-03-22T12:51:50Z</time>
      </trkpt>
      <trkpt lat="43.44624" lon="-0.62461">
        <ele>142.340602</ele>
        <time>2011-03-22T12:51:53Z</time>
      </trkpt>
      <trkpt lat="43.44632" lon="-0.62453">
        <ele>142.341775</ele>
        <time>2011-03-22T12:51:56Z</time>
      </trkpt>
      <trkpt lat="43.44638" lon="-0.62443">
        <ele>142.341996</ele>
        <time>2011-03-22T12:51:59Z</time>
      </trkpt>
      <trkpt lat="43.4464" lon="-0.62429">
        <ele>142.341891</ele>
        <time>2011-03-22T12:52:02Z</time>
      </trkpt>
      <trkpt lat="43.44642" lon="-0.62414">
        <ele>142.341824</ele>
        <time>2011-03-22T12:52:05Z</time>
      </trkpt>
      <trkpt lat="43.44643" lon="-0.62398">
        <ele>142.341882</ele>
        <time>2011-03-22T12:52:08Z</time>
      </trkpt>
      <trkpt lat="43.44645" lon="-0.62381">
        <ele>142.341993</ele>
        <time>2011-03-22T12:52:11Z</time>
      </trkpt>
      <trkpt lat="43.44647" lon="-0.62363">
        <ele>142.342068</ele>
        <time>2011-03-22T12:52:14Z</time>
      </trkpt>
      <trkpt lat="43.44648" lon="-0.62346">
        <ele>142.342085</ele>
        <time>2011-03-22T12:52:17Z</time>
      </trkpt>
      <trkpt lat="43.4465" lon="-0.62328">
        <ele>142.065723</ele>
        <time>2011-03-22T12:52:20Z</time>
      </trkpt>
      <trkpt lat="43.44652" lon="-0.6231">
        <ele>141.207785</ele>
        <time>2011-03-22T12:52:23Z</time>
      </trkpt>
      <trkpt lat="43.44653" lon="-0.62292">
        <ele>139.832741</ele>
        <time>2011-03-22T12:52:26Z</time>
      </trkpt>
      <trkpt lat="43.4465" lon="-0.62275">
        <ele>138.393083</ele>
        <time>2011-03-22T12:52:29Z</time>
      </trkpt>
      <trkpt lat="43.44645" lon="-0.62263">
        <ele>137.287784</ele>
        <time>2011-03-22T12:52:31Z</time>
      </trkpt>
      <trkpt lat="43.44634" lon="-0.62251">
        <ele>136.610874</ele>
        <time>2011-03-22T12:52:34Z</time>
      </trkpt>
      <trkpt lat="43.44621" lon="-0.62239">
        <ele>136.140459</ele>
        <time>2011-03-22T12:52:37Z</time>
      </trkpt>
      <trkpt lat="43.4461" lon="-0.62228">
        <ele>135.723627</ele>
        <time>2011-03-22T12:52:40Z</time>
      </trkpt>
      <trkpt lat="43.44595" lon="-0.6222">
        <ele>135.267876</ele>
        <time>2011-03-22T12:52:43Z</time>
      </trkpt>
      <trkpt lat="43.44579" lon="-0.62212">
        <ele>134.787944</ele>
        <time>2011-03-22T12:52:46Z</time>
      </trkpt>
      <trkpt lat="43.44567" lon="-0.62207">
        <ele>134.418724</ele>
        <time>2011-03-22T12:52:48Z</time>
      </trkpt>
      <trkpt lat="43.44553" lon="-0.62202">
        <ele>134.139641</ele>
        <time>2011-03-22T12:52:50Z</time>
      </trkpt>
      <trkpt lat="43.4453" lon="-0.62196">
        <ele>133.502621</ele>
        <time>2011-03-22T12:52:53Z</time>
      </trkpt>
      <trkpt lat="43.44515" lon="-0.62192">
        <ele>132.314771</ele>
        <time>2011-03-22T12:52:55Z</time>
      </trkpt>
      <trkpt lat="43.44493" lon="-0.62189">
        <ele>131.070685</ele>
        <time>2011-03-22T12:52:58Z</time>
      </trkpt>
      <trkpt lat="43.44478" lon="-0.62188">
        <ele>130.335416</ele>
        <time>2011-03-22T12:53:00Z</time>
      </trkpt>
      <trkpt lat="43.44457" lon="-0.62181">
        <ele>130.136954</ele>
        <time>2011-03-22T12:53:03Z</time>
      </trkpt>
      <trkpt lat="43.44443" lon="-0.62174">
        <ele>130.197189</ele>
        <time>2011-03-22T12:53:05Z</time>
      </trkpt>
      <trkpt lat="43.44423" lon="-0.62163">
        <ele>130.299023</ele>
        <time>2011-03-22T12:53:08Z</time>
      </trkpt>
      <trkpt lat="43.4441" lon="-0.62155">
        <ele>130.358437</ele>
        <time>2011-03-22T12:53:10Z</time>
      </trkpt>
      <trkpt lat="43.44391" lon="-0.62145">
        <ele>130.512228</ele>
        <time>2011-03-22T12:53:13Z</time>
      </trkpt>
      <trkpt lat="43.44379" lon="-0.62138">
        <ele>130.866842</ele>
        <time>2011-03-22T12:53:15Z</time>
      </trkpt>
      <trkpt lat="43.44362" lon="-0.62127">
        <ele>131.22781</ele>
        <time>2011-03-22T12:53:18Z</time>
      </trkpt>
      <trkpt lat="43.44346" lon="-0.62117">
        <ele>131.398208</ele>
        <time>2011-03-22T12:53:21Z</time>
      </trkpt>
      <trkpt lat="43.44335" lon="-0.62111">
        <ele>131.423491</ele>
        <time>2011-03-22T12:53:23Z</time>
      </trkpt>
      <trkpt lat="43.4432" lon="-0.62101">
        <ele>131.255764</ele>
        <time>2011-03-22T12:53:26Z</time>
      </trkpt>
      <trkpt lat="43.4431" lon="-0.62095">
        <ele>130.728253</ele>
        <time>2011-03-22T12:53:28Z</time>
      </trkpt>
      <trkpt lat="43.44295" lon="-0.62086">
        <ele>129.98519</ele>
        <time>2011-03-22T12:53:31Z</time>
      </trkpt>
      <trkpt lat="43.44281" lon="-0.62076">
        <ele>129.438539</ele>
        <time>2011-03-22T12:53:34Z</time>
      </trkpt>
      <trkpt lat="43.44268" lon="-0.62066">
        <ele>129.101</ele>
        <time>2011-03-22T12:53:37Z</time>
      </trkpt>
      <trkpt lat="43.44254" lon="-0.62057">
        <ele>128.608757</ele>
        <time>2011-03-22T12:53:40Z</time>
      </trkpt>
      <trkpt lat="43.44245" lon="-0.62051">
        <ele>127.940601</ele>
        <time>2011-03-22T12:53:42Z</time>
      </trkpt>
      <trkpt lat="43.44232" lon="-0.62041">
        <ele>127.302051</ele>
        <time>2011-03-22T12:53:45Z</time>
      </trkpt>
      <trkpt lat="43.44221" lon="-0.62032">
        <ele>126.756256</ele>
        <time>2011-03-22T12:53:48Z</time>
      </trkpt>
      <trkpt lat="43.44221" lon="-0.62032">
        <ele>126.389584</ele>
        <time>2011-03-22T12:53:53Z</time>
      </trkpt>
      <trkpt lat="43.44221" lon="-0.61988">
        <ele>126.269364</ele>
        <time>2011-03-22T12:54:08Z</time>
      </trkpt>
      <trkpt lat="43.44221" lon="-0.61988">
        <ele>126.28343</ele>
        <time>2011-03-22T12:54:11Z</time>
      </trkpt>
      <trkpt lat="43.44221" lon="-0.61988">
        <ele>126.328251</ele>
        <time>2011-03-22T12:54:38Z</time>
      </trkpt>
      <trkpt lat="43.442" lon="-0.61958">
        <ele>126.357938</ele>
        <time>2011-03-22T12:55:13Z</time>
      </trkpt>
      <trkpt lat="43.442" lon="-0.61958">
        <ele>126.347091</ele>
        <time>2011-03-22T12:55:16Z</time>
      </trkpt>
      <trkpt lat="43.44182" lon="-0.61929">
        <ele>126.292691</ele>
        <time>2011-03-22T12:55:23Z</time>
      </trkpt>
      <trkpt lat="43.44162" lon="-0.61899">
        <ele>126.234477</ele>
        <time>2011-03-22T12:55:39Z</time>
      </trkpt>
      <trkpt lat="43.44162" lon="-0.61899">
        <ele>126.206203</ele>
        <time>2011-03-22T12:55:57Z</time>
      </trkpt>
      <trkpt lat="43.44162" lon="-0.61899">
        <ele>126.201527</ele>
        <time>2011-03-22T12:56:10Z</time>
      </trkpt>
      <trkpt lat="43.44141" lon="-0.61868">
        <ele>126.641022</ele>
        <time>2011-03-22T12:58:25Z</time>
      </trkpt>
      <trkpt lat="43.44135" lon="-0.61854">
        <ele>127.916815</ele>
        <time>2011-03-22T12:58:32Z</time>
      </trkpt>
      <trkpt lat="43.44125" lon="-0.61839">
        <ele>129.718253</ele>
        <time>2011-03-22T12:58:39Z</time>
      </trkpt>
      <trkpt lat="43.44118" lon="-0.61829">
        <ele>131.912242</ele>
        <time>2011-03-22T12:58:46Z</time>
      </trkpt>
      <trkpt lat="43.44118" lon="-0.61829">
        <ele>134.349088</ele>
        <time>2011-03-22T12:58:59Z</time>
      </trkpt>
      <trkpt lat="43.44101" lon="-0.61799">
        <ele>136.109119</ele>
        <time>2011-03-22T12:59:10Z</time>
      </trkpt>
      <trkpt lat="43.44101" lon="-0.61785">
        <ele>136.7383</ele>
        <time>2011-03-22T12:59:17Z</time>
      </trkpt>
      <trkpt lat="43.44098" lon="-0.61762">
        <ele>136.848135</ele>
        <time>2011-03-22T12:59:24Z</time>
      </trkpt>
      <trkpt lat="43.44095" lon="-0.61747">
        <ele>137.560165</ele>
        <time>2011-03-22T12:59:29Z</time>
      </trkpt>
      <trkpt lat="43.44092" lon="-0.61727">
        <ele>139.226428</ele>
        <time>2011-03-22T12:59:36Z</time>
      </trkpt>
      <trkpt lat="43.44092" lon="-0.61712">
        <ele>140.829245</ele>
        <time>2011-03-22T12:59:41Z</time>
      </trkpt>
      <trkpt lat="43.44093" lon="-0.6169">
        <ele>141.559754</ele>
        <time>2011-03-22T12:59:55Z</time>
      </trkpt>
      <trkpt lat="43.44093" lon="-0.6169">
        <ele>141.652399</ele>
        <time>2011-03-22T13:00:13Z</time>
      </trkpt>
      <trkpt lat="43.44085" lon="-0.61643">
        <ele>141.37579</ele>
        <time>2011-03-22T13:00:23Z</time>
      </trkpt>
      <trkpt lat="43.44085" lon="-0.61643">
        <ele>140.885468</ele>
        <time>2011-03-22T13:00:35Z</time>
      </trkpt>
      <trkpt lat="43.44115" lon="-0.61623">
        <ele>140.457419</ele>
        <time>2011-03-22T13:00:47Z</time>
      </trkpt>
      <trkpt lat="43.44126" lon="-0.6162">
        <ele>139.998894</ele>
        <time>2011-03-22T13:00:51Z</time>
      </trkpt>
      <trkpt lat="43.44137" lon="-0.61611">
        <ele>138.435106</ele>
        <time>2011-03-22T13:00:56Z</time>
      </trkpt>
      <trkpt lat="43.44146" lon="-0.61593">
        <ele>135.577681</ele>
        <time>2011-03-22T13:01:02Z</time>
      </trkpt>
      <trkpt lat="43.44152" lon="-0.61578">
        <ele>133.04552</ele>
        <time>2011-03-22T13:01:07Z</time>
      </trkpt>
      <trkpt lat="43.4416" lon="-0.61568">
        <ele>131.955541</ele>
        <time>2011-03-22T13:01:12Z</time>
      </trkpt>
      <trkpt lat="43.44169" lon="-0.61561">
        <ele>131.719231</ele>
        <time>2011-03-22T13:01:17Z</time>
      </trkpt>
      <trkpt lat="43.44179" lon="-0.61558">
        <ele>131.596166</ele>
        <time>2011-03-22T13:01:21Z</time>
      </trkpt>
      <trkpt lat="43.44189" lon="-0.61557">
        <ele>131.43281</ele>
        <time>2011-03-22T13:01:25Z</time>
      </trkpt>
      <trkpt lat="43.44198" lon="-0.61556">
        <ele>131.206905</ele>
        <time>2011-03-22T13:01:29Z</time>
      </trkpt>
      <trkpt lat="43.44208" lon="-0.61556">
        <ele>130.82766</ele>
        <time>2011-03-22T13:01:33Z</time>
      </trkpt>
      <trkpt lat="43.44218" lon="-0.61555">
        <ele>130.468699</ele>
        <time>2011-03-22T13:01:37Z</time>
      </trkpt>
      <trkpt lat="43.44227" lon="-0.61554">
        <ele>130.306855</ele>
        <time>2011-03-22T13:01:41Z</time>
      </trkpt>
      <trkpt lat="43.44237" lon="-0.61553">
        <ele>130.287478</ele>
        <time>2011-03-22T13:01:45Z</time>
      </trkpt>
      <trkpt lat="43.44247" lon="-0.61552">
        <ele>130.319042</ele>
        <time>2011-03-22T13:01:49Z</time>
      </trkpt>
      <trkpt lat="43.44257" lon="-0.6155">
        <ele>130.348305</ele>
        <time>2011-03-22T13:01:53Z</time>
      </trkpt>
      <trkpt lat="43.44267" lon="-0.61547">
        <ele>130.361323</ele>
        <time>2011-03-22T13:01:57Z</time>
      </trkpt>
      <trkpt lat="43.44276" lon="-0.61546">
        <ele>130.362792</ele>
        <time>2011-03-22T13:02:01Z</time>
      </trkpt>
      <trkpt lat="43.44293" lon="-0.61545">
        <ele>130.636567</ele>
        <time>2011-03-22T13:02:10Z</time>
      </trkpt>
      <trkpt lat="43.44302" lon="-0.61544">
        <ele>131.354017</ele>
        <time>2011-03-22T13:02:16Z</time>
      </trkpt>
      <trkpt lat="43.44312" lon="-0.61543">
        <ele>132.23007</ele>
        <time>2011-03-22T13:02:21Z</time>
      </trkpt>
      <trkpt lat="43.44321" lon="-0.61542">
        <ele>132.94043</ele>
        <time>2011-03-22T13:02:25Z</time>
      </trkpt>
      <trkpt lat="43.44346" lon="-0.61534">
        <ele>133.363193</ele>
        <time>2011-03-22T13:02:37Z</time>
      </trkpt>
      <trkpt lat="43.44354" lon="-0.61527">
        <ele>133.47871</ele>
        <time>2011-03-22T13:02:43Z</time>
      </trkpt>
      <trkpt lat="43.44354" lon="-0.61527">
        <ele>133.44512</ele>
        <time>2011-03-22T13:02:58Z</time>
      </trkpt>
      <trkpt lat="43.4437" lon="-0.61494">
        <ele>133.525131</ele>
        <time>2011-03-22T13:03:03Z</time>
      </trkpt>
      <trkpt lat="43.44385" lon="-0.61471">
        <ele>133.850878</ele>
        <time>2011-03-22T13:03:09Z</time>
      </trkpt>
      <trkpt lat="43.44397" lon="-0.61453">
        <ele>134.21124</ele>
        <time>2011-03-22T13:03:12Z</time>
      </trkpt>
      <trkpt lat="43.4441" lon="-0.61434">
        <ele>134.389472</ele>
        <time>2011-03-22T13:03:15Z</time>
      </trkpt>
      <trkpt lat="43.44423" lon="-0.61417">
        <ele>134.420935</ele>
        <time>2011-03-22T13:03:18Z</time>
      </trkpt>
      <trkpt lat="43.44431" lon="-0.61408">
        <ele>134.393915</ele>
        <time>2011-03-22T13:03:20Z</time>
      </trkpt>
      <trkpt lat="43.44442" lon="-0.61397">
        <ele>134.364697</ele>
        <time>2011-03-22T13:03:23Z</time>
      </trkpt>
      <trkpt lat="43.44453" lon="-0.6139">
        <ele>134.350486</ele>
        <time>2011-03-22T13:03:26Z</time>
      </trkpt>
      <trkpt lat="43.44464" lon="-0.61385">
        <ele>134.348179</ele>
        <time>2011-03-22T13:03:29Z</time>
      </trkpt>
      <trkpt lat="43.44474" lon="-0.6138">
        <ele>134.350537</ele>
        <time>2011-03-22T13:03:32Z</time>
      </trkpt>
      <trkpt lat="43.44485" lon="-0.61378">
        <ele>134.353009</ele>
        <time>2011-03-22T13:03:36Z</time>
      </trkpt>
      <trkpt lat="43.44485" lon="-0.61378">
        <ele>134.354225</ele>
        <time>2011-03-22T13:03:38Z</time>
      </trkpt>
      <trkpt lat="43.44485" lon="-0.61378">
        <ele>134.354446</ele>
        <time>2011-03-22T13:04:33Z</time>
      </trkpt>
      <trkpt lat="43.44488" lon="-0.61359">
        <ele>134.3543</ele>
        <time>2011-03-22T13:04:34Z</time>
      </trkpt>
      <trkpt lat="43.44487" lon="-0.61342">
        <ele>134.492343</ele>
        <time>2011-03-22T13:04:37Z</time>
      </trkpt>
      <trkpt lat="43.44485" lon="-0.61327">
        <ele>134.85217</ele>
        <time>2011-03-22T13:04:40Z</time>
      </trkpt>
      <trkpt lat="43.44483" lon="-0.61313">
        <ele>135.221591</ele>
        <time>2011-03-22T13:04:43Z</time>
      </trkpt>
      <trkpt lat="43.44481" lon="-0.61297">
        <ele>135.3969</ele>
        <time>2011-03-22T13:04:47Z</time>
      </trkpt>
      <trkpt lat="43.44479" lon="-0.61282">
        <ele>135.423511</ele>
        <time>2011-03-22T13:04:51Z</time>
      </trkpt>
      <trkpt lat="43.44477" lon="-0.61269">
        <ele>135.39359</ele>
        <time>2011-03-22T13:04:54Z</time>
      </trkpt>
      <trkpt lat="43.44475" lon="-0.61256">
        <ele>135.363508</ele>
        <time>2011-03-22T13:04:57Z</time>
      </trkpt>
      <trkpt lat="43.44474" lon="-0.61242">
        <ele>135.211276</ele>
        <time>2011-03-22T13:05:00Z</time>
      </trkpt>
      <trkpt lat="43.44471" lon="-0.61228">
        <ele>134.849463</ele>
        <time>2011-03-22T13:05:03Z</time>
      </trkpt>
      <trkpt lat="43.44467" lon="-0.61214">
        <ele>134.482629</ele>
        <time>2011-03-22T13:05:06Z</time>
      </trkpt>
      <trkpt lat="43.44464" lon="-0.612">
        <ele>134.309871</ele>
        <time>2011-03-22T13:05:09Z</time>
      </trkpt>
      <trkpt lat="43.44459" lon="-0.61188">
        <ele>134.422664</ele>
        <time>2011-03-22T13:05:12Z</time>
      </trkpt>
      <trkpt lat="43.44455" lon="-0.61176">
        <ele>134.812703</ele>
        <time>2011-03-22T13:05:15Z</time>
      </trkpt>
      <trkpt lat="43.4445" lon="-0.61163">
        <ele>135.212057</ele>
        <time>2011-03-22T13:05:19Z</time>
      </trkpt>
      <trkpt lat="43.4445" lon="-0.61163">
        <ele>135.40124</ele>
        <time>2011-03-22T13:05:25Z</time>
      </trkpt>
      <trkpt lat="43.44419" lon="-0.61132">
        <ele>135.429722</ele>
        <time>2011-03-22T13:05:55Z</time>
      </trkpt>
      <trkpt lat="43.44408" lon="-0.61135">
        <ele>135.397248</ele>
        <time>2011-03-22T13:06:09Z</time>
      </trkpt>
      <trkpt lat="43.44391" lon="-0.61137">
        <ele>135.364725</ele>
        <time>2011-03-22T13:06:14Z</time>
      </trkpt>
      <trkpt lat="43.44381" lon="-0.61139">
        <ele>136.593104</ele>
        <time>2011-03-22T13:06:16Z</time>
      </trkpt>
      <trkpt lat="43.44366" lon="-0.61142">
        <ele>139.829905</ele>
        <time>2011-03-22T13:06:19Z</time>
      </trkpt>
      <trkpt lat="43.44356" lon="-0.61145">
        <ele>143.157451</ele>
        <time>2011-03-22T13:06:21Z</time>
      </trkpt>
      <trkpt lat="43.44347" lon="-0.61147">
        <ele>144.737418</ele>
        <time>2011-03-22T13:06:23Z</time>
      </trkpt>
      <trkpt lat="43.44333" lon="-0.61152">
        <ele>144.977396</ele>
        <time>2011-03-22T13:06:26Z</time>
      </trkpt>
      <trkpt lat="43.44319" lon="-0.61154">
        <ele>144.707658</ele>
        <time>2011-03-22T13:06:29Z</time>
      </trkpt>
      <trkpt lat="43.44305" lon="-0.61155">
        <ele>144.436419</ele>
        <time>2011-03-22T13:06:32Z</time>
      </trkpt>
      <trkpt lat="43.44292" lon="-0.61155">
        <ele>144.171103</ele>
        <time>2011-03-22T13:06:35Z</time>
      </trkpt>
      <trkpt lat="43.4428" lon="-0.61158">
        <ele>143.654675</ele>
        <time>2011-03-22T13:06:38Z</time>
      </trkpt>
      <trkpt lat="43.44267" lon="-0.61161">
        <ele>142.809553</ele>
        <time>2011-03-22T13:06:41Z</time>
      </trkpt>
      <trkpt lat="43.44255" lon="-0.61165">
        <ele>141.926995</ele>
        <time>2011-03-22T13:06:44Z</time>
      </trkpt>
      <trkpt lat="43.44242" lon="-0.6117">
        <ele>141.365926</ele>
        <time>2011-03-22T13:06:47Z</time>
      </trkpt>
      <trkpt lat="43.44228" lon="-0.61176">
        <ele>141.057273</ele>
        <time>2011-03-22T13:06:50Z</time>
      </trkpt>
      <trkpt lat="43.44217" lon="-0.6118">
        <ele>140.729017</ele>
        <time>2011-03-22T13:06:52Z</time>
      </trkpt>
      <trkpt lat="43.44206" lon="-0.61184">
        <ele>140.431908</ele>
        <time>2011-03-22T13:06:54Z</time>
      </trkpt>
      <trkpt lat="43.44188" lon="-0.61188">
        <ele>140.30198</ele>
        <time>2011-03-22T13:06:57Z</time>
      </trkpt>
      <trkpt lat="43.44176" lon="-0.6119">
        <ele>140.288894</ele>
        <time>2011-03-22T13:06:59Z</time>
      </trkpt>
      <trkpt lat="43.44156" lon="-0.61195">
        <ele>140.316039</ele>
        <time>2011-03-22T13:07:02Z</time>
      </trkpt>
      <trkpt lat="43.44142" lon="-0.61197">
        <ele>140.340144</ele>
        <time>2011-03-22T13:07:04Z</time>
      </trkpt>
      <trkpt lat="43.44128" lon="-0.61201">
        <ele>140.350496</ele>
        <time>2011-03-22T13:07:06Z</time>
      </trkpt>
      <trkpt lat="43.44108" lon="-0.61209">
        <ele>140.351371</ele>
        <time>2011-03-22T13:07:09Z</time>
      </trkpt>
      <trkpt lat="43.44095" lon="-0.61214">
        <ele>140.349035</ele>
        <time>2011-03-22T13:07:11Z</time>
      </trkpt>
      <trkpt lat="43.44074" lon="-0.61211">
        <ele>140.208811</ele>
        <time>2011-03-22T13:07:14Z</time>
      </trkpt>
      <trkpt lat="43.44052" lon="-0.61206">
        <ele>139.571647</ele>
        <time>2011-03-22T13:07:17Z</time>
      </trkpt>
      <trkpt lat="43.4403" lon="-0.61197">
        <ele>138.344096</ele>
        <time>2011-03-22T13:07:20Z</time>
      </trkpt>
      <trkpt lat="43.44016" lon="-0.6119">
        <ele>137.070155</ele>
        <time>2011-03-22T13:07:22Z</time>
      </trkpt>
      <trkpt lat="43.44004" lon="-0.61182">
        <ele>136.323699</ele>
        <time>2011-03-22T13:07:24Z</time>
      </trkpt>
      <trkpt lat="43.43988" lon="-0.6117">
        <ele>136.125317</ele>
        <time>2011-03-22T13:07:27Z</time>
      </trkpt>
      <trkpt lat="43.43977" lon="-0.61153">
        <ele>136.050661</ele>
        <time>2011-03-22T13:07:30Z</time>
      </trkpt>
      <trkpt lat="43.43979" lon="-0.61138">
        <ele>135.93326</ele>
        <time>2011-03-22T13:07:33Z</time>
      </trkpt>
      <trkpt lat="43.43981" lon="-0.61122">
        <ele>135.984035</ele>
        <time>2011-03-22T13:07:36Z</time>
      </trkpt>
      <trkpt lat="43.43985" lon="-0.61107">
        <ele>136.19382</ele>
        <time>2011-03-22T13:07:39Z</time>
      </trkpt>
      <trkpt lat="43.43988" lon="-0.61092">
        <ele>136.337115</ele>
        <time>2011-03-22T13:07:42Z</time>
      </trkpt>
      <trkpt lat="43.43988" lon="-0.61077">
        <ele>136.385117</ele>
        <time>2011-03-22T13:07:45Z</time>
      </trkpt>
      <trkpt lat="43.43988" lon="-0.61064">
        <ele>136.38042</ele>
        <time>2011-03-22T13:07:48Z</time>
      </trkpt>
      <trkpt lat="43.43987" lon="-0.6105">
        <ele>136.363244</ele>
        <time>2011-03-22T13:07:51Z</time>
      </trkpt>
      <trkpt lat="43.43979" lon="-0.61042">
        <ele>136.351699</ele>
        <time>2011-03-22T13:07:54Z</time>
      </trkpt>
      <trkpt lat="43.43972" lon="-0.6103">
        <ele>136.347941</ele>
        <time>2011-03-22T13:07:58Z</time>
      </trkpt>
      <trkpt lat="43.43965" lon="-0.61022">
        <ele>136.486605</ele>
        <time>2011-03-22T13:08:01Z</time>
      </trkpt>
      <trkpt lat="43.43956" lon="-0.6102">
        <ele>136.847951</ele>
        <time>2011-03-22T13:08:04Z</time>
      </trkpt>
      <trkpt lat="43.43956" lon="-0.6102">
        <ele>137.218348</ele>
        <time>2011-03-22T13:08:07Z</time>
      </trkpt>
      <trkpt lat="43.4393" lon="-0.60994">
        <ele>137.39392</ele>
        <time>2011-03-22T13:08:23Z</time>
      </trkpt>
      <trkpt lat="43.43927" lon="-0.6098">
        <ele>137.558585</ele>
        <time>2011-03-22T13:08:27Z</time>
      </trkpt>
      <trkpt lat="43.43919" lon="-0.60947">
        <ele>137.888367</ele>
        <time>2011-03-22T13:08:34Z</time>
      </trkpt>
      <trkpt lat="43.43914" lon="-0.60933">
        <ele>138.365788</ele>
        <time>2011-03-22T13:08:37Z</time>
      </trkpt>
      <trkpt lat="43.43914" lon="-0.60933">
        <ele>138.886807</ele>
        <time>2011-03-22T13:08:40Z</time>
      </trkpt>
      <trkpt lat="43.43909" lon="-0.60903">
        <ele>139.418921</ele>
        <time>2011-03-22T13:08:44Z</time>
      </trkpt>
      <trkpt lat="43.43908" lon="-0.60888">
        <ele>140.202968</ele>
        <time>2011-03-22T13:08:47Z</time>
      </trkpt>
      <trkpt lat="43.43908" lon="-0.60888">
        <ele>141.29111</ele>
        <time>2011-03-22T13:08:51Z</time>
      </trkpt>
      <trkpt lat="43.43895" lon="-0.6083">
        <ele>142.300513</ele>
        <time>2011-03-22T13:09:10Z</time>
      </trkpt>
      <trkpt lat="43.43895" lon="-0.6083">
        <ele>143.005509</ele>
        <time>2011-03-22T13:09:14Z</time>
      </trkpt>
      <trkpt lat="43.43885" lon="-0.6079">
        <ele>143.386233</ele>
        <time>2011-03-22T13:09:20Z</time>
      </trkpt>
      <trkpt lat="43.43874" lon="-0.60751">
        <ele>143.609861</ele>
        <time>2011-03-22T13:09:30Z</time>
      </trkpt>
      <trkpt lat="43.43863" lon="-0.60715">
        <ele>145.169177</ele>
        <time>2011-03-22T13:09:40Z</time>
      </trkpt>
      <trkpt lat="43.43847" lon="-0.60681">
        <ele>148.996489</ele>
        <time>2011-03-22T13:09:46Z</time>
      </trkpt>
      <trkpt lat="43.43828" lon="-0.60654">
        <ele>153.185849</ele>
        <time>2011-03-22T13:09:53Z</time>
      </trkpt>
      <trkpt lat="43.43817" lon="-0.60641">
        <ele>155.522011</ele>
        <time>2011-03-22T13:09:56Z</time>
      </trkpt>
      <trkpt lat="43.4381" lon="-0.6063">
        <ele>156.085095</ele>
        <time>2011-03-22T13:09:59Z</time>
      </trkpt>
      <trkpt lat="43.4381" lon="-0.6063">
        <ele>155.8429</ele>
        <time>2011-03-22T13:10:01Z</time>
      </trkpt>
      <trkpt lat="43.43785" lon="-0.60613">
        <ele>155.500369</ele>
        <time>2011-03-22T13:10:15Z</time>
      </trkpt>
      <trkpt lat="43.43785" lon="-0.60613">
        <ele>155.311829</ele>
        <time>2011-03-22T13:10:19Z</time>
      </trkpt>
      <trkpt lat="43.43785" lon="-0.60613">
        <ele>155.266509</ele>
        <time>2011-03-22T13:10:46Z</time>
      </trkpt>
      <trkpt lat="43.43774" lon="-0.60569">
        <ele>155.284023</ele>
        <time>2011-03-22T13:12:12Z</time>
      </trkpt>
      <trkpt lat="43.43774" lon="-0.60554">
        <ele>155.389754</ele>
        <time>2011-03-22T13:12:16Z</time>
      </trkpt>
      <trkpt lat="43.43773" lon="-0.60521">
        <ele>156.087012</ele>
        <time>2011-03-22T13:12:23Z</time>
      </trkpt>
      <trkpt lat="43.4377" lon="-0.60474">
        <ele>157.538441</ele>
        <time>2011-03-22T13:12:41Z</time>
      </trkpt>
      <trkpt lat="43.43768" lon="-0.60435">
        <ele>158.904368</ele>
        <time>2011-03-22T13:12:55Z</time>
      </trkpt>
      <trkpt lat="43.43767" lon="-0.604">
        <ele>159.518012</ele>
        <time>2011-03-22T13:12:58Z</time>
      </trkpt>
      <trkpt lat="43.43766" lon="-0.60382">
        <ele>159.590267</ele>
        <time>2011-03-22T13:13:00Z</time>
      </trkpt>
      <trkpt lat="43.43765" lon="-0.60356">
        <ele>159.3316</ele>
        <time>2011-03-22T13:13:03Z</time>
      </trkpt>
      <trkpt lat="43.43764" lon="-0.60343">
        <ele>158.722414</ele>
        <time>2011-03-22T13:13:07Z</time>
      </trkpt>
      <trkpt lat="43.43764" lon="-0.60343">
        <ele>157.943956</ele>
        <time>2011-03-22T13:13:08Z</time>
      </trkpt>
      <trkpt lat="43.43763" lon="-0.60313">
        <ele>157.394016</ele>
        <time>2011-03-22T13:13:11Z</time>
      </trkpt>
      <trkpt lat="43.43762" lon="-0.60299">
        <ele>157.202281</ele>
        <time>2011-03-22T13:13:14Z</time>
      </trkpt>
      <trkpt lat="43.43762" lon="-0.60299">
        <ele>157.214792</ele>
        <time>2011-03-22T13:13:15Z</time>
      </trkpt>
      <trkpt lat="43.43758" lon="-0.60261">
        <ele>157.417021</ele>
        <time>2011-03-22T13:13:24Z</time>
      </trkpt>
      <trkpt lat="43.43757" lon="-0.60246">
        <ele>157.821544</ele>
        <time>2011-03-22T13:13:27Z</time>
      </trkpt>
      <trkpt lat="43.43754" lon="-0.60192">
        <ele>158.235717</ele>
        <time>2011-03-22T13:13:38Z</time>
      </trkpt>
      <trkpt lat="43.43754" lon="-0.60192">
        <ele>158.456977</ele>
        <time>2011-03-22T13:13:42Z</time>
      </trkpt>
      <trkpt lat="43.43754" lon="-0.60151">
        <ele>158.480349</ele>
        <time>2011-03-22T13:13:51Z</time>
      </trkpt>
      <trkpt lat="43.43756" lon="-0.60137">
        <ele>158.405611</ele>
        <time>2011-03-22T13:13:54Z</time>
      </trkpt>
      <trkpt lat="43.43753" lon="-0.60111">
        <ele>158.342843</ele>
        <time>2011-03-22T13:13:57Z</time>
      </trkpt>
      <trkpt lat="43.43752" lon="-0.60093">
        <ele>158.316966</ele>
        <time>2011-03-22T13:14:00Z</time>
      </trkpt>
      <trkpt lat="43.4375" lon="-0.60075">
        <ele>158.315403</ele>
        <time>2011-03-22T13:14:03Z</time>
      </trkpt>
      <trkpt lat="43.4375" lon="-0.60075">
        <ele>158.32159</ele>
        <time>2011-03-22T13:14:08Z</time>
      </trkpt>
      <trkpt lat="43.43749" lon="-0.60033">
        <ele>158.326677</ele>
        <time>2011-03-22T13:14:14Z</time>
      </trkpt>
      <trkpt lat="43.43748" lon="-0.60014">
        <ele>158.328757</ele>
        <time>2011-03-22T13:14:17Z</time>
      </trkpt>
      <trkpt lat="43.43748" lon="-0.60014">
        <ele>158.328897</ele>
        <time>2011-03-22T13:14:20Z</time>
      </trkpt>
      <trkpt lat="43.43742" lon="-0.59966">
        <ele>158.328425</ele>
        <time>2011-03-22T13:14:31Z</time>
      </trkpt>
      <trkpt lat="43.43742" lon="-0.59966">
        <ele>158.328047</ele>
        <time>2011-03-22T13:14:34Z</time>
      </trkpt>
      <trkpt lat="43.43729" lon="-0.59918">
        <ele>158.466103</ele>
        <time>2011-03-22T13:14:44Z</time>
      </trkpt>
      <trkpt lat="43.43728" lon="-0.59905">
        <ele>158.826052</ele>
        <time>2011-03-22T13:14:48Z</time>
      </trkpt>
      <trkpt lat="43.43728" lon="-0.59892">
        <ele>159.19562</ele>
        <time>2011-03-22T13:14:52Z</time>
      </trkpt>
      <trkpt lat="43.43726" lon="-0.59878">
        <ele>159.647381</ele>
        <time>2011-03-22T13:14:56Z</time>
      </trkpt>
      <trkpt lat="43.43724" lon="-0.59865">
        <ele>160.393825</ele>
        <time>2011-03-22T13:15:00Z</time>
      </trkpt>
      <trkpt lat="43.43719" lon="-0.59843">
        <ele>161.102809</ele>
        <time>2011-03-22T13:15:11Z</time>
      </trkpt>
      <trkpt lat="43.43717" lon="-0.5983">
        <ele>161.561453</ele>
        <time>2011-03-22T13:15:19Z</time>
      </trkpt>
      <trkpt lat="43.43717" lon="-0.5983">
        <ele>161.960303</ele>
        <time>2011-03-22T13:15:30Z</time>
      </trkpt>
      <trkpt lat="43.43702" lon="-0.59763">
        <ele>162.267729</ele>
        <time>2011-03-22T13:15:51Z</time>
      </trkpt>
      <trkpt lat="43.43702" lon="-0.59749">
        <ele>162.523514</ele>
        <time>2011-03-22T13:15:56Z</time>
      </trkpt>
      <trkpt lat="43.43703" lon="-0.5973">
        <ele>162.884345</ele>
        <time>2011-03-22T13:16:02Z</time>
      </trkpt>
      <trkpt lat="43.43703" lon="-0.59716">
        <ele>163.221018</ele>
        <time>2011-03-22T13:16:06Z</time>
      </trkpt>
      <trkpt lat="43.43705" lon="-0.59692">
        <ele>163.233207</ele>
        <time>2011-03-22T13:16:14Z</time>
      </trkpt>
      <trkpt lat="43.43706" lon="-0.59677">
        <ele>162.759222</ele>
        <time>2011-03-22T13:16:19Z</time>
      </trkpt>
      <trkpt lat="43.43704" lon="-0.59663">
        <ele>162.011081</ele>
        <time>2011-03-22T13:16:23Z</time>
      </trkpt>
      <trkpt lat="43.43702" lon="-0.59651">
        <ele>161.301335</ele>
        <time>2011-03-22T13:16:27Z</time>
      </trkpt>
      <trkpt lat="43.43702" lon="-0.59651">
        <ele>160.717937</ele>
        <time>2011-03-22T13:16:44Z</time>
      </trkpt>
      <trkpt lat="43.43702" lon="-0.59651">
        <ele>160.343312</ele>
        <time>2011-03-22T13:16:58Z</time>
      </trkpt>
      <trkpt lat="43.43682" lon="-0.5961">
        <ele>160.227825</ele>
        <time>2011-03-22T13:17:23Z</time>
      </trkpt>
      <trkpt lat="43.43673" lon="-0.59602">
        <ele>160.247711</ele>
        <time>2011-03-22T13:17:28Z</time>
      </trkpt>
      <trkpt lat="43.43661" lon="-0.5959">
        <ele>160.157398</ele>
        <time>2011-03-22T13:17:34Z</time>
      </trkpt>
      <trkpt lat="43.43656" lon="-0.59577">
        <ele>159.689681</ele>
        <time>2011-03-22T13:17:40Z</time>
      </trkpt>
      <trkpt lat="43.43651" lon="-0.59566">
        <ele>158.969564</ele>
        <time>2011-03-22T13:17:45Z</time>
      </trkpt>
      <trkpt lat="43.43646" lon="-0.59555">
        <ele>158.42315</ele>
        <time>2011-03-22T13:17:50Z</time>
      </trkpt>
      <trkpt lat="43.43639" lon="-0.59545">
        <ele>158.217441</ele>
        <time>2011-03-22T13:17:55Z</time>
      </trkpt>
      <trkpt lat="43.43635" lon="-0.59528">
        <ele>158.218439</ele>
        <time>2011-03-22T13:18:04Z</time>
      </trkpt>
      <trkpt lat="43.43635" lon="-0.59528">
        <ele>158.237283</ele>
        <time>2011-03-22T13:18:15Z</time>
      </trkpt>
      <trkpt lat="43.43635" lon="-0.59528">
        <ele>158.176103</ele>
        <time>2011-03-22T13:19:04Z</time>
      </trkpt>
      <trkpt lat="43.43654" lon="-0.59512">
        <ele>158.086813</ele>
        <time>2011-03-22T13:21:23Z</time>
      </trkpt>
      <trkpt lat="43.43681" lon="-0.59496">
        <ele>158.079848</ele>
        <time>2011-03-22T13:21:26Z</time>
      </trkpt>
      <trkpt lat="43.43707" lon="-0.59475">
        <ele>158.311094</ele>
        <time>2011-03-22T13:21:29Z</time>
      </trkpt>
      <trkpt lat="43.43726" lon="-0.59447">
        <ele>159.057263</ele>
        <time>2011-03-22T13:21:32Z</time>
      </trkpt>
      <trkpt lat="43.43744" lon="-0.59432">
        <ele>160.340865</ele>
        <time>2011-03-22T13:21:35Z</time>
      </trkpt>
      <trkpt lat="43.43756" lon="-0.59423">
        <ele>161.625922</ele>
        <time>2011-03-22T13:21:37Z</time>
      </trkpt>
      <trkpt lat="43.43772" lon="-0.59426">
        <ele>162.502967</ele>
        <time>2011-03-22T13:21:40Z</time>
      </trkpt>
      <trkpt lat="43.43781" lon="-0.5943">
        <ele>163.052408</ele>
        <time>2011-03-22T13:21:42Z</time>
      </trkpt>
      <trkpt lat="43.4379" lon="-0.59434">
        <ele>163.353925</ele>
        <time>2011-03-22T13:21:44Z</time>
      </trkpt>
      <trkpt lat="43.43805" lon="-0.59441">
        <ele>163.424154</ele>
        <time>2011-03-22T13:21:47Z</time>
      </trkpt>
      <trkpt lat="43.43814" lon="-0.59445">
        <ele>163.391084</ele>
        <time>2011-03-22T13:21:49Z</time>
      </trkpt>
      <trkpt lat="43.43824" lon="-0.59448">
        <ele>163.346225</ele>
        <time>2011-03-22T13:21:51Z</time>
      </trkpt>
      <trkpt lat="43.43839" lon="-0.59452">
        <ele>163.321928</ele>
        <time>2011-03-22T13:21:54Z</time>
      </trkpt>
      <trkpt lat="43.43854" lon="-0.59456">
        <ele>163.316456</ele>
        <time>2011-03-22T13:21:57Z</time>
      </trkpt>
      <trkpt lat="43.43868" lon="-0.5946">
        <ele>163.319281</ele>
        <time>2011-03-22T13:22:00Z</time>
      </trkpt>
      <trkpt lat="43.4388" lon="-0.59463">
        <ele>163.322975</ele>
        <time>2011-03-22T13:22:03Z</time>
      </trkpt>
      <trkpt lat="43.4389" lon="-0.59465">
        <ele>163.324952</ele>
        <time>2011-03-22T13:22:06Z</time>
      </trkpt>
      <trkpt lat="43.439" lon="-0.59466">
        <ele>163.325385</ele>
        <time>2011-03-22T13:22:09Z</time>
      </trkpt>
      <trkpt lat="43.43909" lon="-0.59465">
        <ele>163.048817</ele>
        <time>2011-03-22T13:22:12Z</time>
      </trkpt>
      <trkpt lat="43.43918" lon="-0.59463">
        <ele>162.052446</ele>
        <time>2011-03-22T13:22:15Z</time>
      </trkpt>
      <trkpt lat="43.43927" lon="-0.59462">
        <ele>160.179186</ele>
        <time>2011-03-22T13:22:18Z</time>
      </trkpt>
      <trkpt lat="43.43937" lon="-0.59462">
        <ele>157.733794</ele>
        <time>2011-03-22T13:22:21Z</time>
      </trkpt>
      <trkpt lat="43.43947" lon="-0.5946">
        <ele>155.36401</ele>
        <time>2011-03-22T13:22:24Z</time>
      </trkpt>
      <trkpt lat="43.43957" lon="-0.59457">
        <ele>153.60826</ele>
        <time>2011-03-22T13:22:27Z</time>
      </trkpt>
      <trkpt lat="43.43966" lon="-0.59453">
        <ele>152.430882</ele>
        <time>2011-03-22T13:22:30Z</time>
      </trkpt>
      <trkpt lat="43.43976" lon="-0.59449">
        <ele>151.513467</ele>
        <time>2011-03-22T13:22:33Z</time>
      </trkpt>
      <trkpt lat="43.43986" lon="-0.59447">
        <ele>150.626754</ele>
        <time>2011-03-22T13:22:36Z</time>
      </trkpt>
      <trkpt lat="43.43995" lon="-0.59451">
        <ele>149.827231</ele>
        <time>2011-03-22T13:22:39Z</time>
      </trkpt>
      <trkpt lat="43.44004" lon="-0.59457">
        <ele>149.202332</ele>
        <time>2011-03-22T13:22:42Z</time>
      </trkpt>
      <trkpt lat="43.44011" lon="-0.59468">
        <ele>148.704278</ele>
        <time>2011-03-22T13:22:45Z</time>
      </trkpt>
      <trkpt lat="43.44016" lon="-0.5948">
        <ele>148.36964</ele>
        <time>2011-03-22T13:22:48Z</time>
      </trkpt>
      <trkpt lat="43.44021" lon="-0.59492">
        <ele>148.259896</ele>
        <time>2011-03-22T13:22:51Z</time>
      </trkpt>
      <trkpt lat="43.44027" lon="-0.59504">
        <ele>148.134545</ele>
        <time>2011-03-22T13:22:54Z</time>
      </trkpt>
      <trkpt lat="43.44036" lon="-0.59513">
        <ele>147.815588</ele>
        <time>2011-03-22T13:22:57Z</time>
      </trkpt>
      <trkpt lat="43.44046" lon="-0.59517">
        <ele>147.473287</ele>
        <time>2011-03-22T13:23:00Z</time>
      </trkpt>
      <trkpt lat="43.44056" lon="-0.5952">
        <ele>147.306756</ele>
        <time>2011-03-22T13:23:03Z</time>
      </trkpt>
      <trkpt lat="43.44066" lon="-0.59521">
        <ele>147.140885</ele>
        <time>2011-03-22T13:23:06Z</time>
      </trkpt>
      <trkpt lat="43.44076" lon="-0.59518">
        <ele>146.807637</ele>
        <time>2011-03-22T13:23:09Z</time>
      </trkpt>
      <trkpt lat="43.44086" lon="-0.59511">
        <ele>146.466143</ele>
        <time>2011-03-22T13:23:12Z</time>
      </trkpt>
      <trkpt lat="43.44096" lon="-0.59503">
        <ele>146.304301</ele>
        <time>2011-03-22T13:23:15Z</time>
      </trkpt>
      <trkpt lat="43.44107" lon="-0.59495">
        <ele>146.279907</ele>
        <time>2011-03-22T13:23:18Z</time>
      </trkpt>
      <trkpt lat="43.44119" lon="-0.59489">
        <ele>146.445876</ele>
        <time>2011-03-22T13:23:21Z</time>
      </trkpt>
      <trkpt lat="43.44131" lon="-0.59481">
        <ele>146.833651</ele>
        <time>2011-03-22T13:23:24Z</time>
      </trkpt>
      <trkpt lat="43.44142" lon="-0.59472">
        <ele>147.354349</ele>
        <time>2011-03-22T13:23:27Z</time>
      </trkpt>
      <trkpt lat="43.44154" lon="-0.59462">
        <ele>148.029615</ele>
        <time>2011-03-22T13:23:30Z</time>
      </trkpt>
      <trkpt lat="43.44165" lon="-0.59452">
        <ele>149.059595</ele>
        <time>2011-03-22T13:23:33Z</time>
      </trkpt>
      <trkpt lat="43.44176" lon="-0.59441">
        <ele>150.568257</ele>
        <time>2011-03-22T13:23:36Z</time>
      </trkpt>
      <trkpt lat="43.44187" lon="-0.5943">
        <ele>152.335805</ele>
        <time>2011-03-22T13:23:39Z</time>
      </trkpt>
      <trkpt lat="43.44197" lon="-0.59418">
        <ele>153.767477</ele>
        <time>2011-03-22T13:23:42Z</time>
      </trkpt>
      <trkpt lat="43.44207" lon="-0.59408">
        <ele>154.478655</ele>
        <time>2011-03-22T13:23:45Z</time>
      </trkpt>
      <trkpt lat="43.44217" lon="-0.59397">
        <ele>154.605565</ele>
        <time>2011-03-22T13:23:48Z</time>
      </trkpt>
      <trkpt lat="43.44227" lon="-0.59387">
        <ele>154.63659</ele>
        <time>2011-03-22T13:23:51Z</time>
      </trkpt>
      <trkpt lat="43.44237" lon="-0.59378">
        <ele>154.87979</ele>
        <time>2011-03-22T13:23:54Z</time>
      </trkpt>
      <trkpt lat="43.44246" lon="-0.59369">
        <ele>155.192048</ele>
        <time>2011-03-22T13:23:57Z</time>
      </trkpt>
      <trkpt lat="43.44255" lon="-0.59359">
        <ele>155.357605</ele>
        <time>2011-03-22T13:24:00Z</time>
      </trkpt>
      <trkpt lat="43.44264" lon="-0.59353">
        <ele>155.393169</ele>
        <time>2011-03-22T13:24:03Z</time>
      </trkpt>
      <trkpt lat="43.44264" lon="-0.59353">
        <ele>155.37277</ele>
        <time>2011-03-22T13:24:07Z</time>
      </trkpt>
      <trkpt lat="43.44271" lon="-0.59329">
        <ele>155.347318</ele>
        <time>2011-03-22T13:24:12Z</time>
      </trkpt>
      <trkpt lat="43.44274" lon="-0.59315">
        <ele>155.33402</ele>
        <time>2011-03-22T13:24:15Z</time>
      </trkpt>
      <trkpt lat="43.44278" lon="-0.59301">
        <ele>155.3313</ele>
        <time>2011-03-22T13:24:18Z</time>
      </trkpt>
      <trkpt lat="43.44279" lon="-0.59288">
        <ele>155.333054</ele>
        <time>2011-03-22T13:24:21Z</time>
      </trkpt>
      <trkpt lat="43.44281" lon="-0.59274">
        <ele>155.335155</ele>
        <time>2011-03-22T13:24:24Z</time>
      </trkpt>
      <trkpt lat="43.44281" lon="-0.59274">
        <ele>155.319411</ele>
        <time>2011-03-22T13:24:30Z</time>
      </trkpt>
      <trkpt lat="43.44268" lon="-0.59225">
        <ele>155.292639</ele>
        <time>2011-03-22T13:24:46Z</time>
      </trkpt>
      <trkpt lat="43.44253" lon="-0.59194">
        <ele>155.291387</ele>
        <time>2011-03-22T13:24:49Z</time>
      </trkpt>
      <trkpt lat="43.44245" lon="-0.59181">
        <ele>155.31497</ele>
        <time>2011-03-22T13:24:51Z</time>
      </trkpt>
      <trkpt lat="43.44237" lon="-0.59167">
        <ele>155.609483</ele>
        <time>2011-03-22T13:24:53Z</time>
      </trkpt>
      <trkpt lat="43.44228" lon="-0.59149">
        <ele>156.336261</ele>
        <time>2011-03-22T13:24:56Z</time>
      </trkpt>
      <trkpt lat="43.44219" lon="-0.59131">
        <ele>157.075243</ele>
        <time>2011-03-22T13:24:59Z</time>
      </trkpt>
      <trkpt lat="43.44214" lon="-0.5912">
        <ele>157.423864</ele>
        <time>2011-03-22T13:25:01Z</time>
      </trkpt>
      <trkpt lat="43.44209" lon="-0.59109">
        <ele>157.475461</ele>
        <time>2011-03-22T13:25:03Z</time>
      </trkpt>
      <trkpt lat="43.44203" lon="-0.59093">
        <ele>157.276767</ele>
        <time>2011-03-22T13:25:06Z</time>
      </trkpt>
      <trkpt lat="43.44199" lon="-0.59082">
        <ele>156.856688</ele>
        <time>2011-03-22T13:25:08Z</time>
      </trkpt>
      <trkpt lat="43.44194" lon="-0.59064">
        <ele>156.321072</ele>
        <time>2011-03-22T13:25:11Z</time>
      </trkpt>
      <trkpt lat="43.4419" lon="-0.59046">
        <ele>155.643845</ele>
        <time>2011-03-22T13:25:14Z</time>
      </trkpt>
      <trkpt lat="43.44187" lon="-0.59027">
        <ele>154.754892</ele>
        <time>2011-03-22T13:25:17Z</time>
      </trkpt>
      <trkpt lat="43.4418" lon="-0.5901">
        <ele>153.885251</ele>
        <time>2011-03-22T13:25:20Z</time>
      </trkpt>
      <trkpt lat="43.44173" lon="-0.58993">
        <ele>153.346421</ele>
        <time>2011-03-22T13:25:23Z</time>
      </trkpt>
      <trkpt lat="43.44168" lon="-0.58977">
        <ele>153.189013</ele>
        <time>2011-03-22T13:25:26Z</time>
      </trkpt>
      <trkpt lat="43.44162" lon="-0.58961">
        <ele>153.224178</ele>
        <time>2011-03-22T13:25:29Z</time>
      </trkpt>
      <trkpt lat="43.44157" lon="-0.58946">
        <ele>153.29549</ele>
        <time>2011-03-22T13:25:32Z</time>
      </trkpt>
      <trkpt lat="43.44151" lon="-0.5893">
        <ele>153.339124</ele>
        <time>2011-03-22T13:25:35Z</time>
      </trkpt>
      <trkpt lat="43.44143" lon="-0.58914">
        <ele>153.628002</ele>
        <time>2011-03-22T13:25:38Z</time>
      </trkpt>
      <trkpt lat="43.44135" lon="-0.58896">
        <ele>154.34479</ele>
        <time>2011-03-22T13:25:41Z</time>
      </trkpt>
      <trkpt lat="43.44126" lon="-0.58878">
        <ele>155.216033</ele>
        <time>2011-03-22T13:25:44Z</time>
      </trkpt>
      <trkpt lat="43.44115" lon="-0.58862">
        <ele>155.922952</ele>
        <time>2011-03-22T13:25:47Z</time>
      </trkpt>
      <trkpt lat="43.44104" lon="-0.58846">
        <ele>156.344488</ele>
        <time>2011-03-22T13:25:50Z</time>
      </trkpt>
      <trkpt lat="43.44096" lon="-0.58836">
        <ele>156.460067</ele>
        <time>2011-03-22T13:25:52Z</time>
      </trkpt>
      <trkpt lat="43.44088" lon="-0.58826">
        <ele>156.426884</ele>
        <time>2011-03-22T13:25:54Z</time>
      </trkpt>
      <trkpt lat="43.44076" lon="-0.58811">
        <ele>156.369006</ele>
        <time>2011-03-22T13:25:57Z</time>
      </trkpt>
      <trkpt lat="43.44063" lon="-0.58797">
        <ele>156.334942</ele>
        <time>2011-03-22T13:26:00Z</time>
      </trkpt>
      <trkpt lat="43.4405" lon="-0.58782">
        <ele>156.325817</ele>
        <time>2011-03-22T13:26:03Z</time>
      </trkpt>
      <trkpt lat="43.44037" lon="-0.58767">
        <ele>156.328662</ele>
        <time>2011-03-22T13:26:06Z</time>
      </trkpt>
      <trkpt lat="43.44025" lon="-0.58754">
        <ele>156.333401</ele>
        <time>2011-03-22T13:26:09Z</time>
      </trkpt>
      <trkpt lat="43.44013" lon="-0.58742">
        <ele>156.336153</ele>
        <time>2011-03-22T13:26:12Z</time>
      </trkpt>
      <trkpt lat="43.44002" lon="-0.5873">
        <ele>156.336871</ele>
        <time>2011-03-22T13:26:15Z</time>
      </trkpt>
      <trkpt lat="43.43997" lon="-0.5872">
        <ele>156.198446</ele>
        <time>2011-03-22T13:26:18Z</time>
      </trkpt>
      <trkpt lat="43.43993" lon="-0.58708">
        <ele>155.838164</ele>
        <time>2011-03-22T13:26:21Z</time>
      </trkpt>
      <trkpt lat="43.43993" lon="-0.58708">
        <ele>155.468505</ele>
        <time>2011-03-22T13:26:23Z</time>
      </trkpt>
      <trkpt lat="43.44014" lon="-0.58677">
        <ele>155.293186</ele>
        <time>2011-03-22T13:26:33Z</time>
      </trkpt>
      <trkpt lat="43.44026" lon="-0.58662">
        <ele>155.266676</ele>
        <time>2011-03-22T13:26:36Z</time>
      </trkpt>
      <trkpt lat="43.4404" lon="-0.58648">
        <ele>155.341194</ele>
        <time>2011-03-22T13:26:39Z</time>
      </trkpt>
      <trkpt lat="43.44052" lon="-0.58629">
        <ele>155.719139</ele>
        <time>2011-03-22T13:26:42Z</time>
      </trkpt>
      <trkpt lat="43.44057" lon="-0.58609">
        <ele>156.456269</ele>
        <time>2011-03-22T13:26:45Z</time>
      </trkpt>
      <trkpt lat="43.44053" lon="-0.58592">
        <ele>157.134825</ele>
        <time>2011-03-22T13:26:48Z</time>
      </trkpt>
      <trkpt lat="43.44047" lon="-0.58581">
        <ele>157.435067</ele>
        <time>2011-03-22T13:26:50Z</time>
      </trkpt>
      <trkpt lat="43.44039" lon="-0.58566">
        <ele>157.467488</ele>
        <time>2011-03-22T13:26:53Z</time>
      </trkpt>
      <trkpt lat="43.44034" lon="-0.58556">
        <ele>157.129973</ele>
        <time>2011-03-22T13:26:55Z</time>
      </trkpt>
      <trkpt lat="43.44025" lon="-0.58542">
        <ele>156.355012</ele>
        <time>2011-03-22T13:26:58Z</time>
      </trkpt>
      <trkpt lat="43.44017" lon="-0.58527">
        <ele>155.453936</ele>
        <time>2011-03-22T13:27:01Z</time>
      </trkpt>
      <trkpt lat="43.44011" lon="-0.58517">
        <ele>154.741182</ele>
        <time>2011-03-22T13:27:03Z</time>
      </trkpt>
      <trkpt lat="43.44005" lon="-0.58502">
        <ele>154.185609</ele>
        <time>2011-03-22T13:27:06Z</time>
      </trkpt>
      <trkpt lat="43.43998" lon="-0.58486">
        <ele>153.714946</ele>
        <time>2011-03-22T13:27:09Z</time>
      </trkpt>
      <trkpt lat="43.43994" lon="-0.58469">
        <ele>153.381151</ele>
        <time>2011-03-22T13:27:12Z</time>
      </trkpt>
      <trkpt lat="43.43989" lon="-0.58453">
        <ele>153.264251</ele>
        <time>2011-03-22T13:27:15Z</time>
      </trkpt>
      <trkpt lat="43.43983" lon="-0.58436">
        <ele>153.409635</ele>
        <time>2011-03-22T13:27:18Z</time>
      </trkpt>
      <trkpt lat="43.43981" lon="-0.58419">
        <ele>153.808266</ele>
        <time>2011-03-22T13:27:21Z</time>
      </trkpt>
      <trkpt lat="43.43979" lon="-0.58402">
        <ele>154.342974</ele>
        <time>2011-03-22T13:27:24Z</time>
      </trkpt>
      <trkpt lat="43.43975" lon="-0.58386">
        <ele>154.887484</ele>
        <time>2011-03-22T13:27:27Z</time>
      </trkpt>
      <trkpt lat="43.43972" lon="-0.58368">
        <ele>155.282787</ele>
        <time>2011-03-22T13:27:30Z</time>
      </trkpt>
      <trkpt lat="43.43968" lon="-0.5835">
        <ele>155.424923</ele>
        <time>2011-03-22T13:27:33Z</time>
      </trkpt>
      <trkpt lat="43.43965" lon="-0.58334">
        <ele>155.419197</ele>
        <time>2011-03-22T13:27:36Z</time>
      </trkpt>
      <trkpt lat="43.43961" lon="-0.58318">
        <ele>155.650774</ele>
        <time>2011-03-22T13:27:39Z</time>
      </trkpt>
      <trkpt lat="43.43953" lon="-0.58305">
        <ele>156.47672</ele>
        <time>2011-03-22T13:27:42Z</time>
      </trkpt>
      <trkpt lat="43.43947" lon="-0.58291">
        <ele>157.564189</ele>
        <time>2011-03-22T13:27:45Z</time>
      </trkpt>
      <trkpt lat="43.4394" lon="-0.58275">
        <ele>158.2848</ele>
        <time>2011-03-22T13:27:48Z</time>
      </trkpt>
      <trkpt lat="43.43934" lon="-0.58259">
        <ele>158.516848</ele>
        <time>2011-03-22T13:27:51Z</time>
      </trkpt>
      <trkpt lat="43.43927" lon="-0.58242">
        <ele>158.486033</ele>
        <time>2011-03-22T13:27:54Z</time>
      </trkpt>
      <trkpt lat="43.4392" lon="-0.58225">
        <ele>158.534934</ele>
        <time>2011-03-22T13:27:57Z</time>
      </trkpt>
      <trkpt lat="43.43914" lon="-0.58209">
        <ele>158.974666</ele>
        <time>2011-03-22T13:28:00Z</time>
      </trkpt>
      <trkpt lat="43.43907" lon="-0.58193">
        <ele>159.685577</ele>
        <time>2011-03-22T13:28:03Z</time>
      </trkpt>
      <trkpt lat="43.439" lon="-0.58176">
        <ele>160.371239</ele>
        <time>2011-03-22T13:28:06Z</time>
      </trkpt>
      <trkpt lat="43.43892" lon="-0.58158">
        <ele>160.940281</ele>
        <time>2011-03-22T13:28:09Z</time>
      </trkpt>
      <trkpt lat="43.43885" lon="-0.5814">
        <ele>161.449193</ele>
        <time>2011-03-22T13:28:12Z</time>
      </trkpt>
      <trkpt lat="43.43876" lon="-0.58121">
        <ele>161.925747</ele>
        <time>2011-03-22T13:28:15Z</time>
      </trkpt>
      <trkpt lat="43.43868" lon="-0.58102">
        <ele>162.27729</ele>
        <time>2011-03-22T13:28:18Z</time>
      </trkpt>
      <trkpt lat="43.4386" lon="-0.58084">
        <ele>162.405862</ele>
        <time>2011-03-22T13:28:21Z</time>
      </trkpt>
      <trkpt lat="43.43851" lon="-0.58065">
        <ele>162.402382</ele>
        <time>2011-03-22T13:28:24Z</time>
      </trkpt>
      <trkpt lat="43.43842" lon="-0.58048">
        <ele>162.224973</ele>
        <time>2011-03-22T13:28:27Z</time>
      </trkpt>
      <trkpt lat="43.43834" lon="-0.58031">
        <ele>161.836606</ele>
        <time>2011-03-22T13:28:30Z</time>
      </trkpt>
      <trkpt lat="43.43828" lon="-0.58013">
        <ele>161.318781</ele>
        <time>2011-03-22T13:28:33Z</time>
      </trkpt>
      <trkpt lat="43.43821" lon="-0.57996">
        <ele>160.784074</ele>
        <time>2011-03-22T13:28:36Z</time>
      </trkpt>
      <trkpt lat="43.43816" lon="-0.57985">
        <ele>160.253199</ele>
        <time>2011-03-22T13:28:38Z</time>
      </trkpt>
      <trkpt lat="43.43809" lon="-0.5797">
        <ele>159.750393</ele>
        <time>2011-03-22T13:28:41Z</time>
      </trkpt>
      <trkpt lat="43.43805" lon="-0.57959">
        <ele>159.385399</ele>
        <time>2011-03-22T13:28:43Z</time>
      </trkpt>
      <trkpt lat="43.438" lon="-0.57948">
        <ele>159.254196</ele>
        <time>2011-03-22T13:28:45Z</time>
      </trkpt>
      <trkpt lat="43.43794" lon="-0.5793">
        <ele>159.259534</ele>
        <time>2011-03-22T13:28:48Z</time>
      </trkpt>
      <trkpt lat="43.4379" lon="-0.57911">
        <ele>159.30094</ele>
        <time>2011-03-22T13:28:51Z</time>
      </trkpt>
      <trkpt lat="43.43787" lon="-0.57894">
        <ele>159.330565</ele>
        <time>2011-03-22T13:28:54Z</time>
      </trkpt>
      <trkpt lat="43.43786" lon="-0.57876">
        <ele>159.341059</ele>
        <time>2011-03-22T13:28:57Z</time>
      </trkpt>
      <trkpt lat="43.43783" lon="-0.57863">
        <ele>159.340527</ele>
        <time>2011-03-22T13:28:59Z</time>
      </trkpt>
      <trkpt lat="43.43778" lon="-0.57843">
        <ele>159.337162</ele>
        <time>2011-03-22T13:29:02Z</time>
      </trkpt>
      <trkpt lat="43.43774" lon="-0.57824">
        <ele>159.334808</ele>
        <time>2011-03-22T13:29:05Z</time>
      </trkpt>
      <trkpt lat="43.43766" lon="-0.57808">
        <ele>159.334022</ele>
        <time>2011-03-22T13:29:08Z</time>
      </trkpt>
      <trkpt lat="43.43759" lon="-0.57792">
        <ele>159.334124</ele>
        <time>2011-03-22T13:29:11Z</time>
      </trkpt>
      <trkpt lat="43.43753" lon="-0.57776">
        <ele>159.334441</ele>
        <time>2011-03-22T13:29:14Z</time>
      </trkpt>
      <trkpt lat="43.43748" lon="-0.57766">
        <ele>159.334657</ele>
        <time>2011-03-22T13:29:16Z</time>
      </trkpt>
      <trkpt lat="43.43741" lon="-0.57748">
        <ele>159.334736</ele>
        <time>2011-03-22T13:29:19Z</time>
      </trkpt>
      <trkpt lat="43.43737" lon="-0.57736">
        <ele>159.334749</ele>
        <time>2011-03-22T13:29:21Z</time>
      </trkpt>
      <trkpt lat="43.43732" lon="-0.57715">
        <ele>159.334753</ele>
        <time>2011-03-22T13:29:24Z</time>
      </trkpt>
      <trkpt lat="43.43728" lon="-0.57695">
        <ele>159.334771</ele>
        <time>2011-03-22T13:29:27Z</time>
      </trkpt>
      <trkpt lat="43.43725" lon="-0.57682">
        <ele>159.334825</ele>
        <time>2011-03-22T13:29:29Z</time>
      </trkpt>
      <trkpt lat="43.43722" lon="-0.57663">
        <ele>159.334908</ele>
        <time>2011-03-22T13:29:32Z</time>
      </trkpt>
      <trkpt lat="43.43724" lon="-0.5765">
        <ele>159.47314</ele>
        <time>2011-03-22T13:29:34Z</time>
      </trkpt>
      <trkpt lat="43.43732" lon="-0.57633">
        <ele>159.833026</ele>
        <time>2011-03-22T13:29:37Z</time>
      </trkpt>
      <trkpt lat="43.43737" lon="-0.57623">
        <ele>160.478811</ele>
        <time>2011-03-22T13:29:39Z</time>
      </trkpt>
      <trkpt lat="43.43745" lon="-0.57606">
        <ele>161.512083</ele>
        <time>2011-03-22T13:29:42Z</time>
      </trkpt>
      <trkpt lat="43.43752" lon="-0.57588">
        <ele>162.775636</ele>
        <time>2011-03-22T13:29:45Z</time>
      </trkpt>
      <trkpt lat="43.43758" lon="-0.57571">
        <ele>163.963763</ele>
        <time>2011-03-22T13:29:48Z</time>
      </trkpt>
      <trkpt lat="43.43764" lon="-0.57555">
        <ele>165.029564</ele>
        <time>2011-03-22T13:29:51Z</time>
      </trkpt>
      <trkpt lat="43.43768" lon="-0.57544">
        <ele>166.024873</ele>
        <time>2011-03-22T13:29:53Z</time>
      </trkpt>
      <trkpt lat="43.43774" lon="-0.57527">
        <ele>166.863855</ele>
        <time>2011-03-22T13:29:56Z</time>
      </trkpt>
      <trkpt lat="43.4378" lon="-0.57511">
        <ele>167.349366</ele>
        <time>2011-03-22T13:29:59Z</time>
      </trkpt>
      <trkpt lat="43.43786" lon="-0.57495">
        <ele>167.475422</ele>
        <time>2011-03-22T13:30:02Z</time>
      </trkpt>
      <trkpt lat="43.43792" lon="-0.5748">
        <ele>167.431878</ele>
        <time>2011-03-22T13:30:05Z</time>
      </trkpt>
      <trkpt lat="43.43798" lon="-0.57465">
        <ele>167.225082</ele>
        <time>2011-03-22T13:30:08Z</time>
      </trkpt>
      <trkpt lat="43.43805" lon="-0.57449">
        <ele>166.687943</ele>
        <time>2011-03-22T13:30:11Z</time>
      </trkpt>
      <trkpt lat="43.43813" lon="-0.57435">
        <ele>165.948912</ele>
        <time>2011-03-22T13:30:14Z</time>
      </trkpt>
      <trkpt lat="43.4382" lon="-0.57421">
        <ele>165.408095</ele>
        <time>2011-03-22T13:30:17Z</time>
      </trkpt>
      <trkpt lat="43.43828" lon="-0.57408">
        <ele>165.211986</ele>
        <time>2011-03-22T13:30:20Z</time>
      </trkpt>
      <trkpt lat="43.43836" lon="-0.57395">
        <ele>165.218621</ele>
        <time>2011-03-22T13:30:23Z</time>
      </trkpt>
      <trkpt lat="43.43844" lon="-0.57385">
        <ele>165.279519</ele>
        <time>2011-03-22T13:30:26Z</time>
      </trkpt>
      <trkpt lat="43.43851" lon="-0.57375">
        <ele>165.323464</ele>
        <time>2011-03-22T13:30:29Z</time>
      </trkpt>
      <trkpt lat="43.43858" lon="-0.57366">
        <ele>165.3392</ele>
        <time>2011-03-22T13:30:32Z</time>
      </trkpt>
      <trkpt lat="43.43865" lon="-0.57357">
        <ele>165.338554</ele>
        <time>2011-03-22T13:30:36Z</time>
      </trkpt>
      <trkpt lat="43.43865" lon="-0.57357">
        <ele>165.333614</ele>
        <time>2011-03-22T13:30:38Z</time>
      </trkpt>
      <trkpt lat="43.43855" lon="-0.57341">
        <ele>165.468281</ele>
        <time>2011-03-22T13:30:59Z</time>
      </trkpt>
      <trkpt lat="43.43849" lon="-0.57327">
        <ele>165.965142</ele>
        <time>2011-03-22T13:31:02Z</time>
      </trkpt>
      <trkpt lat="43.43842" lon="-0.5731">
        <ele>167.109126</ele>
        <time>2011-03-22T13:31:05Z</time>
      </trkpt>
      <trkpt lat="43.43834" lon="-0.57293">
        <ele>168.872141</ele>
        <time>2011-03-22T13:31:08Z</time>
      </trkpt>
      <trkpt lat="43.43829" lon="-0.5728">
        <ele>170.680635</ele>
        <time>2011-03-22T13:31:10Z</time>
      </trkpt>
      <trkpt lat="43.43822" lon="-0.57263">
        <ele>171.932412</ele>
        <time>2011-03-22T13:31:13Z</time>
      </trkpt>
      <trkpt lat="43.43815" lon="-0.57249">
        <ele>172.496615</ele>
        <time>2011-03-22T13:31:16Z</time>
      </trkpt>
      <trkpt lat="43.43808" lon="-0.57235">
        <ele>172.564235</ele>
        <time>2011-03-22T13:31:19Z</time>
      </trkpt>
      <trkpt lat="43.43801" lon="-0.57223">
        <ele>172.454342</ele>
        <time>2011-03-22T13:31:22Z</time>
      </trkpt>
      <trkpt lat="43.43793" lon="-0.57211">
        <ele>172.352454</ele>
        <time>2011-03-22T13:31:25Z</time>
      </trkpt>
      <trkpt lat="43.43785" lon="-0.57199">
        <ele>172.30716</ele>
        <time>2011-03-22T13:31:28Z</time>
      </trkpt>
      <trkpt lat="43.43777" lon="-0.57186">
        <ele>172.302139</ele>
        <time>2011-03-22T13:31:31Z</time>
      </trkpt>
      <trkpt lat="43.43769" lon="-0.57173">
        <ele>172.449454</ele>
        <time>2011-03-22T13:31:34Z</time>
      </trkpt>
      <trkpt lat="43.43761" lon="-0.5716">
        <ele>172.817652</ele>
        <time>2011-03-22T13:31:37Z</time>
      </trkpt>
      <trkpt lat="43.43753" lon="-0.57145">
        <ele>173.328913</ele>
        <time>2011-03-22T13:31:40Z</time>
      </trkpt>
      <trkpt lat="43.43746" lon="-0.5713">
        <ele>174.002626</ele>
        <time>2011-03-22T13:31:43Z</time>
      </trkpt>
      <trkpt lat="43.43739" lon="-0.57114">
        <ele>175.17227</ele>
        <time>2011-03-22T13:31:46Z</time>
      </trkpt>
      <trkpt lat="43.43734" lon="-0.57099">
        <ele>176.904171</ele>
        <time>2011-03-22T13:31:49Z</time>
      </trkpt>
      <trkpt lat="43.43729" lon="-0.57087">
        <ele>178.543775</ele>
        <time>2011-03-22T13:31:52Z</time>
      </trkpt>
      <trkpt lat="43.43725" lon="-0.57076">
        <ele>179.421434</ele>
        <time>2011-03-22T13:31:55Z</time>
      </trkpt>
      <trkpt lat="43.43722" lon="-0.57064">
        <ele>179.614256</ele>
        <time>2011-03-22T13:31:58Z</time>
      </trkpt>
      <trkpt lat="43.43719" lon="-0.57048">
        <ele>179.509201</ele>
        <time>2011-03-22T13:32:02Z</time>
      </trkpt>
      <trkpt lat="43.43716" lon="-0.57032">
        <ele>179.375277</ele>
        <time>2011-03-22T13:32:06Z</time>
      </trkpt>
      <trkpt lat="43.43715" lon="-0.5702">
        <ele>179.304517</ele>
        <time>2011-03-22T13:32:09Z</time>
      </trkpt>
      <trkpt lat="43.43713" lon="-0.57004">
        <ele>179.289479</ele>
        <time>2011-03-22T13:32:12Z</time>
      </trkpt>
      <trkpt lat="43.43711" lon="-0.5699">
        <ele>179.436531</ele>
        <time>2011-03-22T13:32:15Z</time>
      </trkpt>
      <trkpt lat="43.43708" lon="-0.56974">
        <ele>179.807404</ele>
        <time>2011-03-22T13:32:18Z</time>
      </trkpt>
      <trkpt lat="43.43707" lon="-0.56958">
        <ele>180.182609</ele>
        <time>2011-03-22T13:32:21Z</time>
      </trkpt>
      <trkpt lat="43.43705" lon="-0.56941">
        <ele>180.359139</ele>
        <time>2011-03-22T13:32:24Z</time>
      </trkpt>
      <trkpt lat="43.43704" lon="-0.56919">
        <ele>180.385028</ele>
        <time>2011-03-22T13:32:27Z</time>
      </trkpt>
      <trkpt lat="43.43703" lon="-0.56902">
        <ele>180.35423</ele>
        <time>2011-03-22T13:32:30Z</time>
      </trkpt>
      <trkpt lat="43.43701" lon="-0.56885">
        <ele>180.323718</ele>
        <time>2011-03-22T13:32:33Z</time>
      </trkpt>
      <trkpt lat="43.43699" lon="-0.56869">
        <ele>180.309557</ele>
        <time>2011-03-22T13:32:36Z</time>
      </trkpt>
      <trkpt lat="43.43697" lon="-0.56854">
        <ele>180.307601</ele>
        <time>2011-03-22T13:32:39Z</time>
      </trkpt>
      <trkpt lat="43.43693" lon="-0.56839">
        <ele>180.310173</ele>
        <time>2011-03-22T13:32:42Z</time>
      </trkpt>
      <trkpt lat="43.43688" lon="-0.56823">
        <ele>180.312684</ele>
        <time>2011-03-22T13:32:45Z</time>
      </trkpt>
      <trkpt lat="43.43682" lon="-0.56809">
        <ele>180.313864</ele>
        <time>2011-03-22T13:32:47Z</time>
      </trkpt>
      <trkpt lat="43.43677" lon="-0.56793">
        <ele>180.314057</ele>
        <time>2011-03-22T13:32:50Z</time>
      </trkpt>
      <trkpt lat="43.4367" lon="-0.56781">
        <ele>180.313885</ele>
        <time>2011-03-22T13:32:52Z</time>
      </trkpt>
      <trkpt lat="43.43665" lon="-0.56765">
        <ele>180.313719</ele>
        <time>2011-03-22T13:32:55Z</time>
      </trkpt>
      <trkpt lat="43.43656" lon="-0.56752">
        <ele>180.313658</ele>
        <time>2011-03-22T13:32:58Z</time>
      </trkpt>
      <trkpt lat="43.43649" lon="-0.56744">
        <ele>180.313674</ele>
        <time>2011-03-22T13:33:00Z</time>
      </trkpt>
      <trkpt lat="43.43639" lon="-0.56733">
        <ele>180.313708</ele>
        <time>2011-03-22T13:33:03Z</time>
      </trkpt>
      <trkpt lat="43.43631" lon="-0.56724">
        <ele>180.313731</ele>
        <time>2011-03-22T13:33:06Z</time>
      </trkpt>
      <trkpt lat="43.43609" lon="-0.56756">
        <ele>180.313739</ele>
        <time>2011-03-22T13:33:09Z</time>
      </trkpt>
      <trkpt lat="43.43598" lon="-0.5677">
        <ele>180.313714</ele>
        <time>2011-03-22T13:33:11Z</time>
      </trkpt>
      <trkpt lat="43.43584" lon="-0.56788">
        <ele>180.313637</ele>
        <time>2011-03-22T13:33:14Z</time>
      </trkpt>
      <trkpt lat="43.43574" lon="-0.56793">
        <ele>180.313538</ele>
        <time>2011-03-22T13:33:17Z</time>
      </trkpt>
      <trkpt lat="43.43565" lon="-0.56793">
        <ele>180.313471</ele>
        <time>2011-03-22T13:33:23Z</time>
      </trkpt>
      <trkpt lat="43.43565" lon="-0.56793">
        <ele>180.31345</ele>
        <time>2011-03-22T13:33:24Z</time>
      </trkpt>
      <trkpt lat="43.4355" lon="-0.56778">
        <ele>180.313466</ele>
        <time>2011-03-22T13:33:30Z</time>
      </trkpt>
      <trkpt lat="43.43543" lon="-0.56767">
        <ele>180.451642</ele>
        <time>2011-03-22T13:33:32Z</time>
      </trkpt>
      <trkpt lat="43.43536" lon="-0.56757">
        <ele>180.81146</ele>
        <time>2011-03-22T13:33:34Z</time>
      </trkpt>
      <trkpt lat="43.43525" lon="-0.5674">
        <ele>181.180795</ele>
        <time>2011-03-22T13:33:37Z</time>
      </trkpt>
      <trkpt lat="43.43526" lon="-0.56724">
        <ele>181.356004</ele>
        <time>2011-03-22T13:33:40Z</time>
      </trkpt>
      <trkpt lat="43.43524" lon="-0.56708">
        <ele>181.382524</ele>
        <time>2011-03-22T13:33:43Z</time>
      </trkpt>
      <trkpt lat="43.43521" lon="-0.56692">
        <ele>181.352547</ele>
        <time>2011-03-22T13:33:46Z</time>
      </trkpt>
      <trkpt lat="43.43516" lon="-0.56679">
        <ele>181.598817</ele>
        <time>2011-03-22T13:33:50Z</time>
      </trkpt>
      <trkpt lat="43.43513" lon="-0.56667">
        <ele>182.44272</ele>
        <time>2011-03-22T13:33:53Z</time>
      </trkpt>
      <trkpt lat="43.43509" lon="-0.56655">
        <ele>183.677688</ele>
        <time>2011-03-22T13:33:56Z</time>
      </trkpt>
      <trkpt lat="43.43503" lon="-0.56643">
        <ele>184.760078</ele>
        <time>2011-03-22T13:33:59Z</time>
      </trkpt>
      <trkpt lat="43.43498" lon="-0.56629">
        <ele>185.360313</ele>
        <time>2011-03-22T13:34:02Z</time>
      </trkpt>
      <trkpt lat="43.43491" lon="-0.56614">
        <ele>185.503271</ele>
        <time>2011-03-22T13:34:05Z</time>
      </trkpt>
      <trkpt lat="43.43486" lon="-0.56598">
        <ele>185.301586</ele>
        <time>2011-03-22T13:34:08Z</time>
      </trkpt>
      <trkpt lat="43.43479" lon="-0.5658">
        <ele>184.715062</ele>
        <time>2011-03-22T13:34:11Z</time>
      </trkpt>
      <trkpt lat="43.43471" lon="-0.56563">
        <ele>183.937344</ele>
        <time>2011-03-22T13:34:14Z</time>
      </trkpt>
      <trkpt lat="43.4346" lon="-0.56554">
        <ele>183.381463</ele>
        <time>2011-03-22T13:34:17Z</time>
      </trkpt>
      <trkpt lat="43.4345" lon="-0.56561">
        <ele>183.046872</ele>
        <time>2011-03-22T13:34:20Z</time>
      </trkpt>
      <trkpt lat="43.4344" lon="-0.56572">
        <ele>182.559509</ele>
        <time>2011-03-22T13:34:23Z</time>
      </trkpt>
      <trkpt lat="43.43426" lon="-0.56587">
        <ele>181.756036</ele>
        <time>2011-03-22T13:34:26Z</time>
      </trkpt>
      <trkpt lat="43.4341" lon="-0.56604">
        <ele>180.896541</ele>
        <time>2011-03-22T13:34:29Z</time>
      </trkpt>
      <trkpt lat="43.43394" lon="-0.56621">
        <ele>180.34095</ele>
        <time>2011-03-22T13:34:32Z</time>
      </trkpt>
      <trkpt lat="43.43375" lon="-0.56643">
        <ele>180.168006</ele>
        <time>2011-03-22T13:34:35Z</time>
      </trkpt>
      <trkpt lat="43.43361" lon="-0.56659">
        <ele>180.1962</ele>
        <time>2011-03-22T13:34:37Z</time>
      </trkpt>
      <trkpt lat="43.43344" lon="-0.56673">
        <ele>180.26663</ele>
        <time>2011-03-22T13:34:39Z</time>
      </trkpt>
      <trkpt lat="43.43327" lon="-0.56684">
        <ele>180.311541</ele>
        <time>2011-03-22T13:34:41Z</time>
      </trkpt>
      <trkpt lat="43.43304" lon="-0.56702">
        <ele>180.325245</ele>
        <time>2011-03-22T13:34:44Z</time>
      </trkpt>
      <trkpt lat="43.43283" lon="-0.56722">
        <ele>180.599038</ele>
        <time>2011-03-22T13:34:47Z</time>
      </trkpt>
      <trkpt lat="43.43263" lon="-0.56741">
        <ele>181.589132</ele>
        <time>2011-03-22T13:34:50Z</time>
      </trkpt>
      <trkpt lat="43.43244" lon="-0.56757">
        <ele>183.04375</ele>
        <time>2011-03-22T13:34:53Z</time>
      </trkpt>
      <trkpt lat="43.43225" lon="-0.56772">
        <ele>184.131749</ele>
        <time>2011-03-22T13:34:56Z</time>
      </trkpt>
      <trkpt lat="43.43207" lon="-0.56787">
        <ele>184.535434</ele>
        <time>2011-03-22T13:34:59Z</time>
      </trkpt>
      <trkpt lat="43.43193" lon="-0.56789">
        <ele>184.528978</ele>
        <time>2011-03-22T13:35:02Z</time>
      </trkpt>
      <trkpt lat="43.43193" lon="-0.56789">
        <ele>184.409068</ele>
        <time>2011-03-22T13:35:04Z</time>
      </trkpt>
      <trkpt lat="43.43176" lon="-0.56794">
        <ele>184.320702</ele>
        <time>2011-03-22T13:35:10Z</time>
      </trkpt>
      <trkpt lat="43.43166" lon="-0.56799">
        <ele>184.150189</ele>
        <time>2011-03-22T13:35:13Z</time>
      </trkpt>
      <trkpt lat="43.43156" lon="-0.56806">
        <ele>183.65292</ele>
        <time>2011-03-22T13:35:16Z</time>
      </trkpt>
      <trkpt lat="43.43144" lon="-0.5681">
        <ele>182.933362</ele>
        <time>2011-03-22T13:35:19Z</time>
      </trkpt>
      <trkpt lat="43.43133" lon="-0.56813">
        <ele>182.257566</ele>
        <time>2011-03-22T13:35:22Z</time>
      </trkpt>
      <trkpt lat="43.43122" lon="-0.56811">
        <ele>181.422027</ele>
        <time>2011-03-22T13:35:25Z</time>
      </trkpt>
      <trkpt lat="43.43115" lon="-0.56802">
        <ele>180.197915</ele>
        <time>2011-03-22T13:35:28Z</time>
      </trkpt>
      <trkpt lat="43.4311" lon="-0.56788">
        <ele>178.983112</ele>
        <time>2011-03-22T13:35:32Z</time>
      </trkpt>
      <trkpt lat="43.4311" lon="-0.56788">
        <ele>178.280196</ele>
        <time>2011-03-22T13:35:36Z</time>
      </trkpt>
      <trkpt lat="43.4311" lon="-0.56737">
        <ele>178.097744</ele>
        <time>2011-03-22T13:35:47Z</time>
      </trkpt>
      <trkpt lat="43.43109" lon="-0.56721">
        <ele>178.160823</ele>
        <time>2011-03-22T13:35:50Z</time>
      </trkpt>
      <trkpt lat="43.43109" lon="-0.56721">
        <ele>178.210742</ele>
        <time>2011-03-22T13:35:52Z</time>
      </trkpt>
      <trkpt lat="43.43106" lon="-0.56694">
        <ele>178.252227</ele>
        <time>2011-03-22T13:35:56Z</time>
      </trkpt>
      <trkpt lat="43.43105" lon="-0.5668">
        <ele>178.504273</ele>
        <time>2011-03-22T13:35:59Z</time>
      </trkpt>
      <trkpt lat="43.43105" lon="-0.56664">
        <ele>179.071024</ele>
        <time>2011-03-22T13:36:03Z</time>
      </trkpt>
      <trkpt lat="43.43105" lon="-0.56648">
        <ele>180.031834</ele>
        <time>2011-03-22T13:36:07Z</time>
      </trkpt>
      <trkpt lat="43.43104" lon="-0.56632">
        <ele>181.381214</ele>
        <time>2011-03-22T13:36:11Z</time>
      </trkpt>
      <trkpt lat="43.43103" lon="-0.56618">
        <ele>182.654519</ele>
        <time>2011-03-22T13:36:14Z</time>
      </trkpt>
      <trkpt lat="43.43102" lon="-0.56602">
        <ele>183.365731</ele>
        <time>2011-03-22T13:36:17Z</time>
      </trkpt>
      <trkpt lat="43.43101" lon="-0.56587">
        <ele>183.537761</ele>
        <time>2011-03-22T13:36:20Z</time>
      </trkpt>
      <trkpt lat="43.43102" lon="-0.56573">
        <ele>183.464503</ele>
        <time>2011-03-22T13:36:23Z</time>
      </trkpt>
      <trkpt lat="43.43102" lon="-0.56556">
        <ele>183.360422</ele>
        <time>2011-03-22T13:36:26Z</time>
      </trkpt>
      <trkpt lat="43.43102" lon="-0.56556">
        <ele>183.303037</ele>
        <time>2011-03-22T13:36:30Z</time>
      </trkpt>
      <trkpt lat="43.43102" lon="-0.56556">
        <ele>183.267551</ele>
        <time>2011-03-22T13:36:58Z</time>
      </trkpt>
      <trkpt lat="43.43103" lon="-0.56523">
        <ele>183.208553</ele>
        <time>2011-03-22T13:39:28Z</time>
      </trkpt>
      <trkpt lat="43.43103" lon="-0.56523">
        <ele>183.13762</ele>
        <time>2011-03-22T13:39:29Z</time>
      </trkpt>
      <trkpt lat="43.43103" lon="-0.56523">
        <ele>183.080106</ele>
        <time>2011-03-22T13:39:29Z</time>
      </trkpt>
      <trkpt lat="43.43101" lon="-0.56508">
        <ele>183.02308</ele>
        <time>2011-03-22T13:39:31Z</time>
      </trkpt>
      <trkpt lat="43.43098" lon="-0.56494">
        <ele>182.965372</ele>
        <time>2011-03-22T13:39:34Z</time>
      </trkpt>
      <trkpt lat="43.43096" lon="-0.56479">
        <ele>181.184937</ele>
        <time>2011-03-22T13:39:38Z</time>
      </trkpt>
      <trkpt lat="43.43093" lon="-0.56467">
        <ele>176.494414</ele>
        <time>2011-03-22T13:39:41Z</time>
      </trkpt>
      <trkpt lat="43.43093" lon="-0.56467">
        <ele>171.47512</ele>
        <time>2011-03-22T13:39:44Z</time>
      </trkpt>
      <trkpt lat="43.43085" lon="-0.56428">
        <ele>168.760875</ele>
        <time>2011-03-22T13:39:53Z</time>
      </trkpt>
      <trkpt lat="43.43083" lon="-0.56411">
        <ele>167.893999</ele>
        <time>2011-03-22T13:39:56Z</time>
      </trkpt>
      <trkpt lat="43.43082" lon="-0.56396">
        <ele>167.877322</ele>
        <time>2011-03-22T13:39:59Z</time>
      </trkpt>
      <trkpt lat="43.4308" lon="-0.5638">
        <ele>168.111799</ele>
        <time>2011-03-22T13:40:02Z</time>
      </trkpt>
      <trkpt lat="43.43078" lon="-0.56364">
        <ele>168.292922</ele>
        <time>2011-03-22T13:40:05Z</time>
      </trkpt>
      <trkpt lat="43.43076" lon="-0.56349">
        <ele>168.362355</ele>
        <time>2011-03-22T13:40:08Z</time>
      </trkpt>
      <trkpt lat="43.43073" lon="-0.56335">
        <ele>168.362979</ele>
        <time>2011-03-22T13:40:11Z</time>
      </trkpt>
      <trkpt lat="43.4307" lon="-0.5632">
        <ele>168.481857</ele>
        <time>2011-03-22T13:40:14Z</time>
      </trkpt>
      <trkpt lat="43.43067" lon="-0.56306">
        <ele>168.827076</ele>
        <time>2011-03-22T13:40:17Z</time>
      </trkpt>
      <trkpt lat="43.43064" lon="-0.56293">
        <ele>169.190998</ele>
        <time>2011-03-22T13:40:19Z</time>
      </trkpt>
      <trkpt lat="43.43061" lon="-0.56276">
        <ele>169.366314</ele>
        <time>2011-03-22T13:40:22Z</time>
      </trkpt>
      <trkpt lat="43.4306" lon="-0.56261">
        <ele>169.532656</ele>
        <time>2011-03-22T13:40:25Z</time>
      </trkpt>
      <trkpt lat="43.43059" lon="-0.56246">
        <ele>169.86379</ele>
        <time>2011-03-22T13:40:28Z</time>
      </trkpt>
      <trkpt lat="43.43059" lon="-0.56232">
        <ele>170.203584</ele>
        <time>2011-03-22T13:40:31Z</time>
      </trkpt>
      <trkpt lat="43.4306" lon="-0.56218">
        <ele>170.364763</ele>
        <time>2011-03-22T13:40:34Z</time>
      </trkpt>
      <trkpt lat="43.43062" lon="-0.56204">
        <ele>170.389172</ele>
        <time>2011-03-22T13:40:37Z</time>
      </trkpt>
      <trkpt lat="43.4306" lon="-0.56189">
        <ele>170.499813</ele>
        <time>2011-03-22T13:40:40Z</time>
      </trkpt>
      <trkpt lat="43.4306" lon="-0.56174">
        <ele>170.832083</ele>
        <time>2011-03-22T13:40:43Z</time>
      </trkpt>
      <trkpt lat="43.43059" lon="-0.5616">
        <ele>171.188629</ele>
        <time>2011-03-22T13:40:46Z</time>
      </trkpt>
      <trkpt lat="43.43056" lon="-0.56146">
        <ele>171.500272</ele>
        <time>2011-03-22T13:40:49Z</time>
      </trkpt>
      <trkpt lat="43.43053" lon="-0.56132">
        <ele>171.889043</ele>
        <time>2011-03-22T13:40:52Z</time>
      </trkpt>
      <trkpt lat="43.43048" lon="-0.56117">
        <ele>172.230795</ele>
        <time>2011-03-22T13:40:55Z</time>
      </trkpt>
      <trkpt lat="43.43043" lon="-0.56104">
        <ele>172.377035</ele>
        <time>2011-03-22T13:40:58Z</time>
      </trkpt>
      <trkpt lat="43.43036" lon="-0.56091">
        <ele>172.389658</ele>
        <time>2011-03-22T13:41:01Z</time>
      </trkpt>
      <trkpt lat="43.43031" lon="-0.56079">
        <ele>172.357511</ele>
        <time>2011-03-22T13:41:04Z</time>
      </trkpt>
      <trkpt lat="43.43027" lon="-0.56068">
        <ele>172.329757</ele>
        <time>2011-03-22T13:41:07Z</time>
      </trkpt>
      <trkpt lat="43.43022" lon="-0.56054">
        <ele>172.318049</ele>
        <time>2011-03-22T13:41:10Z</time>
      </trkpt>
      <trkpt lat="43.43018" lon="-0.56041">
        <ele>172.31715</ele>
        <time>2011-03-22T13:41:13Z</time>
      </trkpt>
      <trkpt lat="43.43013" lon="-0.56027">
        <ele>172.181648</ele>
        <time>2011-03-22T13:41:16Z</time>
      </trkpt>
      <trkpt lat="43.43008" lon="-0.56014">
        <ele>171.824059</ele>
        <time>2011-03-22T13:41:19Z</time>
      </trkpt>
      <trkpt lat="43.43008" lon="-0.56014">
        <ele>171.455614</ele>
        <time>2011-03-22T13:41:22Z</time>
      </trkpt>
      <trkpt lat="43.42994" lon="-0.5602">
        <ele>171.280436</ele>
        <time>2011-03-22T13:41:28Z</time>
      </trkpt>
      <trkpt lat="43.4299" lon="-0.56036">
        <ele>171.253678</ele>
        <time>2011-03-22T13:41:32Z</time>
      </trkpt>
      <trkpt lat="43.42988" lon="-0.56052">
        <ele>171.283464</ele>
        <time>2011-03-22T13:41:36Z</time>
      </trkpt>
      <trkpt lat="43.42991" lon="-0.56067">
        <ele>171.313481</ele>
        <time>2011-03-22T13:41:40Z</time>
      </trkpt>
      <trkpt lat="43.42995" lon="-0.56081">
        <ele>171.327548</ele>
        <time>2011-03-22T13:41:44Z</time>
      </trkpt>
      <trkpt lat="43.42997" lon="-0.56093">
        <ele>171.191365</ele>
        <time>2011-03-22T13:41:47Z</time>
      </trkpt>
      <trkpt lat="43.42998" lon="-0.56106">
        <ele>170.828939</ele>
        <time>2011-03-22T13:41:50Z</time>
      </trkpt>
      <trkpt lat="43.43003" lon="-0.56119">
        <ele>170.457018</ele>
        <time>2011-03-22T13:41:53Z</time>
      </trkpt>
      <trkpt lat="43.43009" lon="-0.56133">
        <ele>170.280593</ele>
        <time>2011-03-22T13:41:56Z</time>
      </trkpt>
      <trkpt lat="43.43014" lon="-0.56147">
        <ele>170.253877</ele>
        <time>2011-03-22T13:41:59Z</time>
      </trkpt>
      <trkpt lat="43.43021" lon="-0.56166">
        <ele>170.284033</ele>
        <time>2011-03-22T13:42:02Z</time>
      </trkpt>
      <trkpt lat="43.43027" lon="-0.56189">
        <ele>170.314296</ele>
        <time>2011-03-22T13:42:05Z</time>
      </trkpt>
      <trkpt lat="43.43033" lon="-0.56211">
        <ele>170.190267</ele>
        <time>2011-03-22T13:42:08Z</time>
      </trkpt>
      <trkpt lat="43.43037" lon="-0.56226">
        <ele>169.832377</ele>
        <time>2011-03-22T13:42:10Z</time>
      </trkpt>
      <trkpt lat="43.4304" lon="-0.56239">
        <ele>169.460397</ele>
        <time>2011-03-22T13:42:12Z</time>
      </trkpt>
      <trkpt lat="43.43044" lon="-0.56256">
        <ele>169.282625</ele>
        <time>2011-03-22T13:42:15Z</time>
      </trkpt>
      <trkpt lat="43.43049" lon="-0.56275">
        <ele>169.254905</ele>
        <time>2011-03-22T13:42:18Z</time>
      </trkpt>
      <trkpt lat="43.43054" lon="-0.56298">
        <ele>169.146515</ele>
        <time>2011-03-22T13:42:21Z</time>
      </trkpt>
      <trkpt lat="43.43056" lon="-0.56318">
        <ele>168.816903</ele>
        <time>2011-03-22T13:42:23Z</time>
      </trkpt>
      <trkpt lat="43.43056" lon="-0.5634">
        <ele>168.461723</ele>
        <time>2011-03-22T13:42:26Z</time>
      </trkpt>
      <trkpt lat="43.43055" lon="-0.56359">
        <ele>168.288511</ele>
        <time>2011-03-22T13:42:29Z</time>
      </trkpt>
      <trkpt lat="43.43054" lon="-0.56374">
        <ele>168.259418</ele>
        <time>2011-03-22T13:42:31Z</time>
      </trkpt>
      <trkpt lat="43.43054" lon="-0.56388">
        <ele>168.286858</ele>
        <time>2011-03-22T13:42:33Z</time>
      </trkpt>
      <trkpt lat="43.43051" lon="-0.56405">
        <ele>168.315754</ele>
        <time>2011-03-22T13:42:36Z</time>
      </trkpt>
      <trkpt lat="43.43053" lon="-0.56417">
        <ele>168.191469</ele>
        <time>2011-03-22T13:42:38Z</time>
      </trkpt>
      <trkpt lat="43.43056" lon="-0.56435">
        <ele>167.833768</ele>
        <time>2011-03-22T13:42:41Z</time>
      </trkpt>
      <trkpt lat="43.43059" lon="-0.56452">
        <ele>167.461992</ele>
        <time>2011-03-22T13:42:44Z</time>
      </trkpt>
      <trkpt lat="43.43061" lon="-0.56469">
        <ele>167.284316</ele>
        <time>2011-03-22T13:42:47Z</time>
      </trkpt>
      <trkpt lat="43.43058" lon="-0.56485">
        <ele>167.256612</ele>
        <time>2011-03-22T13:42:50Z</time>
      </trkpt>
      <trkpt lat="43.43056" lon="-0.56502">
        <ele>167.148203</ele>
        <time>2011-03-22T13:42:53Z</time>
      </trkpt>
      <trkpt lat="43.43048" lon="-0.56514">
        <ele>166.818564</ele>
        <time>2011-03-22T13:42:56Z</time>
      </trkpt>
      <trkpt lat="43.43042" lon="-0.56532">
        <ele>166.463367</ele>
        <time>2011-03-22T13:42:59Z</time>
      </trkpt>
      <trkpt lat="43.43038" lon="-0.56544">
        <ele>166.151979</ele>
        <time>2011-03-22T13:43:01Z</time>
      </trkpt>
      <trkpt lat="43.43033" lon="-0.56562">
        <ele>165.763006</ele>
        <time>2011-03-22T13:43:04Z</time>
      </trkpt>
      <trkpt lat="43.4303" lon="-0.56574">
        <ele>165.421016</ele>
        <time>2011-03-22T13:43:06Z</time>
      </trkpt>
      <trkpt lat="43.43028" lon="-0.56591">
        <ele>165.274636</ele>
        <time>2011-03-22T13:43:09Z</time>
      </trkpt>
      <trkpt lat="43.43027" lon="-0.56609">
        <ele>165.261964</ele>
        <time>2011-03-22T13:43:12Z</time>
      </trkpt>
      <trkpt lat="43.43029" lon="-0.56622">
        <ele>165.294105</ele>
        <time>2011-03-22T13:43:14Z</time>
      </trkpt>
      <trkpt lat="43.43032" lon="-0.5664">
        <ele>165.183673</ele>
        <time>2011-03-22T13:43:17Z</time>
      </trkpt>
      <trkpt lat="43.43036" lon="-0.56651">
        <ele>164.835455</ele>
        <time>2011-03-22T13:43:21Z</time>
      </trkpt>
      <trkpt lat="43.43039" lon="-0.56666">
        <ele>164.466862</ele>
        <time>2011-03-22T13:43:25Z</time>
      </trkpt>
      <trkpt lat="43.43039" lon="-0.56666">
        <ele>164.281647</ele>
        <time>2011-03-22T13:43:26Z</time>
      </trkpt>
      <trkpt lat="43.43047" lon="-0.56684">
        <ele>164.233971</ele>
        <time>2011-03-22T13:43:30Z</time>
      </trkpt>
      <trkpt lat="43.43055" lon="-0.56709">
        <ele>164.24365</ele>
        <time>2011-03-22T13:43:33Z</time>
      </trkpt>
      <trkpt lat="43.4306" lon="-0.56723">
        <ele>164.264513</ele>
        <time>2011-03-22T13:43:35Z</time>
      </trkpt>
      <trkpt lat="43.43067" lon="-0.56744">
        <ele>164.284649</ele>
        <time>2011-03-22T13:43:38Z</time>
      </trkpt>
      <trkpt lat="43.43072" lon="-0.56768">
        <ele>164.307193</ele>
        <time>2011-03-22T13:43:41Z</time>
      </trkpt>
      <trkpt lat="43.43077" lon="-0.5678">
        <ele>164.32562</ele>
        <time>2011-03-22T13:43:43Z</time>
      </trkpt>
      <trkpt lat="43.43085" lon="-0.56796">
        <ele>164.33307</ele>
        <time>2011-03-22T13:43:46Z</time>
      </trkpt>
      <trkpt lat="43.43093" lon="-0.56811">
        <ele>164.333431</ele>
        <time>2011-03-22T13:43:49Z</time>
      </trkpt>
      <trkpt lat="43.43101" lon="-0.56825">
        <ele>164.33157</ele>
        <time>2011-03-22T13:43:52Z</time>
      </trkpt>
      <trkpt lat="43.43103" lon="-0.5684">
        <ele>164.330052</ele>
        <time>2011-03-22T13:43:55Z</time>
      </trkpt>
      <trkpt lat="43.43105" lon="-0.56855">
        <ele>164.467587</ele>
        <time>2011-03-22T13:43:58Z</time>
      </trkpt>
      <trkpt lat="43.4311" lon="-0.56873">
        <ele>164.827394</ele>
        <time>2011-03-22T13:44:01Z</time>
      </trkpt>
      <trkpt lat="43.43111" lon="-0.56887">
        <ele>165.196945</ele>
        <time>2011-03-22T13:44:03Z</time>
      </trkpt>
      <trkpt lat="43.43111" lon="-0.56904">
        <ele>165.372318</ele>
        <time>2011-03-22T13:44:06Z</time>
      </trkpt>
      <trkpt lat="43.43112" lon="-0.5692">
        <ele>165.398877</ele>
        <time>2011-03-22T13:44:09Z</time>
      </trkpt>
      <trkpt lat="43.43114" lon="-0.56935">
        <ele>165.507009</ele>
        <time>2011-03-22T13:44:12Z</time>
      </trkpt>
      <trkpt lat="43.43118" lon="-0.56946">
        <ele>165.836669</ele>
        <time>2011-03-22T13:44:15Z</time>
      </trkpt>
      <trkpt lat="43.43127" lon="-0.56957">
        <ele>166.19189</ele>
        <time>2011-03-22T13:44:19Z</time>
      </trkpt>
      <trkpt lat="43.43134" lon="-0.56966">
        <ele>166.226909</ele>
        <time>2011-03-22T13:44:22Z</time>
      </trkpt>
      <trkpt lat="43.4314" lon="-0.56977">
        <ele>165.896063</ele>
        <time>2011-03-22T13:44:25Z</time>
      </trkpt>
      <trkpt lat="43.43146" lon="-0.56986">
        <ele>165.499116</ele>
        <time>2011-03-22T13:44:28Z</time>
      </trkpt>
      <trkpt lat="43.43152" lon="-0.56998">
        <ele>165.294867</ele>
        <time>2011-03-22T13:44:31Z</time>
      </trkpt>
      <trkpt lat="43.43157" lon="-0.5701">
        <ele>165.254368</ele>
        <time>2011-03-22T13:44:34Z</time>
      </trkpt>
      <trkpt lat="43.43161" lon="-0.57024">
        <ele>165.282106</ele>
        <time>2011-03-22T13:44:37Z</time>
      </trkpt>
      <trkpt lat="43.43167" lon="-0.57037">
        <ele>165.314499</ele>
        <time>2011-03-22T13:44:40Z</time>
      </trkpt>
      <trkpt lat="43.43172" lon="-0.5705">
        <ele>165.192768</ele>
        <time>2011-03-22T13:44:43Z</time>
      </trkpt>
      <trkpt lat="43.43175" lon="-0.57064">
        <ele>164.836002</ele>
        <time>2011-03-22T13:44:46Z</time>
      </trkpt>
      <trkpt lat="43.4318" lon="-0.57079">
        <ele>164.464218</ele>
        <time>2011-03-22T13:44:49Z</time>
      </trkpt>
      <trkpt lat="43.43187" lon="-0.57093">
        <ele>164.286282</ele>
        <time>2011-03-22T13:44:52Z</time>
      </trkpt>
      <trkpt lat="43.43196" lon="-0.57108">
        <ele>164.25839</ele>
        <time>2011-03-22T13:44:55Z</time>
      </trkpt>
      <trkpt lat="43.43201" lon="-0.57118">
        <ele>164.288108</ele>
        <time>2011-03-22T13:44:57Z</time>
      </trkpt>
      <trkpt lat="43.43209" lon="-0.57134">
        <ele>164.318401</ele>
        <time>2011-03-22T13:45:00Z</time>
      </trkpt>
      <trkpt lat="43.43216" lon="-0.57151">
        <ele>164.470883</ele>
        <time>2011-03-22T13:45:03Z</time>
      </trkpt>
      <trkpt lat="43.43222" lon="-0.57168">
        <ele>165.109239</ele>
        <time>2011-03-22T13:45:06Z</time>
      </trkpt>
      <trkpt lat="43.43227" lon="-0.5718">
        <ele>166.334127</ele>
        <time>2011-03-22T13:45:08Z</time>
      </trkpt>
      <trkpt lat="43.43232" lon="-0.57196">
        <ele>167.605652</ele>
        <time>2011-03-22T13:45:11Z</time>
      </trkpt>
      <trkpt lat="43.43235" lon="-0.57211">
        <ele>168.350975</ele>
        <time>2011-03-22T13:45:14Z</time>
      </trkpt>
      <trkpt lat="43.43239" lon="-0.57227">
        <ele>168.549152</ele>
        <time>2011-03-22T13:45:17Z</time>
      </trkpt>
      <trkpt lat="43.43244" lon="-0.57243">
        <ele>168.48581</ele>
        <time>2011-03-22T13:45:20Z</time>
      </trkpt>
      <trkpt lat="43.43248" lon="-0.57259">
        <ele>168.381688</ele>
        <time>2011-03-22T13:45:23Z</time>
      </trkpt>
      <trkpt lat="43.43252" lon="-0.57274">
        <ele>168.183221</ele>
        <time>2011-03-22T13:45:26Z</time>
      </trkpt>
      <trkpt lat="43.43256" lon="-0.57287">
        <ele>167.66945</ele>
        <time>2011-03-22T13:45:29Z</time>
      </trkpt>
      <trkpt lat="43.43261" lon="-0.57301">
        <ele>166.945474</ele>
        <time>2011-03-22T13:45:32Z</time>
      </trkpt>
      <trkpt lat="43.43266" lon="-0.57314">
        <ele>166.409255</ele>
        <time>2011-03-22T13:45:35Z</time>
      </trkpt>
      <trkpt lat="43.43271" lon="-0.57328">
        <ele>166.074118</ele>
        <time>2011-03-22T13:45:38Z</time>
      </trkpt>
      <trkpt lat="43.43275" lon="-0.57342">
        <ele>165.580706</ele>
        <time>2011-03-22T13:45:41Z</time>
      </trkpt>
      <trkpt lat="43.4328" lon="-0.57358">
        <ele>164.910983</ele>
        <time>2011-03-22T13:45:44Z</time>
      </trkpt>
      <trkpt lat="43.43285" lon="-0.57373">
        <ele>164.271589</ele>
        <time>2011-03-22T13:45:47Z</time>
      </trkpt>
      <trkpt lat="43.4329" lon="-0.57387">
        <ele>163.725601</ele>
        <time>2011-03-22T13:45:50Z</time>
      </trkpt>
      <trkpt lat="43.43295" lon="-0.57403">
        <ele>163.22084</ele>
        <time>2011-03-22T13:45:53Z</time>
      </trkpt>
      <trkpt lat="43.433" lon="-0.57418">
        <ele>162.740848</ele>
        <time>2011-03-22T13:45:56Z</time>
      </trkpt>
      <trkpt lat="43.43302" lon="-0.57435">
        <ele>162.385543</ele>
        <time>2011-03-22T13:45:59Z</time>
      </trkpt>
      <trkpt lat="43.43303" lon="-0.57453">
        <ele>162.255102</ele>
        <time>2011-03-22T13:46:02Z</time>
      </trkpt>
      <trkpt lat="43.43304" lon="-0.57465">
        <ele>162.120049</ele>
        <time>2011-03-22T13:46:04Z</time>
      </trkpt>
      <trkpt lat="43.43305" lon="-0.57486">
        <ele>161.799652</ele>
        <time>2011-03-22T13:46:07Z</time>
      </trkpt>
      <trkpt lat="43.43306" lon="-0.575">
        <ele>161.459</ele>
        <time>2011-03-22T13:46:09Z</time>
      </trkpt>
      <trkpt lat="43.43309" lon="-0.57519">
        <ele>161.155925</ele>
        <time>2011-03-22T13:46:12Z</time>
      </trkpt>
      <trkpt lat="43.43314" lon="-0.57538">
        <ele>160.630893</ele>
        <time>2011-03-22T13:46:15Z</time>
      </trkpt>
      <trkpt lat="43.43318" lon="-0.57556">
        <ele>159.790069</ele>
        <time>2011-03-22T13:46:18Z</time>
      </trkpt>
      <trkpt lat="43.43324" lon="-0.57575">
        <ele>158.913197</ele>
        <time>2011-03-22T13:46:21Z</time>
      </trkpt>
      <trkpt lat="43.43329" lon="-0.57588">
        <ele>158.355183</ele>
        <time>2011-03-22T13:46:23Z</time>
      </trkpt>
      <trkpt lat="43.43336" lon="-0.57608">
        <ele>158.185388</ele>
        <time>2011-03-22T13:46:26Z</time>
      </trkpt>
      <trkpt lat="43.43341" lon="-0.5762">
        <ele>158.216677</ele>
        <time>2011-03-22T13:46:28Z</time>
      </trkpt>
      <trkpt lat="43.43344" lon="-0.57632">
        <ele>158.150386</ele>
        <time>2011-03-22T13:46:30Z</time>
      </trkpt>
      <trkpt lat="43.43351" lon="-0.57653">
        <ele>157.697442</ele>
        <time>2011-03-22T13:46:33Z</time>
      </trkpt>
      <trkpt lat="43.43356" lon="-0.5767">
        <ele>156.981546</ele>
        <time>2011-03-22T13:46:35Z</time>
      </trkpt>
      <trkpt lat="43.43364" lon="-0.57696">
        <ele>156.434068</ele>
        <time>2011-03-22T13:46:38Z</time>
      </trkpt>
      <trkpt lat="43.43371" lon="-0.5772">
        <ele>156.226333</ele>
        <time>2011-03-22T13:46:41Z</time>
      </trkpt>
      <trkpt lat="43.4338" lon="-0.57742">
        <ele>156.226089</ele>
        <time>2011-03-22T13:46:44Z</time>
      </trkpt>
      <trkpt lat="43.43391" lon="-0.5776">
        <ele>156.285075</ele>
        <time>2011-03-22T13:46:47Z</time>
      </trkpt>
      <trkpt lat="43.43398" lon="-0.57772">
        <ele>156.32948</ele>
        <time>2011-03-22T13:46:49Z</time>
      </trkpt>
      <trkpt lat="43.43405" lon="-0.57782">
        <ele>156.20787</ele>
        <time>2011-03-22T13:46:51Z</time>
      </trkpt>
      <trkpt lat="43.43416" lon="-0.57796">
        <ele>155.847773</ele>
        <time>2011-03-22T13:46:54Z</time>
      </trkpt>
      <trkpt lat="43.43423" lon="-0.57806">
        <ele>155.473453</ele>
        <time>2011-03-22T13:46:56Z</time>
      </trkpt>
      <trkpt lat="43.4343" lon="-0.57815">
        <ele>155.294566</ele>
        <time>2011-03-22T13:46:58Z</time>
      </trkpt>
      <trkpt lat="43.43439" lon="-0.57821">
        <ele>155.128522</ele>
        <time>2011-03-22T13:47:00Z</time>
      </trkpt>
      <trkpt lat="43.43453" lon="-0.5783">
        <ele>154.798647</ele>
        <time>2011-03-22T13:47:03Z</time>
      </trkpt>
      <trkpt lat="43.43462" lon="-0.57836">
        <ele>154.459725</ele>
        <time>2011-03-22T13:47:05Z</time>
      </trkpt>
      <trkpt lat="43.43474" lon="-0.57845">
        <ele>154.298856</ele>
        <time>2011-03-22T13:47:08Z</time>
      </trkpt>
      <trkpt lat="43.43487" lon="-0.57855">
        <ele>154.274459</ele>
        <time>2011-03-22T13:47:11Z</time>
      </trkpt>
      <trkpt lat="43.435" lon="-0.57864">
        <ele>154.301957</ele>
        <time>2011-03-22T13:47:14Z</time>
      </trkpt>
      <trkpt lat="43.43512" lon="-0.57873">
        <ele>154.329596</ele>
        <time>2011-03-22T13:47:17Z</time>
      </trkpt>
      <trkpt lat="43.43524" lon="-0.57882">
        <ele>154.342554</ele>
        <time>2011-03-22T13:47:20Z</time>
      </trkpt>
      <trkpt lat="43.43536" lon="-0.57891">
        <ele>154.344434</ele>
        <time>2011-03-22T13:47:23Z</time>
      </trkpt>
      <trkpt lat="43.43548" lon="-0.579">
        <ele>154.342159</ele>
        <time>2011-03-22T13:47:26Z</time>
      </trkpt>
      <trkpt lat="43.43559" lon="-0.57909">
        <ele>154.339913</ele>
        <time>2011-03-22T13:47:29Z</time>
      </trkpt>
      <trkpt lat="43.4357" lon="-0.57918">
        <ele>154.20071</ele>
        <time>2011-03-22T13:47:32Z</time>
      </trkpt>
      <trkpt lat="43.4358" lon="-0.5793">
        <ele>153.840714</ele>
        <time>2011-03-22T13:47:35Z</time>
      </trkpt>
      <trkpt lat="43.43588" lon="-0.57944">
        <ele>153.471503</ele>
        <time>2011-03-22T13:47:38Z</time>
      </trkpt>
      <trkpt lat="43.43596" lon="-0.57959">
        <ele>153.158261</ele>
        <time>2011-03-22T13:47:41Z</time>
      </trkpt>
      <trkpt lat="43.43604" lon="-0.57972">
        <ele>152.771933</ele>
        <time>2011-03-22T13:47:44Z</time>
      </trkpt>
      <trkpt lat="43.43613" lon="-0.57986">
        <ele>152.432504</ele>
        <time>2011-03-22T13:47:47Z</time>
      </trkpt>
      <trkpt lat="43.43621" lon="-0.58">
        <ele>152.287333</ele>
        <time>2011-03-22T13:47:50Z</time>
      </trkpt>
      <trkpt lat="43.43629" lon="-0.58015">
        <ele>152.274872</ele>
        <time>2011-03-22T13:47:53Z</time>
      </trkpt>
      <trkpt lat="43.43637" lon="-0.58029">
        <ele>152.168681</ele>
        <time>2011-03-22T13:47:56Z</time>
      </trkpt>
      <trkpt lat="43.43645" lon="-0.58045">
        <ele>151.83639</ele>
        <time>2011-03-22T13:47:59Z</time>
      </trkpt>
      <trkpt lat="43.43654" lon="-0.5806">
        <ele>151.478595</ele>
        <time>2011-03-22T13:48:02Z</time>
      </trkpt>
      <trkpt lat="43.4366" lon="-0.58077">
        <ele>151.304223</ele>
        <time>2011-03-22T13:48:05Z</time>
      </trkpt>
      <trkpt lat="43.43668" lon="-0.58094">
        <ele>151.413214</ele>
        <time>2011-03-22T13:48:08Z</time>
      </trkpt>
      <trkpt lat="43.43677" lon="-0.5811">
        <ele>151.938998</ele>
        <time>2011-03-22T13:48:11Z</time>
      </trkpt>
      <trkpt lat="43.43686" lon="-0.58125">
        <ele>152.835637</ele>
        <time>2011-03-22T13:48:14Z</time>
      </trkpt>
      <trkpt lat="43.43696" lon="-0.58143">
        <ele>153.75422</ele>
        <time>2011-03-22T13:48:17Z</time>
      </trkpt>
      <trkpt lat="43.43703" lon="-0.58154">
        <ele>154.32766</ele>
        <time>2011-03-22T13:48:19Z</time>
      </trkpt>
      <trkpt lat="43.43709" lon="-0.58165">
        <ele>154.497143</ele>
        <time>2011-03-22T13:48:21Z</time>
      </trkpt>
      <trkpt lat="43.43716" lon="-0.58176">
        <ele>154.323017</ele>
        <time>2011-03-22T13:48:23Z</time>
      </trkpt>
      <trkpt lat="43.43726" lon="-0.58193">
        <ele>153.887789</ele>
        <time>2011-03-22T13:48:26Z</time>
      </trkpt>
      <trkpt lat="43.43736" lon="-0.58209">
        <ele>153.471935</ele>
        <time>2011-03-22T13:48:29Z</time>
      </trkpt>
      <trkpt lat="43.43745" lon="-0.58225">
        <ele>153.283227</ele>
        <time>2011-03-22T13:48:32Z</time>
      </trkpt>
      <trkpt lat="43.43754" lon="-0.58241">
        <ele>153.259805</ele>
        <time>2011-03-22T13:48:35Z</time>
      </trkpt>
      <trkpt lat="43.43763" lon="-0.58257">
        <ele>153.157775</ele>
        <time>2011-03-22T13:48:38Z</time>
      </trkpt>
      <trkpt lat="43.43772" lon="-0.58273">
        <ele>152.693551</ele>
        <time>2011-03-22T13:48:41Z</time>
      </trkpt>
      <trkpt lat="43.43781" lon="-0.5829">
        <ele>151.979368</ele>
        <time>2011-03-22T13:48:44Z</time>
      </trkpt>
      <trkpt lat="43.43787" lon="-0.58301">
        <ele>151.436408</ele>
        <time>2011-03-22T13:48:46Z</time>
      </trkpt>
      <trkpt lat="43.43794" lon="-0.58312">
        <ele>151.231599</ele>
        <time>2011-03-22T13:48:48Z</time>
      </trkpt>
      <trkpt lat="43.43803" lon="-0.58329">
        <ele>151.094101</ele>
        <time>2011-03-22T13:48:51Z</time>
      </trkpt>
      <trkpt lat="43.43814" lon="-0.58345">
        <ele>150.793065</ele>
        <time>2011-03-22T13:48:54Z</time>
      </trkpt>
      <trkpt lat="43.43821" lon="-0.58356">
        <ele>150.467686</ele>
        <time>2011-03-22T13:48:56Z</time>
      </trkpt>
      <trkpt lat="43.43831" lon="-0.58372">
        <ele>150.308775</ele>
        <time>2011-03-22T13:48:59Z</time>
      </trkpt>
      <trkpt lat="43.43842" lon="-0.58388">
        <ele>150.281974</ele>
        <time>2011-03-22T13:49:02Z</time>
      </trkpt>
      <trkpt lat="43.43849" lon="-0.58399">
        <ele>150.307092</ele>
        <time>2011-03-22T13:49:04Z</time>
      </trkpt>
      <trkpt lat="43.43858" lon="-0.58414">
        <ele>150.333616</ele>
        <time>2011-03-22T13:49:07Z</time>
      </trkpt>
      <trkpt lat="43.43865" lon="-0.58423">
        <ele>150.760936</ele>
        <time>2011-03-22T13:49:09Z</time>
      </trkpt>
      <trkpt lat="43.43871" lon="-0.58433">
        <ele>151.980844</ele>
        <time>2011-03-22T13:49:11Z</time>
      </trkpt>
      <trkpt lat="43.43874" lon="-0.58446">
        <ele>153.585106</ele>
        <time>2011-03-22T13:49:14Z</time>
      </trkpt>
      <trkpt lat="43.43874" lon="-0.58446">
        <ele>154.838025</ele>
        <time>2011-03-22T13:49:18Z</time>
      </trkpt>
      <trkpt lat="43.43855" lon="-0.5847">
        <ele>155.461257</ele>
        <time>2011-03-22T13:49:22Z</time>
      </trkpt>
      <trkpt lat="43.43846" lon="-0.58477">
        <ele>155.572922</ele>
        <time>2011-03-22T13:49:24Z</time>
      </trkpt>
      <trkpt lat="43.43835" lon="-0.58489">
        <ele>155.479294</ele>
        <time>2011-03-22T13:49:27Z</time>
      </trkpt>
      <trkpt lat="43.43823" lon="-0.58502">
        <ele>155.377024</ele>
        <time>2011-03-22T13:49:30Z</time>
      </trkpt>
      <trkpt lat="43.43811" lon="-0.58519">
        <ele>155.18857</ele>
        <time>2011-03-22T13:49:33Z</time>
      </trkpt>
      <trkpt lat="43.43813" lon="-0.58542">
        <ele>154.819967</ele>
        <time>2011-03-22T13:49:36Z</time>
      </trkpt>
      <trkpt lat="43.43822" lon="-0.58545">
        <ele>154.458284</ele>
        <time>2011-03-22T13:49:38Z</time>
      </trkpt>
      <trkpt lat="43.43839" lon="-0.5855">
        <ele>154.291345</ele>
        <time>2011-03-22T13:49:41Z</time>
      </trkpt>
      <trkpt lat="43.43852" lon="-0.58552">
        <ele>154.268878</ele>
        <time>2011-03-22T13:49:44Z</time>
      </trkpt>
      <trkpt lat="43.43864" lon="-0.58553">
        <ele>154.437692</ele>
        <time>2011-03-22T13:49:47Z</time>
      </trkpt>
      <trkpt lat="43.43878" lon="-0.58556">
        <ele>154.965143</ele>
        <time>2011-03-22T13:49:50Z</time>
      </trkpt>
      <trkpt lat="43.43891" lon="-0.5856">
        <ele>155.707822</ele>
        <time>2011-03-22T13:49:53Z</time>
      </trkpt>
      <trkpt lat="43.43902" lon="-0.58565">
        <ele>156.254208</ele>
        <time>2011-03-22T13:49:56Z</time>
      </trkpt>
      <trkpt lat="43.43913" lon="-0.5857">
        <ele>156.453472</ele>
        <time>2011-03-22T13:49:59Z</time>
      </trkpt>
      <trkpt lat="43.43924" lon="-0.58576">
        <ele>156.447635</ele>
        <time>2011-03-22T13:50:02Z</time>
      </trkpt>
      <trkpt lat="43.43936" lon="-0.58582">
        <ele>156.110137</ele>
        <time>2011-03-22T13:50:05Z</time>
      </trkpt>
      <trkpt lat="43.43948" lon="-0.58587">
        <ele>155.346081</ele>
        <time>2011-03-22T13:50:08Z</time>
      </trkpt>
      <trkpt lat="43.43961" lon="-0.58594">
        <ele>154.591364</ele>
        <time>2011-03-22T13:50:11Z</time>
      </trkpt>
      <trkpt lat="43.4397" lon="-0.58599">
        <ele>154.241539</ele>
        <time>2011-03-22T13:50:13Z</time>
      </trkpt>
      <trkpt lat="43.43984" lon="-0.58606">
        <ele>154.193535</ele>
        <time>2011-03-22T13:50:16Z</time>
      </trkpt>
      <trkpt lat="43.43993" lon="-0.5861">
        <ele>154.257148</ele>
        <time>2011-03-22T13:50:18Z</time>
      </trkpt>
      <trkpt lat="43.44008" lon="-0.58615">
        <ele>154.318695</ele>
        <time>2011-03-22T13:50:21Z</time>
      </trkpt>
      <trkpt lat="43.44018" lon="-0.58619">
        <ele>154.485039</ele>
        <time>2011-03-22T13:50:23Z</time>
      </trkpt>
      <trkpt lat="43.44032" lon="-0.58624">
        <ele>154.848577</ele>
        <time>2011-03-22T13:50:26Z</time>
      </trkpt>
      <trkpt lat="43.44042" lon="-0.58627">
        <ele>155.212746</ele>
        <time>2011-03-22T13:50:28Z</time>
      </trkpt>
      <trkpt lat="43.44057" lon="-0.58631">
        <ele>155.383036</ele>
        <time>2011-03-22T13:50:31Z</time>
      </trkpt>
      <trkpt lat="43.44072" lon="-0.58636">
        <ele>155.545525</ele>
        <time>2011-03-22T13:50:34Z</time>
      </trkpt>
      <trkpt lat="43.44082" lon="-0.58641">
        <ele>155.875198</ele>
        <time>2011-03-22T13:50:36Z</time>
      </trkpt>
      <trkpt lat="43.44096" lon="-0.58649">
        <ele>156.353181</ele>
        <time>2011-03-22T13:50:39Z</time>
      </trkpt>
      <trkpt lat="43.44104" lon="-0.58656">
        <ele>156.874687</ele>
        <time>2011-03-22T13:50:41Z</time>
      </trkpt>
      <trkpt lat="43.44116" lon="-0.58666">
        <ele>157.268854</ele>
        <time>2011-03-22T13:50:44Z</time>
      </trkpt>
      <trkpt lat="43.44127" lon="-0.58678">
        <ele>157.416683</ele>
        <time>2011-03-22T13:50:47Z</time>
      </trkpt>
      <trkpt lat="43.44137" lon="-0.58691">
        <ele>157.415553</ele>
        <time>2011-03-22T13:50:50Z</time>
      </trkpt>
      <trkpt lat="43.44144" lon="-0.58705">
        <ele>157.372593</ele>
        <time>2011-03-22T13:50:53Z</time>
      </trkpt>
      <trkpt lat="43.44151" lon="-0.5872">
        <ele>157.340614</ele>
        <time>2011-03-22T13:50:56Z</time>
      </trkpt>
      <trkpt lat="43.44158" lon="-0.58734">
        <ele>157.328807</ele>
        <time>2011-03-22T13:50:59Z</time>
      </trkpt>
      <trkpt lat="43.44163" lon="-0.5875">
        <ele>157.329039</ele>
        <time>2011-03-22T13:51:02Z</time>
      </trkpt>
      <trkpt lat="43.44168" lon="-0.58766">
        <ele>157.332572</ele>
        <time>2011-03-22T13:51:05Z</time>
      </trkpt>
      <trkpt lat="43.44176" lon="-0.58775">
        <ele>157.335153</ele>
        <time>2011-03-22T13:51:08Z</time>
      </trkpt>
      <trkpt lat="43.44184" lon="-0.58782">
        <ele>157.336072</ele>
        <time>2011-03-22T13:51:12Z</time>
      </trkpt>
      <trkpt lat="43.44192" lon="-0.58789">
        <ele>157.197833</ele>
        <time>2011-03-22T13:51:15Z</time>
      </trkpt>
      <trkpt lat="43.44202" lon="-0.58797">
        <ele>156.699442</ele>
        <time>2011-03-22T13:51:18Z</time>
      </trkpt>
      <trkpt lat="43.4421" lon="-0.58806">
        <ele>155.693537</ele>
        <time>2011-03-22T13:51:21Z</time>
      </trkpt>
      <trkpt lat="43.44218" lon="-0.58817">
        <ele>154.428989</ele>
        <time>2011-03-22T13:51:24Z</time>
      </trkpt>
      <trkpt lat="43.44224" lon="-0.58828">
        <ele>153.488344</ele>
        <time>2011-03-22T13:51:27Z</time>
      </trkpt>
      <trkpt lat="43.4423" lon="-0.5884">
        <ele>153.141303</ele>
        <time>2011-03-22T13:51:30Z</time>
      </trkpt>
      <trkpt lat="43.44237" lon="-0.58851">
        <ele>153.010172</ele>
        <time>2011-03-22T13:51:33Z</time>
      </trkpt>
      <trkpt lat="43.44242" lon="-0.58862">
        <ele>152.616282</ele>
        <time>2011-03-22T13:51:36Z</time>
      </trkpt>
      <trkpt lat="43.44247" lon="-0.58873">
        <ele>151.963285</ele>
        <time>2011-03-22T13:51:39Z</time>
      </trkpt>
      <trkpt lat="43.44254" lon="-0.58883">
        <ele>151.446297</ele>
        <time>2011-03-22T13:51:42Z</time>
      </trkpt>
      <trkpt lat="43.44262" lon="-0.58894">
        <ele>151.105407</ele>
        <time>2011-03-22T13:51:45Z</time>
      </trkpt>
      <trkpt lat="43.44271" lon="-0.58905">
        <ele>150.602199</ele>
        <time>2011-03-22T13:51:48Z</time>
      </trkpt>
      <trkpt lat="43.4428" lon="-0.58917">
        <ele>149.926759</ele>
        <time>2011-03-22T13:51:51Z</time>
      </trkpt>
      <trkpt lat="43.4429" lon="-0.58927">
        <ele>149.424046</ele>
        <time>2011-03-22T13:51:54Z</time>
      </trkpt>
      <trkpt lat="43.443" lon="-0.58935">
        <ele>149.238471</ele>
        <time>2011-03-22T13:51:57Z</time>
      </trkpt>
      <trkpt lat="43.44311" lon="-0.58942">
        <ele>149.380336</ele>
        <time>2011-03-22T13:52:00Z</time>
      </trkpt>
      <trkpt lat="43.44321" lon="-0.58949">
        <ele>149.795872</ele>
        <time>2011-03-22T13:52:03Z</time>
      </trkpt>
      <trkpt lat="43.44321" lon="-0.58949">
        <ele>150.206097</ele>
        <time>2011-03-22T13:52:05Z</time>
      </trkpt>
      <trkpt lat="43.44338" lon="-0.58945">
        <ele>150.39618</ele>
        <time>2011-03-22T13:52:10Z</time>
      </trkpt>
      <trkpt lat="43.44348" lon="-0.58945">
        <ele>150.422241</ele>
        <time>2011-03-22T13:52:13Z</time>
      </trkpt>
      <trkpt lat="43.44357" lon="-0.58945">
        <ele>150.525869</ele>
        <time>2011-03-22T13:52:16Z</time>
      </trkpt>
      <trkpt lat="43.44369" lon="-0.58945">
        <ele>151.81962</ele>
        <time>2011-03-22T13:52:20Z</time>
      </trkpt>
      <trkpt lat="43.44369" lon="-0.58945">
        <ele>154.693062</ele>
        <time>2011-03-22T13:52:24Z</time>
      </trkpt>
      <trkpt lat="43.44406" lon="-0.58946">
        <ele>157.728793</ele>
        <time>2011-03-22T13:52:37Z</time>
      </trkpt>
      <trkpt lat="43.44406" lon="-0.58946">
        <ele>159.704839</ele>
        <time>2011-03-22T13:52:40Z</time>
      </trkpt>
      <trkpt lat="43.44434" lon="-0.58944">
        <ele>160.602178</ele>
        <time>2011-03-22T13:52:48Z</time>
      </trkpt>
      <trkpt lat="43.44434" lon="-0.58944">
        <ele>160.713943</ele>
        <time>2011-03-22T13:52:51Z</time>
      </trkpt>
      <trkpt lat="43.44464" lon="-0.58943">
        <ele>160.554115</ele>
        <time>2011-03-22T13:52:58Z</time>
      </trkpt>
      <trkpt lat="43.44482" lon="-0.58947">
        <ele>160.688516</ele>
        <time>2011-03-22T13:53:03Z</time>
      </trkpt>
      <trkpt lat="43.44494" lon="-0.5895">
        <ele>161.475281</ele>
        <time>2011-03-22T13:53:06Z</time>
      </trkpt>
      <trkpt lat="43.44505" lon="-0.58954">
        <ele>162.549241</ele>
        <time>2011-03-22T13:53:09Z</time>
      </trkpt>
      <trkpt lat="43.44514" lon="-0.58965">
        <ele>163.270894</ele>
        <time>2011-03-22T13:53:13Z</time>
      </trkpt>
      <trkpt lat="43.44521" lon="-0.58975">
        <ele>163.645779</ele>
        <time>2011-03-22T13:53:16Z</time>
      </trkpt>
      <trkpt lat="43.44527" lon="-0.58989">
        <ele>163.978076</ele>
        <time>2011-03-22T13:53:20Z</time>
      </trkpt>
      <trkpt lat="43.44531" lon="-0.59001">
        <ele>164.259324</ele>
        <time>2011-03-22T13:53:23Z</time>
      </trkpt>
      <trkpt lat="43.44532" lon="-0.59013">
        <ele>164.376135</ele>
        <time>2011-03-22T13:53:26Z</time>
      </trkpt>
      <trkpt lat="43.44532" lon="-0.59026">
        <ele>164.383828</ele>
        <time>2011-03-22T13:53:29Z</time>
      </trkpt>
      <trkpt lat="43.4453" lon="-0.59042">
        <ele>164.356303</ele>
        <time>2011-03-22T13:53:33Z</time>
      </trkpt>
      <trkpt lat="43.44528" lon="-0.59055">
        <ele>164.195227</ele>
        <time>2011-03-22T13:53:36Z</time>
      </trkpt>
      <trkpt lat="43.44528" lon="-0.59071">
        <ele>163.825977</ele>
        <time>2011-03-22T13:53:40Z</time>
      </trkpt>
      <trkpt lat="43.44532" lon="-0.59083">
        <ele>163.456019</ele>
        <time>2011-03-22T13:53:44Z</time>
      </trkpt>
      <trkpt lat="43.4454" lon="-0.59092">
        <ele>163.282981</ele>
        <time>2011-03-22T13:53:48Z</time>
      </trkpt>
      <trkpt lat="43.44546" lon="-0.59103">
        <ele>163.258231</ele>
        <time>2011-03-22T13:53:52Z</time>
      </trkpt>
      <trkpt lat="43.44549" lon="-0.59115">
        <ele>163.288898</ele>
        <time>2011-03-22T13:53:56Z</time>
      </trkpt>
      <trkpt lat="43.44552" lon="-0.59128">
        <ele>163.318997</ele>
        <time>2011-03-22T13:54:00Z</time>
      </trkpt>
      <trkpt lat="43.44554" lon="-0.59143">
        <ele>163.332889</ele>
        <time>2011-03-22T13:54:04Z</time>
      </trkpt>
      <trkpt lat="43.44558" lon="-0.59158">
        <ele>163.33476</ele>
        <time>2011-03-22T13:54:08Z</time>
      </trkpt>
      <trkpt lat="43.44566" lon="-0.59171">
        <ele>163.608548</ele>
        <time>2011-03-22T13:54:12Z</time>
      </trkpt>
      <trkpt lat="43.44571" lon="-0.59182">
        <ele>164.325837</ele>
        <time>2011-03-22T13:54:16Z</time>
      </trkpt>
      <trkpt lat="43.44577" lon="-0.59194">
        <ele>165.063545</ele>
        <time>2011-03-22T13:54:20Z</time>
      </trkpt>
      <trkpt lat="43.44585" lon="-0.59206">
        <ele>165.413904</ele>
        <time>2011-03-22T13:54:24Z</time>
      </trkpt>
      <trkpt lat="43.44594" lon="-0.59215">
        <ele>165.467165</ele>
        <time>2011-03-22T13:54:28Z</time>
      </trkpt>
      <trkpt lat="43.44606" lon="-0.59219">
        <ele>165.407374</ele>
        <time>2011-03-22T13:54:33Z</time>
      </trkpt>
      <trkpt lat="43.44616" lon="-0.59223">
        <ele>165.34723</ele>
        <time>2011-03-22T13:54:36Z</time>
      </trkpt>
      <trkpt lat="43.44626" lon="-0.59228">
        <ele>165.319039</ele>
        <time>2011-03-22T13:54:39Z</time>
      </trkpt>
      <trkpt lat="43.44636" lon="-0.59231">
        <ele>165.314979</ele>
        <time>2011-03-22T13:54:42Z</time>
      </trkpt>
      <trkpt lat="43.44646" lon="-0.59234">
        <ele>165.319967</ele>
        <time>2011-03-22T13:54:45Z</time>
      </trkpt>
      <trkpt lat="43.44658" lon="-0.59238">
        <ele>165.463064</ele>
        <time>2011-03-22T13:54:48Z</time>
      </trkpt>
      <trkpt lat="43.44671" lon="-0.59242">
        <ele>165.825249</ele>
        <time>2011-03-22T13:54:51Z</time>
      </trkpt>
      <trkpt lat="43.44685" lon="-0.59249">
        <ele>166.195022</ele>
        <time>2011-03-22T13:54:54Z</time>
      </trkpt>
      <trkpt lat="43.44694" lon="-0.59253">
        <ele>166.508081</ele>
        <time>2011-03-22T13:54:56Z</time>
      </trkpt>
      <trkpt lat="43.44694" lon="-0.59253">
        <ele>166.894137</ele>
        <time>2011-03-22T13:54:59Z</time>
      </trkpt>
      <trkpt lat="43.4473" lon="-0.59271">
        <ele>167.233429</ele>
        <time>2011-03-22T13:55:06Z</time>
      </trkpt>
      <trkpt lat="43.44745" lon="-0.59277">
        <ele>167.516762</ele>
        <time>2011-03-22T13:55:09Z</time>
      </trkpt>
      <trkpt lat="43.44755" lon="-0.59281">
        <ele>167.889152</ele>
        <time>2011-03-22T13:55:11Z</time>
      </trkpt>
      <trkpt lat="43.44771" lon="-0.5929">
        <ele>168.22665</ele>
        <time>2011-03-22T13:55:14Z</time>
      </trkpt>
      <trkpt lat="43.44782" lon="-0.59296">
        <ele>168.788901</ele>
        <time>2011-03-22T13:55:16Z</time>
      </trkpt>
      <trkpt lat="43.44793" lon="-0.59303">
        <ele>170.159878</ele>
        <time>2011-03-22T13:55:18Z</time>
      </trkpt>
      <trkpt lat="43.44803" lon="-0.5931">
        <ele>172.233491</ele>
        <time>2011-03-22T13:55:20Z</time>
      </trkpt>
      <trkpt lat="43.44818" lon="-0.5932">
        <ele>174.466859</ele>
        <time>2011-03-22T13:55:23Z</time>
      </trkpt>
      <trkpt lat="43.44832" lon="-0.5933">
        <ele>176.343802</ele>
        <time>2011-03-22T13:55:26Z</time>
      </trkpt>
      <trkpt lat="43.44847" lon="-0.59339">
        <ele>177.533408</ele>
        <time>2011-03-22T13:55:29Z</time>
      </trkpt>
      <trkpt lat="43.44862" lon="-0.59349">
        <ele>178.149178</ele>
        <time>2011-03-22T13:55:32Z</time>
      </trkpt>
      <trkpt lat="43.44877" lon="-0.59358">
        <ele>178.411479</ele>
        <time>2011-03-22T13:55:35Z</time>
      </trkpt>
      <trkpt lat="43.4489" lon="-0.59372">
        <ele>178.43329</ele>
        <time>2011-03-22T13:55:38Z</time>
      </trkpt>
      <trkpt lat="43.44903" lon="-0.59388">
        <ele>178.374955</ele>
        <time>2011-03-22T13:55:41Z</time>
      </trkpt>
      <trkpt lat="43.44915" lon="-0.59405">
        <ele>178.186701</ele>
        <time>2011-03-22T13:55:44Z</time>
      </trkpt>
      <trkpt lat="43.44924" lon="-0.59423">
        <ele>177.805784</ele>
        <time>2011-03-22T13:55:47Z</time>
      </trkpt>
      <trkpt lat="43.44931" lon="-0.5944">
        <ele>177.434807</ele>
        <time>2011-03-22T13:55:50Z</time>
      </trkpt>
      <trkpt lat="43.44936" lon="-0.59451">
        <ele>177.264364</ele>
        <time>2011-03-22T13:55:52Z</time>
      </trkpt>
      <trkpt lat="43.44945" lon="-0.59466">
        <ele>177.241883</ele>
        <time>2011-03-22T13:55:55Z</time>
      </trkpt>
      <trkpt lat="43.44955" lon="-0.59476">
        <ele>177.273535</ele>
        <time>2011-03-22T13:55:58Z</time>
      </trkpt>
      <trkpt lat="43.44966" lon="-0.59482">
        <ele>177.303747</ele>
        <time>2011-03-22T13:56:01Z</time>
      </trkpt>
      <trkpt lat="43.44978" lon="-0.59484">
        <ele>177.317458</ele>
        <time>2011-03-22T13:56:04Z</time>
      </trkpt>
      <trkpt lat="43.4499" lon="-0.59482">
        <ele>177.457334</ele>
        <time>2011-03-22T13:56:07Z</time>
      </trkpt>
      <trkpt lat="43.45002" lon="-0.59479">
        <ele>177.814587</ele>
        <time>2011-03-22T13:56:10Z</time>
      </trkpt>
      <trkpt lat="43.45013" lon="-0.59478">
        <ele>178.319737</ele>
        <time>2011-03-22T13:56:13Z</time>
      </trkpt>
      <trkpt lat="43.45024" lon="-0.59476">
        <ele>178.853814</ele>
        <time>2011-03-22T13:56:16Z</time>
      </trkpt>
      <trkpt lat="43.45034" lon="-0.59472">
        <ele>179.387879</ele>
        <time>2011-03-22T13:56:19Z</time>
      </trkpt>
      <trkpt lat="43.45043" lon="-0.5947">
        <ele>180.169681</ele>
        <time>2011-03-22T13:56:22Z</time>
      </trkpt>
      <trkpt lat="43.45054" lon="-0.5947">
        <ele>181.53194</ele>
        <time>2011-03-22T13:56:26Z</time>
      </trkpt>
      <trkpt lat="43.45066" lon="-0.59475">
        <ele>183.260096</ele>
        <time>2011-03-22T13:56:30Z</time>
      </trkpt>
      <trkpt lat="43.45077" lon="-0.5948">
        <ele>184.703838</ele>
        <time>2011-03-22T13:56:34Z</time>
      </trkpt>
      <trkpt lat="43.45086" lon="-0.59482">
        <ele>185.435277</ele>
        <time>2011-03-22T13:56:37Z</time>
      </trkpt>
      <trkpt lat="43.45095" lon="-0.59484">
        <ele>185.57394</ele>
        <time>2011-03-22T13:56:40Z</time>
      </trkpt>
      <trkpt lat="43.45104" lon="-0.59483">
        <ele>185.193472</ele>
        <time>2011-03-22T13:56:43Z</time>
      </trkpt>
      <trkpt lat="43.45113" lon="-0.59479">
        <ele>184.217757</ele>
        <time>2011-03-22T13:56:46Z</time>
      </trkpt>
      <trkpt lat="43.45121" lon="-0.59472">
        <ele>182.921988</ele>
        <time>2011-03-22T13:56:49Z</time>
      </trkpt>
      <trkpt lat="43.45129" lon="-0.59466">
        <ele>181.831502</ele>
        <time>2011-03-22T13:56:52Z</time>
      </trkpt>
      <trkpt lat="43.45136" lon="-0.59457">
        <ele>181.242534</ele>
        <time>2011-03-22T13:56:55Z</time>
      </trkpt>
      <trkpt lat="43.45143" lon="-0.59448">
        <ele>181.110355</ele>
        <time>2011-03-22T13:56:58Z</time>
      </trkpt>
      <trkpt lat="43.4515" lon="-0.5944">
        <ele>181.178779</ele>
        <time>2011-03-22T13:57:01Z</time>
      </trkpt>
      <trkpt lat="43.4516" lon="-0.59435">
        <ele>181.406093</ele>
        <time>2011-03-22T13:57:05Z</time>
      </trkpt>
      <trkpt lat="43.4517" lon="-0.5943">
        <ele>181.813548</ele>
        <time>2011-03-22T13:57:09Z</time>
      </trkpt>
      <trkpt lat="43.45181" lon="-0.59425">
        <ele>182.193399</ele>
        <time>2011-03-22T13:57:13Z</time>
      </trkpt>
      <trkpt lat="43.4519" lon="-0.59428">
        <ele>182.501156</ele>
        <time>2011-03-22T13:57:17Z</time>
      </trkpt>
      <trkpt lat="43.4519" lon="-0.59428">
        <ele>182.880331</ele>
        <time>2011-03-22T13:57:19Z</time>
      </trkpt>
      <trkpt lat="43.45216" lon="-0.59468">
        <ele>183.215943</ele>
        <time>2011-03-22T13:57:33Z</time>
      </trkpt>
      <trkpt lat="43.45222" lon="-0.5948">
        <ele>183.498486</ele>
        <time>2011-03-22T13:57:36Z</time>
      </trkpt>
      <trkpt lat="43.45222" lon="-0.5948">
        <ele>183.871352</ele>
        <time>2011-03-22T13:57:37Z</time>
      </trkpt>
      <trkpt lat="43.45244" lon="-0.59518">
        <ele>184.347609</ele>
        <time>2011-03-22T13:57:47Z</time>
      </trkpt>
      <trkpt lat="43.45251" lon="-0.59529">
        <ele>185.408204</ele>
        <time>2011-03-22T13:57:50Z</time>
      </trkpt>
      <trkpt lat="43.45268" lon="-0.59554">
        <ele>187.232162</ele>
        <time>2011-03-22T13:57:57Z</time>
      </trkpt>
      <trkpt lat="43.45276" lon="-0.59565">
        <ele>188.854238</ele>
        <time>2011-03-22T13:58:00Z</time>
      </trkpt>
      <trkpt lat="43.45283" lon="-0.59577">
        <ele>189.554286</ele>
        <time>2011-03-22T13:58:03Z</time>
      </trkpt>
      <trkpt lat="43.45291" lon="-0.59587">
        <ele>189.618512</ele>
        <time>2011-03-22T13:58:06Z</time>
      </trkpt>
      <trkpt lat="43.45291" lon="-0.59587">
        <ele>189.467336</ele>
        <time>2011-03-22T13:58:08Z</time>
      </trkpt>
      <trkpt lat="43.45306" lon="-0.59605">
        <ele>189.335358</ele>
        <time>2011-03-22T13:58:13Z</time>
      </trkpt>
      <trkpt lat="43.45313" lon="-0.59614">
        <ele>189.279189</ele>
        <time>2011-03-22T13:58:16Z</time>
      </trkpt>
      <trkpt lat="43.4532" lon="-0.59623">
        <ele>189.288363</ele>
        <time>2011-03-22T13:58:19Z</time>
      </trkpt>
      <trkpt lat="43.45326" lon="-0.59632">
        <ele>189.46121</ele>
        <time>2011-03-22T13:58:22Z</time>
      </trkpt>
      <trkpt lat="43.45332" lon="-0.59644">
        <ele>189.832777</ele>
        <time>2011-03-22T13:58:25Z</time>
      </trkpt>
      <trkpt lat="43.45337" lon="-0.59655">
        <ele>190.187302</ele>
        <time>2011-03-22T13:58:28Z</time>
      </trkpt>
      <trkpt lat="43.45337" lon="-0.59655">
        <ele>190.348025</ele>
        <time>2011-03-22T13:58:29Z</time>
      </trkpt>
      <trkpt lat="43.45346" lon="-0.5967">
        <ele>190.367865</ele>
        <time>2011-03-22T13:58:32Z</time>
      </trkpt>
      <trkpt lat="43.45357" lon="-0.59684">
        <ele>190.336979</ele>
        <time>2011-03-22T13:58:36Z</time>
      </trkpt>
      <trkpt lat="43.45367" lon="-0.59693">
        <ele>190.308092</ele>
        <time>2011-03-22T13:58:39Z</time>
      </trkpt>
      <trkpt lat="43.45377" lon="-0.59697">
        <ele>190.295167</ele>
        <time>2011-03-22T13:58:42Z</time>
      </trkpt>
      <trkpt lat="43.45387" lon="-0.59701">
        <ele>190.293682</ele>
        <time>2011-03-22T13:58:45Z</time>
      </trkpt>
      <trkpt lat="43.45397" lon="-0.59705">
        <ele>190.296252</ele>
        <time>2011-03-22T13:58:48Z</time>
      </trkpt>
      <trkpt lat="43.45406" lon="-0.59709">
        <ele>190.298614</ele>
        <time>2011-03-22T13:58:51Z</time>
      </trkpt>
      <trkpt lat="43.45415" lon="-0.59713">
        <ele>190.299672</ele>
        <time>2011-03-22T13:58:54Z</time>
      </trkpt>
      <trkpt lat="43.45425" lon="-0.59717">
        <ele>190.299818</ele>
        <time>2011-03-22T13:58:57Z</time>
      </trkpt>
      <trkpt lat="43.45434" lon="-0.59724">
        <ele>190.299641</ele>
        <time>2011-03-22T13:59:00Z</time>
      </trkpt>
      <trkpt lat="43.45441" lon="-0.59733">
        <ele>190.29947</ele>
        <time>2011-03-22T13:59:03Z</time>
      </trkpt>
      <trkpt lat="43.4545" lon="-0.59745">
        <ele>190.299389</ele>
        <time>2011-03-22T13:59:06Z</time>
      </trkpt>
      <trkpt lat="43.45462" lon="-0.59759">
        <ele>190.161205</ele>
        <time>2011-03-22T13:59:09Z</time>
      </trkpt>
      <trkpt lat="43.45471" lon="-0.59767">
        <ele>189.801352</ele>
        <time>2011-03-22T13:59:11Z</time>
      </trkpt>
      <trkpt lat="43.45484" lon="-0.59778">
        <ele>189.155603</ele>
        <time>2011-03-22T13:59:14Z</time>
      </trkpt>
      <trkpt lat="43.45496" lon="-0.5979">
        <ele>188.122403</ele>
        <time>2011-03-22T13:59:17Z</time>
      </trkpt>
      <trkpt lat="43.45505" lon="-0.59801">
        <ele>186.997124</ele>
        <time>2011-03-22T13:59:20Z</time>
      </trkpt>
      <trkpt lat="43.45505" lon="-0.59801">
        <ele>186.307162</ele>
        <time>2011-03-22T13:59:25Z</time>
      </trkpt>
      <trkpt lat="43.45529" lon="-0.59857">
        <ele>186.10895</ele>
        <time>2011-03-22T13:59:40Z</time>
      </trkpt>
      <trkpt lat="43.45534" lon="-0.59868">
        <ele>186.222592</ele>
        <time>2011-03-22T13:59:43Z</time>
      </trkpt>
      <trkpt lat="43.4554" lon="-0.59878">
        <ele>186.559059</ele>
        <time>2011-03-22T13:59:46Z</time>
      </trkpt>
      <trkpt lat="43.45546" lon="-0.59887">
        <ele>187.11748</ele>
        <time>2011-03-22T13:59:49Z</time>
      </trkpt>
      <trkpt lat="43.45553" lon="-0.59896">
        <ele>187.769558</ele>
        <time>2011-03-22T13:59:52Z</time>
      </trkpt>
      <trkpt lat="43.45562" lon="-0.59907">
        <ele>188.377131</ele>
        <time>2011-03-22T13:59:56Z</time>
      </trkpt>
      <trkpt lat="43.45569" lon="-0.59915">
        <ele>188.904197</ele>
        <time>2011-03-22T13:59:59Z</time>
      </trkpt>
      <trkpt lat="43.45578" lon="-0.59925">
        <ele>189.265597</ele>
        <time>2011-03-22T14:00:03Z</time>
      </trkpt>
      <trkpt lat="43.45587" lon="-0.59935">
        <ele>189.387184</ele>
        <time>2011-03-22T14:00:07Z</time>
      </trkpt>
      <trkpt lat="43.45595" lon="-0.59943">
        <ele>189.375643</ele>
        <time>2011-03-22T14:00:10Z</time>
      </trkpt>
      <trkpt lat="43.45602" lon="-0.59951">
        <ele>189.332322</ele>
        <time>2011-03-22T14:00:13Z</time>
      </trkpt>
      <trkpt lat="43.45602" lon="-0.59951">
        <ele>189.303037</ele>
        <time>2011-03-22T14:00:16Z</time>
      </trkpt>
      <trkpt lat="43.45631" lon="-0.59968">
        <ele>189.431538</ele>
        <time>2011-03-22T14:00:27Z</time>
      </trkpt>
      <trkpt lat="43.45631" lon="-0.59968">
        <ele>189.7925</ele>
        <time>2011-03-22T14:00:30Z</time>
      </trkpt>
      <trkpt lat="43.45666" lon="-0.59957">
        <ele>190.165498</ele>
        <time>2011-03-22T14:00:40Z</time>
      </trkpt>
      <trkpt lat="43.45666" lon="-0.59957">
        <ele>190.343134</ele>
        <time>2011-03-22T14:00:43Z</time>
      </trkpt>
      <trkpt lat="43.45688" lon="-0.5994">
        <ele>190.370437</ele>
        <time>2011-03-22T14:00:49Z</time>
      </trkpt>
      <trkpt lat="43.45698" lon="-0.59933">
        <ele>190.754898</ele>
        <time>2011-03-22T14:00:53Z</time>
      </trkpt>
      <trkpt lat="43.45708" lon="-0.59927">
        <ele>191.942402</ele>
        <time>2011-03-22T14:00:57Z</time>
      </trkpt>
      <trkpt lat="43.45718" lon="-0.59921">
        <ele>193.534597</ele>
        <time>2011-03-22T14:01:01Z</time>
      </trkpt>
      <trkpt lat="43.45728" lon="-0.59919">
        <ele>195.064123</ele>
        <time>2011-03-22T14:01:05Z</time>
      </trkpt>
      <trkpt lat="43.45739" lon="-0.59917">
        <ele>196.410822</ele>
        <time>2011-03-22T14:01:09Z</time>
      </trkpt>
      <trkpt lat="43.45749" lon="-0.59918">
        <ele>197.264088</ele>
        <time>2011-03-22T14:01:13Z</time>
      </trkpt>
      <trkpt lat="43.45763" lon="-0.5992">
        <ele>197.660219</ele>
        <time>2011-03-22T14:01:26Z</time>
      </trkpt>
      <trkpt lat="43.45773" lon="-0.59922">
        <ele>198.109175</ele>
        <time>2011-03-22T14:01:34Z</time>
      </trkpt>
      <trkpt lat="43.45783" lon="-0.59923">
        <ele>198.728099</ele>
        <time>2011-03-22T14:01:39Z</time>
      </trkpt>
      <trkpt lat="43.45799" lon="-0.59929">
        <ele>200.585572</ele>
        <time>2011-03-22T14:01:45Z</time>
      </trkpt>
      <trkpt lat="43.45808" lon="-0.59935">
        <ele>204.642246</ele>
        <time>2011-03-22T14:01:48Z</time>
      </trkpt>
      <trkpt lat="43.45816" lon="-0.59945">
        <ele>209.057286</ele>
        <time>2011-03-22T14:01:51Z</time>
      </trkpt>
      <trkpt lat="43.45821" lon="-0.59958">
        <ele>211.497783</ele>
        <time>2011-03-22T14:01:54Z</time>
      </trkpt>
      <trkpt lat="43.45826" lon="-0.59972">
        <ele>212.07501</ele>
        <time>2011-03-22T14:01:57Z</time>
      </trkpt>
      <trkpt lat="43.45829" lon="-0.59986">
        <ele>211.813712</ele>
        <time>2011-03-22T14:02:00Z</time>
      </trkpt>
      <trkpt lat="43.45831" lon="-0.59999">
        <ele>211.45276</ele>
        <time>2011-03-22T14:02:03Z</time>
      </trkpt>
      <trkpt lat="43.45833" lon="-0.60012">
        <ele>211.255788</ele>
        <time>2011-03-22T14:02:06Z</time>
      </trkpt>
      <trkpt lat="43.45835" lon="-0.60025">
        <ele>211.34868</ele>
        <time>2011-03-22T14:02:09Z</time>
      </trkpt>
      <trkpt lat="43.45836" lon="-0.60038">
        <ele>211.730615</ele>
        <time>2011-03-22T14:02:12Z</time>
      </trkpt>
      <trkpt lat="43.45839" lon="-0.60051">
        <ele>212.267677</ele>
        <time>2011-03-22T14:02:15Z</time>
      </trkpt>
      <trkpt lat="43.45841" lon="-0.60064">
        <ele>212.818666</ele>
        <time>2011-03-22T14:02:18Z</time>
      </trkpt>
      <trkpt lat="43.45845" lon="-0.60079">
        <ele>213.218141</ele>
        <time>2011-03-22T14:02:22Z</time>
      </trkpt>
      <trkpt lat="43.45851" lon="-0.60091">
        <ele>213.499718</ele>
        <time>2011-03-22T14:02:26Z</time>
      </trkpt>
      <trkpt lat="43.45858" lon="-0.60102">
        <ele>213.853595</ele>
        <time>2011-03-22T14:02:30Z</time>
      </trkpt>
      <trkpt lat="43.45858" lon="-0.60102">
        <ele>214.177639</ele>
        <time>2011-03-22T14:02:37Z</time>
      </trkpt>
      <trkpt lat="43.45828" lon="-0.60116">
        <ele>214.735006</ele>
        <time>2011-03-22T14:02:59Z</time>
      </trkpt>
      <trkpt lat="43.45818" lon="-0.6012">
        <ele>215.829736</ele>
        <time>2011-03-22T14:03:03Z</time>
      </trkpt>
      <trkpt lat="43.45809" lon="-0.60124">
        <ele>216.908657</ele>
        <time>2011-03-22T14:03:06Z</time>
      </trkpt>
      <trkpt lat="43.45801" lon="-0.60129">
        <ele>217.822569</ele>
        <time>2011-03-22T14:03:09Z</time>
      </trkpt>
      <trkpt lat="43.4579" lon="-0.60133">
        <ele>219.246649</ele>
        <time>2011-03-22T14:03:13Z</time>
      </trkpt>
      <trkpt lat="43.4579" lon="-0.60133">
        <ele>220.983581</ele>
        <time>2011-03-22T14:03:16Z</time>
      </trkpt>
      <trkpt lat="43.45759" lon="-0.60149">
        <ele>222.298446</ele>
        <time>2011-03-22T14:03:36Z</time>
      </trkpt>
      <trkpt lat="43.45759" lon="-0.60149">
        <ele>223.048235</ele>
        <time>2011-03-22T14:03:39Z</time>
      </trkpt>
      <trkpt lat="43.45726" lon="-0.60167">
        <ele>223.375579</ele>
        <time>2011-03-22T14:03:49Z</time>
      </trkpt>
      <trkpt lat="43.45713" lon="-0.60178">
        <ele>223.408113</ele>
        <time>2011-03-22T14:03:54Z</time>
      </trkpt>
      <trkpt lat="43.45704" lon="-0.60187">
        <ele>223.891946</ele>
        <time>2011-03-22T14:03:57Z</time>
      </trkpt>
      <trkpt lat="43.45696" lon="-0.60195">
        <ele>225.270295</ele>
        <time>2011-03-22T14:04:00Z</time>
      </trkpt>
      <trkpt lat="43.45689" lon="-0.60204">
        <ele>226.721541</ele>
        <time>2011-03-22T14:04:03Z</time>
      </trkpt>
      <trkpt lat="43.45682" lon="-0.60213">
        <ele>227.420097</ele>
        <time>2011-03-22T14:04:06Z</time>
      </trkpt>
      <trkpt lat="43.45675" lon="-0.60222">
        <ele>227.531879</ele>
        <time>2011-03-22T14:04:09Z</time>
      </trkpt>
      <trkpt lat="43.45667" lon="-0.60233">
        <ele>227.416891</ele>
        <time>2011-03-22T14:04:13Z</time>
      </trkpt>
      <trkpt lat="43.45658" lon="-0.60244">
        <ele>227.298575</ele>
        <time>2011-03-22T14:04:17Z</time>
      </trkpt>
      <trkpt lat="43.4565" lon="-0.60254">
        <ele>227.242368</ele>
        <time>2011-03-22T14:04:21Z</time>
      </trkpt>
      <trkpt lat="43.4565" lon="-0.60254">
        <ele>227.233805</ele>
        <time>2011-03-22T14:04:36Z</time>
      </trkpt>
      <trkpt lat="43.45631" lon="-0.60288">
        <ele>227.381496</ele>
        <time>2011-03-22T14:04:49Z</time>
      </trkpt>
      <trkpt lat="43.45618" lon="-0.6031">
        <ele>227.750897</ele>
        <time>2011-03-22T14:04:58Z</time>
      </trkpt>
      <trkpt lat="43.45611" lon="-0.60327">
        <ele>228.124752</ele>
        <time>2011-03-22T14:05:03Z</time>
      </trkpt>
      <trkpt lat="43.45605" lon="-0.60341">
        <ele>228.438787</ele>
        <time>2011-03-22T14:05:07Z</time>
      </trkpt>
      <trkpt lat="43.45601" lon="-0.60354">
        <ele>228.962457</ele>
        <time>2011-03-22T14:05:10Z</time>
      </trkpt>
      <trkpt lat="43.45595" lon="-0.60366">
        <ele>229.660817</ele>
        <time>2011-03-22T14:05:13Z</time>
      </trkpt>
      <trkpt lat="43.45589" lon="-0.60381">
        <ele>230.174923</ele>
        <time>2011-03-22T14:05:17Z</time>
      </trkpt>
      <trkpt lat="43.45584" lon="-0.60392">
        <ele>230.638884</ele>
        <time>2011-03-22T14:05:20Z</time>
      </trkpt>
      <trkpt lat="43.45577" lon="-0.60407">
        <ele>231.353208</ele>
        <time>2011-03-22T14:05:26Z</time>
      </trkpt>
      <trkpt lat="43.45574" lon="-0.60421">
        <ele>232.172643</ele>
        <time>2011-03-22T14:05:28Z</time>
      </trkpt>
      <trkpt lat="43.45562" lon="-0.60461">
        <ele>232.841255</ele>
        <time>2011-03-22T14:05:31Z</time>
      </trkpt>
      <trkpt lat="43.45548" lon="-0.60492">
        <ele>233.663232</ele>
        <time>2011-03-22T14:05:33Z</time>
      </trkpt>
      <trkpt lat="43.45522" lon="-0.60533">
        <ele>234.996932</ele>
        <time>2011-03-22T14:05:36Z</time>
      </trkpt>
      <trkpt lat="43.45499" lon="-0.60568">
        <ele>236.57418</ele>
        <time>2011-03-22T14:05:39Z</time>
      </trkpt>
      <trkpt lat="43.45485" lon="-0.60587">
        <ele>237.774161</ele>
        <time>2011-03-22T14:05:42Z</time>
      </trkpt>
      <trkpt lat="43.45469" lon="-0.60589">
        <ele>238.365176</ele>
        <time>2011-03-22T14:05:46Z</time>
      </trkpt>
      <trkpt lat="43.45469" lon="-0.60589">
        <ele>238.467697</ele>
        <time>2011-03-22T14:05:50Z</time>
      </trkpt>
      <trkpt lat="43.45437" lon="-0.60571">
        <ele>238.37638</ele>
        <time>2011-03-22T14:05:54Z</time>
      </trkpt>
      <trkpt lat="43.45437" lon="-0.60571">
        <ele>238.278459</ele>
        <time>2011-03-22T14:05:57Z</time>
      </trkpt>
      <trkpt lat="43.45409" lon="-0.60556">
        <ele>238.230798</ele>
        <time>2011-03-22T14:06:10Z</time>
      </trkpt>
      <trkpt lat="43.45409" lon="-0.60556">
        <ele>238.222819</ele>
        <time>2011-03-22T14:06:13Z</time>
      </trkpt>
      <trkpt lat="43.4539" lon="-0.60552">
        <ele>238.230364</ele>
        <time>2011-03-22T14:06:16Z</time>
      </trkpt>
      <trkpt lat="43.45379" lon="-0.60552">
        <ele>238.219045</ele>
        <time>2011-03-22T14:06:19Z</time>
      </trkpt>
      <trkpt lat="43.4537" lon="-0.60564">
        <ele>238.172731</ele>
        <time>2011-03-22T14:06:22Z</time>
      </trkpt>
      <trkpt lat="43.45362" lon="-0.60577">
        <ele>238.101774</ele>
        <time>2011-03-22T14:06:25Z</time>
      </trkpt>
      <trkpt lat="43.45353" lon="-0.60589">
        <ele>237.925517</ele>
        <time>2011-03-22T14:06:28Z</time>
      </trkpt>
      <trkpt lat="43.45344" lon="-0.60599">
        <ele>237.60999</ele>
        <time>2011-03-22T14:06:32Z</time>
      </trkpt>
      <trkpt lat="43.45332" lon="-0.60604">
        <ele>237.324115</ele>
        <time>2011-03-22T14:06:35Z</time>
      </trkpt>
      <trkpt lat="43.45322" lon="-0.60608">
        <ele>237.199048</ele>
        <time>2011-03-22T14:06:38Z</time>
      </trkpt>
      <trkpt lat="43.45311" lon="-0.60611">
        <ele>237.462766</ele>
        <time>2011-03-22T14:06:41Z</time>
      </trkpt>
      <trkpt lat="43.45311" lon="-0.60611">
        <ele>238.208602</ele>
        <time>2011-03-22T14:06:46Z</time>
      </trkpt>
      <trkpt lat="43.45281" lon="-0.60628">
        <ele>239.108746</ele>
        <time>2011-03-22T14:06:53Z</time>
      </trkpt>
      <trkpt lat="43.45264" lon="-0.60635">
        <ele>239.829011</ele>
        <time>2011-03-22T14:06:56Z</time>
      </trkpt>
      <trkpt lat="43.45247" lon="-0.60639">
        <ele>240.252281</ele>
        <time>2011-03-22T14:06:59Z</time>
      </trkpt>
      <trkpt lat="43.45236" lon="-0.60641">
        <ele>240.227157</ele>
        <time>2011-03-22T14:07:01Z</time>
      </trkpt>
      <trkpt lat="43.45227" lon="-0.60644">
        <ele>239.693464</ele>
        <time>2011-03-22T14:07:03Z</time>
      </trkpt>
      <trkpt lat="43.45217" lon="-0.60648">
        <ele>238.766918</ele>
        <time>2011-03-22T14:07:07Z</time>
      </trkpt>
      <trkpt lat="43.45205" lon="-0.60652">
        <ele>237.828056</ele>
        <time>2011-03-22T14:07:10Z</time>
      </trkpt>
      <trkpt lat="43.45194" lon="-0.60658">
        <ele>236.97151</ele>
        <time>2011-03-22T14:07:13Z</time>
      </trkpt>
      <trkpt lat="43.45185" lon="-0.60664">
        <ele>235.80657</ele>
        <time>2011-03-22T14:07:15Z</time>
      </trkpt>
      <trkpt lat="43.45165" lon="-0.60677">
        <ele>234.248087</ele>
        <time>2011-03-22T14:07:18Z</time>
      </trkpt>
      <trkpt lat="43.45163" lon="-0.60694">
        <ele>232.737523</ele>
        <time>2011-03-22T14:07:20Z</time>
      </trkpt>
      <trkpt lat="43.45162" lon="-0.60718">
        <ele>231.5133</ele>
        <time>2011-03-22T14:07:23Z</time>
      </trkpt>
      <trkpt lat="43.45162" lon="-0.6074">
        <ele>230.490734</ele>
        <time>2011-03-22T14:07:26Z</time>
      </trkpt>
      <trkpt lat="43.45164" lon="-0.60755">
        <ele>229.400036</ele>
        <time>2011-03-22T14:07:29Z</time>
      </trkpt>
      <trkpt lat="43.45165" lon="-0.60768">
        <ele>228.082842</ele>
        <time>2011-03-22T14:07:34Z</time>
      </trkpt>
      <trkpt lat="43.45171" lon="-0.60779">
        <ele>226.456202</ele>
        <time>2011-03-22T14:07:38Z</time>
      </trkpt>
      <trkpt lat="43.45177" lon="-0.60788">
        <ele>224.149433</ele>
        <time>2011-03-22T14:07:41Z</time>
      </trkpt>
      <trkpt lat="43.45184" lon="-0.60799">
        <ele>220.748888</ele>
        <time>2011-03-22T14:07:44Z</time>
      </trkpt>
      <trkpt lat="43.4519" lon="-0.60812">
        <ele>216.325487</ele>
        <time>2011-03-22T14:07:47Z</time>
      </trkpt>
      <trkpt lat="43.45195" lon="-0.60827">
        <ele>211.444583</ele>
        <time>2011-03-22T14:07:50Z</time>
      </trkpt>
      <trkpt lat="43.45199" lon="-0.60842">
        <ele>206.767079</ele>
        <time>2011-03-22T14:07:53Z</time>
      </trkpt>
      <trkpt lat="43.45198" lon="-0.60859">
        <ele>202.649233</ele>
        <time>2011-03-22T14:07:56Z</time>
      </trkpt>
      <trkpt lat="43.45199" lon="-0.60874">
        <ele>199.426617</ele>
        <time>2011-03-22T14:07:59Z</time>
      </trkpt>
      <trkpt lat="43.45203" lon="-0.60887">
        <ele>197.229691</ele>
        <time>2011-03-22T14:08:02Z</time>
      </trkpt>
      <trkpt lat="43.45207" lon="-0.60898">
        <ele>195.845698</ele>
        <time>2011-03-22T14:08:08Z</time>
      </trkpt>
      <trkpt lat="43.45207" lon="-0.60898">
        <ele>195.154557</ele>
        <time>2011-03-22T14:08:09Z</time>
      </trkpt>
      <trkpt lat="43.45237" lon="-0.60891">
        <ele>194.890995</ele>
        <time>2011-03-22T14:08:38Z</time>
      </trkpt>
      <trkpt lat="43.45244" lon="-0.60882">
        <ele>194.633742</ele>
        <time>2011-03-22T14:08:49Z</time>
      </trkpt>
      <trkpt lat="43.4525" lon="-0.60872">
        <ele>194.377193</ele>
        <time>2011-03-22T14:08:56Z</time>
      </trkpt>
      <trkpt lat="43.45258" lon="-0.60862">
        <ele>194.257556</ele>
        <time>2011-03-22T14:09:02Z</time>
      </trkpt>
      <trkpt lat="43.45265" lon="-0.60853">
        <ele>194.240702</ele>
        <time>2011-03-22T14:09:10Z</time>
      </trkpt>
      <trkpt lat="43.45273" lon="-0.60847">
        <ele>194.262163</ele>
        <time>2011-03-22T14:09:18Z</time>
      </trkpt>
      <trkpt lat="43.45283" lon="-0.60843">
        <ele>194.283136</ele>
        <time>2011-03-22T14:09:26Z</time>
      </trkpt>
      <trkpt lat="43.45283" lon="-0.60843">
        <ele>194.260905</ele>
        <time>2011-03-22T14:09:39Z</time>
      </trkpt>
      <trkpt lat="43.45311" lon="-0.60841">
        <ele>194.17915</ele>
        <time>2011-03-22T14:09:53Z</time>
      </trkpt>
      <trkpt lat="43.45311" lon="-0.60841">
        <ele>194.077766</ele>
        <time>2011-03-22T14:10:06Z</time>
      </trkpt>
      <trkpt lat="43.45338" lon="-0.60848">
        <ele>193.998204</ele>
        <time>2011-03-22T14:10:17Z</time>
      </trkpt>
      <trkpt lat="43.45348" lon="-0.60853">
        <ele>193.58465</ele>
        <time>2011-03-22T14:10:24Z</time>
      </trkpt>
      <trkpt lat="43.45359" lon="-0.60856">
        <ele>192.199631</ele>
        <time>2011-03-22T14:10:33Z</time>
      </trkpt>
      <trkpt lat="43.45368" lon="-0.60859">
        <ele>190.139824</ele>
        <time>2011-03-22T14:10:41Z</time>
      </trkpt>
      <trkpt lat="43.45379" lon="-0.60863">
        <ele>188.571036</ele>
        <time>2011-03-22T14:10:50Z</time>
      </trkpt>
      <trkpt lat="43.45387" lon="-0.60868">
        <ele>187.978266</ele>
        <time>2011-03-22T14:10:56Z</time>
      </trkpt>
      <trkpt lat="43.45397" lon="-0.60875">
        <ele>187.979523</ele>
        <time>2011-03-22T14:11:07Z</time>
      </trkpt>
      <trkpt lat="43.45406" lon="-0.60883">
        <ele>188.01119</ele>
        <time>2011-03-22T14:11:18Z</time>
      </trkpt>
      <trkpt lat="43.45419" lon="-0.60895">
        <ele>187.778683</ele>
        <time>2011-03-22T14:11:30Z</time>
      </trkpt>
      <trkpt lat="43.45428" lon="-0.60901">
        <ele>187.594844</ele>
        <time>2011-03-22T14:11:38Z</time>
      </trkpt>
      <trkpt lat="43.45428" lon="-0.60901">
        <ele>187.651751</ele>
        <time>2011-03-22T14:11:40Z</time>
      </trkpt>
      <trkpt lat="43.45459" lon="-0.609">
        <ele>187.638579</ele>
        <time>2011-03-22T14:11:55Z</time>
      </trkpt>
      <trkpt lat="43.45459" lon="-0.609">
        <ele>187.464828</ele>
        <time>2011-03-22T14:11:58Z</time>
      </trkpt>
      <trkpt lat="43.45478" lon="-0.60927">
        <ele>187.326849</ele>
        <time>2011-03-22T14:12:15Z</time>
      </trkpt>
      <trkpt lat="43.45483" lon="-0.60951">
        <ele>187.283711</ele>
        <time>2011-03-22T14:12:25Z</time>
      </trkpt>
      <trkpt lat="43.45483" lon="-0.60951">
        <ele>187.311124</ele>
        <time>2011-03-22T14:12:38Z</time>
      </trkpt>
      <trkpt lat="43.4548" lon="-0.60989">
        <ele>187.355105</ele>
        <time>2011-03-22T14:12:54Z</time>
      </trkpt>
      <trkpt lat="43.4548" lon="-0.60989">
        <ele>187.369291</ele>
        <time>2011-03-22T14:13:07Z</time>
      </trkpt>
      <trkpt lat="43.45471" lon="-0.61025">
        <ele>187.364026</ele>
        <time>2011-03-22T14:13:11Z</time>
      </trkpt>
      <trkpt lat="43.45471" lon="-0.61025">
        <ele>187.359544</ele>
        <time>2011-03-22T14:13:27Z</time>
      </trkpt>
      <trkpt lat="43.45471" lon="-0.61025">
        <ele>187.322261</ele>
        <time>2011-03-22T14:13:42Z</time>
      </trkpt>
      <trkpt lat="43.45472" lon="-0.61064">
        <ele>187.239816</ele>
        <time>2011-03-22T14:14:45Z</time>
      </trkpt>
      <trkpt lat="43.45472" lon="-0.61064">
        <ele>187.167626</ele>
        <time>2011-03-22T14:14:49Z</time>
      </trkpt>
      <trkpt lat="43.45464" lon="-0.61099">
        <ele>187.136831</ele>
        <time>2011-03-22T14:14:54Z</time>
      </trkpt>
      <trkpt lat="43.45475" lon="-0.6114">
        <ele>188.260432</ele>
        <time>2011-03-22T14:15:03Z</time>
      </trkpt>
      <trkpt lat="43.45481" lon="-0.61151">
        <ele>192.8586</ele>
        <time>2011-03-22T14:15:06Z</time>
      </trkpt>
      <trkpt lat="43.45489" lon="-0.61161">
        <ele>200.608643</ele>
        <time>2011-03-22T14:15:13Z</time>
      </trkpt>
      <trkpt lat="43.45497" lon="-0.61169">
        <ele>207.828675</ele>
        <time>2011-03-22T14:15:20Z</time>
      </trkpt>
      <trkpt lat="43.45507" lon="-0.61178">
        <ele>212.114372</ele>
        <time>2011-03-22T14:15:27Z</time>
      </trkpt>
      <trkpt lat="43.45507" lon="-0.61178">
        <ele>213.812246</ele>
        <time>2011-03-22T14:15:41Z</time>
      </trkpt>
      <trkpt lat="43.45531" lon="-0.61203">
        <ele>214.144252</ele>
        <time>2011-03-22T14:15:49Z</time>
      </trkpt>
      <trkpt lat="43.45531" lon="-0.61203">
        <ele>214.166133</ele>
        <time>2011-03-22T14:16:04Z</time>
      </trkpt>
      <trkpt lat="43.45531" lon="-0.61203">
        <ele>214.226169</ele>
        <time>2011-03-22T14:16:20Z</time>
      </trkpt>
      <trkpt lat="43.45553" lon="-0.61225">
        <ele>214.403259</ele>
        <time>2011-03-22T14:16:24Z</time>
      </trkpt>
      <trkpt lat="43.45553" lon="-0.61225">
        <ele>214.621839</ele>
        <time>2011-03-22T14:16:36Z</time>
      </trkpt>
      <trkpt lat="43.45553" lon="-0.61225">
        <ele>214.589612</ele>
        <time>2011-03-22T14:16:55Z</time>
      </trkpt>
      <trkpt lat="43.4558" lon="-0.61223">
        <ele>214.379835</ele>
        <time>2011-03-22T14:17:31Z</time>
      </trkpt>
      <trkpt lat="43.4558" lon="-0.61223">
        <ele>214.257023</ele>
        <time>2011-03-22T14:17:35Z</time>
      </trkpt>
      <trkpt lat="43.45591" lon="-0.61188">
        <ele>214.228894</ele>
        <time>2011-03-22T14:17:56Z</time>
      </trkpt>
      <trkpt lat="43.45596" lon="-0.61177">
        <ele>214.668112</ele>
        <time>2011-03-22T14:18:00Z</time>
      </trkpt>
      <trkpt lat="43.45601" lon="-0.61165">
        <ele>215.915146</ele>
        <time>2011-03-22T14:18:05Z</time>
      </trkpt>
      <trkpt lat="43.45606" lon="-0.61153">
        <ele>217.797933</ele>
        <time>2011-03-22T14:18:12Z</time>
      </trkpt>
      <trkpt lat="43.45613" lon="-0.61131">
        <ele>219.902801</ele>
        <time>2011-03-22T14:18:27Z</time>
      </trkpt>
      <trkpt lat="43.45619" lon="-0.61122">
        <ele>221.896068</ele>
        <time>2011-03-22T14:18:35Z</time>
      </trkpt>
      <trkpt lat="43.45627" lon="-0.61115">
        <ele>223.583576</ele>
        <time>2011-03-22T14:18:39Z</time>
      </trkpt>
      <trkpt lat="43.45639" lon="-0.61099">
        <ele>225.231514</ele>
        <time>2011-03-22T14:18:47Z</time>
      </trkpt>
      <trkpt lat="43.45639" lon="-0.61081">
        <ele>226.896082</ele>
        <time>2011-03-22T14:18:53Z</time>
      </trkpt>
      <trkpt lat="43.45637" lon="-0.61067">
        <ele>228.230994</ele>
        <time>2011-03-22T14:18:59Z</time>
      </trkpt>
      <trkpt lat="43.45634" lon="-0.61053">
        <ele>229.292911</ele>
        <time>2011-03-22T14:19:06Z</time>
      </trkpt>
      <trkpt lat="43.45635" lon="-0.61041">
        <ele>230.637645</ele>
        <time>2011-03-22T14:19:12Z</time>
      </trkpt>
      <trkpt lat="43.45639" lon="-0.61028">
        <ele>232.410997</ele>
        <time>2011-03-22T14:19:18Z</time>
      </trkpt>
      <trkpt lat="43.45647" lon="-0.61021">
        <ele>234.426062</ele>
        <time>2011-03-22T14:19:23Z</time>
      </trkpt>
      <trkpt lat="43.45657" lon="-0.61017">
        <ele>236.500763</ele>
        <time>2011-03-22T14:19:31Z</time>
      </trkpt>
      <trkpt lat="43.45663" lon="-0.61006">
        <ele>238.413265</ele>
        <time>2011-03-22T14:19:39Z</time>
      </trkpt>
      <trkpt lat="43.45662" lon="-0.60992">
        <ele>239.930824</ele>
        <time>2011-03-22T14:19:48Z</time>
      </trkpt>
      <trkpt lat="43.45658" lon="-0.60979">
        <ele>241.059435</ele>
        <time>2011-03-22T14:19:55Z</time>
      </trkpt>
      <trkpt lat="43.45657" lon="-0.60966">
        <ele>242.008101</ele>
        <time>2011-03-22T14:20:00Z</time>
      </trkpt>
      <trkpt lat="43.45654" lon="-0.60953">
        <ele>243.346807</ele>
        <time>2011-03-22T14:20:05Z</time>
      </trkpt>
      <trkpt lat="43.45648" lon="-0.60929">
        <ele>246.212565</ele>
        <time>2011-03-22T14:20:15Z</time>
      </trkpt>
      <trkpt lat="43.45644" lon="-0.60917">
        <ele>250.745266</ele>
        <time>2011-03-22T14:20:24Z</time>
      </trkpt>
      <trkpt lat="43.45639" lon="-0.609">
        <ele>255.486947</ele>
        <time>2011-03-22T14:20:28Z</time>
      </trkpt>
      <trkpt lat="43.45635" lon="-0.60888">
        <ele>258.943583</ele>
        <time>2011-03-22T14:20:31Z</time>
      </trkpt>
      <trkpt lat="43.45625" lon="-0.60875">
        <ele>260.606402</ele>
        <time>2011-03-22T14:20:35Z</time>
      </trkpt>
      <trkpt lat="43.45618" lon="-0.60863">
        <ele>260.87193</ele>
        <time>2011-03-22T14:20:38Z</time>
      </trkpt>
      <trkpt lat="43.45611" lon="-0.60849">
        <ele>260.736017</ele>
        <time>2011-03-22T14:20:41Z</time>
      </trkpt>
      <trkpt lat="43.45607" lon="-0.60834">
        <ele>260.814158</ele>
        <time>2011-03-22T14:20:44Z</time>
      </trkpt>
      <trkpt lat="43.45602" lon="-0.60817">
        <ele>261.049827</ele>
        <time>2011-03-22T14:20:47Z</time>
      </trkpt>
      <trkpt lat="43.45598" lon="-0.60802">
        <ele>261.342963</ele>
        <time>2011-03-22T14:20:50Z</time>
      </trkpt>
      <trkpt lat="43.45596" lon="-0.60788">
        <ele>261.752244</ele>
        <time>2011-03-22T14:20:53Z</time>
      </trkpt>
      <trkpt lat="43.45595" lon="-0.60773">
        <ele>262.114682</ele>
        <time>2011-03-22T14:20:56Z</time>
      </trkpt>
      <trkpt lat="43.45594" lon="-0.6076">
        <ele>262.270628</ele>
        <time>2011-03-22T14:20:59Z</time>
      </trkpt>
      <trkpt lat="43.45593" lon="-0.60747">
        <ele>262.422827</ele>
        <time>2011-03-22T14:21:02Z</time>
      </trkpt>
      <trkpt lat="43.45592" lon="-0.60735">
        <ele>262.88703</ele>
        <time>2011-03-22T14:21:05Z</time>
      </trkpt>
      <trkpt lat="43.45592" lon="-0.60721">
        <ele>263.586918</ele>
        <time>2011-03-22T14:21:08Z</time>
      </trkpt>
      <trkpt lat="43.45592" lon="-0.60708">
        <ele>264.11916</ele>
        <time>2011-03-22T14:21:11Z</time>
      </trkpt>
      <trkpt lat="43.45592" lon="-0.60696">
        <ele>264.320013</ele>
        <time>2011-03-22T14:21:14Z</time>
      </trkpt>
      <trkpt lat="43.45591" lon="-0.6068">
        <ele>264.319417</ele>
        <time>2011-03-22T14:21:18Z</time>
      </trkpt>
      <trkpt lat="43.4559" lon="-0.60667">
        <ele>264.261741</ele>
        <time>2011-03-22T14:21:21Z</time>
      </trkpt>
      <trkpt lat="43.45588" lon="-0.60655">
        <ele>264.080382</ele>
        <time>2011-03-22T14:21:24Z</time>
      </trkpt>
      <trkpt lat="43.45588" lon="-0.60642">
        <ele>263.704482</ele>
        <time>2011-03-22T14:21:27Z</time>
      </trkpt>
      <trkpt lat="43.45588" lon="-0.60627">
        <ele>263.058981</ele>
        <time>2011-03-22T14:21:31Z</time>
      </trkpt>
      <trkpt lat="43.45589" lon="-0.60611">
        <ele>262.168735</ele>
        <time>2011-03-22T14:21:35Z</time>
      </trkpt>
      <trkpt lat="43.45591" lon="-0.60597">
        <ele>261.268703</ele>
        <time>2011-03-22T14:21:39Z</time>
      </trkpt>
      <trkpt lat="43.45592" lon="-0.60583">
        <ele>260.451417</ele>
        <time>2011-03-22T14:21:43Z</time>
      </trkpt>
      <trkpt lat="43.45592" lon="-0.60583">
        <ele>259.699145</ele>
        <time>2011-03-22T14:21:49Z</time>
      </trkpt>
      <trkpt lat="43.4559" lon="-0.60531">
        <ele>259.089984</ele>
        <time>2011-03-22T14:22:00Z</time>
      </trkpt>
      <trkpt lat="43.45587" lon="-0.60514">
        <ele>258.452114</ele>
        <time>2011-03-22T14:22:04Z</time>
      </trkpt>
      <trkpt lat="43.45584" lon="-0.60498">
        <ele>257.613746</ele>
        <time>2011-03-22T14:22:08Z</time>
      </trkpt>
      <trkpt lat="43.45582" lon="-0.60485">
        <ele>256.770987</ele>
        <time>2011-03-22T14:22:11Z</time>
      </trkpt>
      <trkpt lat="43.45579" lon="-0.6047">
        <ele>256.237997</ele>
        <time>2011-03-22T14:22:14Z</time>
      </trkpt>
      <trkpt lat="43.45578" lon="-0.60457">
        <ele>256.077331</ele>
        <time>2011-03-22T14:22:17Z</time>
      </trkpt>
      <trkpt lat="43.45577" lon="-0.60441">
        <ele>256.108385</ele>
        <time>2011-03-22T14:22:21Z</time>
      </trkpt>
      <trkpt lat="43.45576" lon="-0.60426">
        <ele>256.177524</ele>
        <time>2011-03-22T14:22:25Z</time>
      </trkpt>
      <trkpt lat="43.45576" lon="-0.60413">
        <ele>256.220678</ele>
        <time>2011-03-22T14:22:29Z</time>
      </trkpt>
      <trkpt lat="43.45576" lon="-0.60413">
        <ele>256.233436</ele>
        <time>2011-03-22T14:22:34Z</time>
      </trkpt>
      <trkpt lat="43.45578" lon="-0.60377">
        <ele>256.230739</ele>
        <time>2011-03-22T14:22:43Z</time>
      </trkpt>
      <trkpt lat="43.45579" lon="-0.60365">
        <ele>256.225087</ele>
        <time>2011-03-22T14:22:46Z</time>
      </trkpt>
      <trkpt lat="43.45583" lon="-0.60352">
        <ele>256.180702</ele>
        <time>2011-03-22T14:22:49Z</time>
      </trkpt>
      <trkpt lat="43.45587" lon="-0.60338">
        <ele>256.073147</ele>
        <time>2011-03-22T14:22:52Z</time>
      </trkpt>
      <trkpt lat="43.45594" lon="-0.60324">
        <ele>255.964006</ele>
        <time>2011-03-22T14:22:55Z</time>
      </trkpt>
      <trkpt lat="43.45603" lon="-0.60311">
        <ele>255.953528</ele>
        <time>2011-03-22T14:22:58Z</time>
      </trkpt>
      <trkpt lat="43.45612" lon="-0.60298">
        <ele>256.328985</ele>
        <time>2011-03-22T14:23:01Z</time>
      </trkpt>
      <trkpt lat="43.45621" lon="-0.60285">
        <ele>257.581813</ele>
        <time>2011-03-22T14:23:04Z</time>
      </trkpt>
      <trkpt lat="43.45631" lon="-0.60273">
        <ele>259.599473</ele>
        <time>2011-03-22T14:23:07Z</time>
      </trkpt>
      <trkpt lat="43.45644" lon="-0.60256">
        <ele>261.568472</ele>
        <time>2011-03-22T14:23:12Z</time>
      </trkpt>
      <trkpt lat="43.45653" lon="-0.60245">
        <ele>262.868437</ele>
        <time>2011-03-22T14:23:14Z</time>
      </trkpt>
      <trkpt lat="43.45663" lon="-0.60233">
        <ele>263.423203</ele>
        <time>2011-03-22T14:23:16Z</time>
      </trkpt>
      <trkpt lat="43.45679" lon="-0.60213">
        <ele>263.470042</ele>
        <time>2011-03-22T14:23:19Z</time>
      </trkpt>
      <trkpt lat="43.45699" lon="-0.60191">
        <ele>263.485372</ele>
        <time>2011-03-22T14:23:22Z</time>
      </trkpt>
      <trkpt lat="43.45721" lon="-0.6017">
        <ele>263.601415</ele>
        <time>2011-03-22T14:23:25Z</time>
      </trkpt>
      <trkpt lat="43.45746" lon="-0.60153">
        <ele>263.566671</ele>
        <time>2011-03-22T14:23:28Z</time>
      </trkpt>
      <trkpt lat="43.45772" lon="-0.60139">
        <ele>263.369463</ele>
        <time>2011-03-22T14:23:31Z</time>
      </trkpt>
      <trkpt lat="43.45789" lon="-0.60132">
        <ele>263.231166</ele>
        <time>2011-03-22T14:23:33Z</time>
      </trkpt>
      <trkpt lat="43.45806" lon="-0.60127">
        <ele>263.183428</ele>
        <time>2011-03-22T14:23:35Z</time>
      </trkpt>
      <trkpt lat="43.45829" lon="-0.60119">
        <ele>263.186947</ele>
        <time>2011-03-22T14:23:38Z</time>
      </trkpt>
      <trkpt lat="43.45852" lon="-0.60116">
        <ele>263.203195</ele>
        <time>2011-03-22T14:23:41Z</time>
      </trkpt>
      <trkpt lat="43.45873" lon="-0.60116">
        <ele>263.21441</ele>
        <time>2011-03-22T14:23:44Z</time>
      </trkpt>
      <trkpt lat="43.45892" lon="-0.6012">
        <ele>263.218214</ele>
        <time>2011-03-22T14:23:47Z</time>
      </trkpt>
      <trkpt lat="43.45909" lon="-0.60125">
        <ele>263.217879</ele>
        <time>2011-03-22T14:23:50Z</time>
      </trkpt>
      <trkpt lat="43.45925" lon="-0.60129">
        <ele>263.078446</ele>
        <time>2011-03-22T14:23:53Z</time>
      </trkpt>
      <trkpt lat="43.45941" lon="-0.60135">
        <ele>262.717855</ele>
        <time>2011-03-22T14:23:56Z</time>
      </trkpt>
      <trkpt lat="43.45957" lon="-0.60141">
        <ele>262.348333</ele>
        <time>2011-03-22T14:23:59Z</time>
      </trkpt>
      <trkpt lat="43.45975" lon="-0.60143">
        <ele>262.173205</ele>
        <time>2011-03-22T14:24:02Z</time>
      </trkpt>
      <trkpt lat="43.45993" lon="-0.60144">
        <ele>262.1468</ele>
        <time>2011-03-22T14:24:05Z</time>
      </trkpt>
      <trkpt lat="43.46012" lon="-0.60144">
        <ele>262.176842</ele>
        <time>2011-03-22T14:24:08Z</time>
      </trkpt>
      <trkpt lat="43.46026" lon="-0.60143">
        <ele>262.206956</ele>
        <time>2011-03-22T14:24:10Z</time>
      </trkpt>
      <trkpt lat="43.46046" lon="-0.60142">
        <ele>262.082896</ele>
        <time>2011-03-22T14:24:13Z</time>
      </trkpt>
      <trkpt lat="43.46065" lon="-0.60141">
        <ele>261.586943</ele>
        <time>2011-03-22T14:24:16Z</time>
      </trkpt>
      <trkpt lat="43.46084" lon="-0.60138">
        <ele>260.855246</ele>
        <time>2011-03-22T14:24:19Z</time>
      </trkpt>
      <trkpt lat="43.46102" lon="-0.60137">
        <ele>260.170012</ele>
        <time>2011-03-22T14:24:22Z</time>
      </trkpt>
      <trkpt lat="43.46114" lon="-0.60137">
        <ele>259.469103</ele>
        <time>2011-03-22T14:24:24Z</time>
      </trkpt>
      <trkpt lat="43.46126" lon="-0.60137">
        <ele>258.743171</ele>
        <time>2011-03-22T14:24:26Z</time>
      </trkpt>
      <trkpt lat="43.46143" lon="-0.60137">
        <ele>258.120668</ele>
        <time>2011-03-22T14:24:29Z</time>
      </trkpt>
      <trkpt lat="43.46155" lon="-0.60139">
        <ele>257.465281</ele>
        <time>2011-03-22T14:24:31Z</time>
      </trkpt>
      <trkpt lat="43.46172" lon="-0.60143">
        <ele>256.755694</ele>
        <time>2011-03-22T14:24:34Z</time>
      </trkpt>
      <trkpt lat="43.46188" lon="-0.6015">
        <ele>255.994334</ele>
        <time>2011-03-22T14:24:37Z</time>
      </trkpt>
      <trkpt lat="43.46204" lon="-0.60157">
        <ele>255.112049</ele>
        <time>2011-03-22T14:24:40Z</time>
      </trkpt>
      <trkpt lat="43.46215" lon="-0.60162">
        <ele>254.251021</ele>
        <time>2011-03-22T14:24:42Z</time>
      </trkpt>
      <trkpt lat="43.4623" lon="-0.60171">
        <ele>253.460802</ele>
        <time>2011-03-22T14:24:45Z</time>
      </trkpt>
      <trkpt lat="43.46241" lon="-0.60177">
        <ele>252.579603</ele>
        <time>2011-03-22T14:24:47Z</time>
      </trkpt>
      <trkpt lat="43.46256" lon="-0.60187">
        <ele>251.747976</ele>
        <time>2011-03-22T14:24:50Z</time>
      </trkpt>
      <trkpt lat="43.46265" lon="-0.60193">
        <ele>251.097348</ele>
        <time>2011-03-22T14:24:52Z</time>
      </trkpt>
      <trkpt lat="43.4628" lon="-0.60204">
        <ele>250.312719</ele>
        <time>2011-03-22T14:24:55Z</time>
      </trkpt>
      <trkpt lat="43.46289" lon="-0.60211">
        <ele>249.119779</ele>
        <time>2011-03-22T14:24:57Z</time>
      </trkpt>
      <trkpt lat="43.46304" lon="-0.60222">
        <ele>247.913969</ele>
        <time>2011-03-22T14:25:00Z</time>
      </trkpt>
      <trkpt lat="43.46316" lon="-0.60235">
        <ele>247.208969</ele>
        <time>2011-03-22T14:25:03Z</time>
      </trkpt>
      <trkpt lat="43.46324" lon="-0.60245">
        <ele>247.022394</ele>
        <time>2011-03-22T14:25:05Z</time>
      </trkpt>
      <trkpt lat="43.46335" lon="-0.6026">
        <ele>247.082965</ele>
        <time>2011-03-22T14:25:08Z</time>
      </trkpt>
      <trkpt lat="43.46343" lon="-0.60271">
        <ele>247.18167</ele>
        <time>2011-03-22T14:25:10Z</time>
      </trkpt>
      <trkpt lat="43.46353" lon="-0.60289">
        <ele>247.100463</ele>
        <time>2011-03-22T14:25:13Z</time>
      </trkpt>
      <trkpt lat="43.46361" lon="-0.6031">
        <ele>246.617118</ele>
        <time>2011-03-22T14:25:16Z</time>
      </trkpt>
      <trkpt lat="43.46369" lon="-0.60329">
        <ele>245.744457</ele>
        <time>2011-03-22T14:25:19Z</time>
      </trkpt>
      <trkpt lat="43.46377" lon="-0.60348">
        <ele>244.693613</ele>
        <time>2011-03-22T14:25:22Z</time>
      </trkpt>
      <trkpt lat="43.46386" lon="-0.60367">
        <ele>243.619698</ele>
        <time>2011-03-22T14:25:25Z</time>
      </trkpt>
      <trkpt lat="43.46392" lon="-0.60379">
        <ele>242.579198</ele>
        <time>2011-03-22T14:25:27Z</time>
      </trkpt>
      <trkpt lat="43.46398" lon="-0.60392">
        <ele>241.708582</ele>
        <time>2011-03-22T14:25:29Z</time>
      </trkpt>
      <trkpt lat="43.46408" lon="-0.60411">
        <ele>241.212187</ele>
        <time>2011-03-22T14:25:32Z</time>
      </trkpt>
      <trkpt lat="43.46419" lon="-0.60429">
        <ele>241.086974</ele>
        <time>2011-03-22T14:25:35Z</time>
      </trkpt>
      <trkpt lat="43.4643" lon="-0.60447">
        <ele>241.272407</ele>
        <time>2011-03-22T14:25:38Z</time>
      </trkpt>
      <trkpt lat="43.46437" lon="-0.6046">
        <ele>241.703469</ele>
        <time>2011-03-22T14:25:40Z</time>
      </trkpt>
      <trkpt lat="43.46447" lon="-0.6048">
        <ele>242.112935</ele>
        <time>2011-03-22T14:25:43Z</time>
      </trkpt>
      <trkpt lat="43.46454" lon="-0.605">
        <ele>242.29802</ele>
        <time>2011-03-22T14:25:46Z</time>
      </trkpt>
      <trkpt lat="43.46462" lon="-0.60518">
        <ele>242.320522</ele>
        <time>2011-03-22T14:25:49Z</time>
      </trkpt>
      <trkpt lat="43.46467" lon="-0.60529">
        <ele>242.146519</ele>
        <time>2011-03-22T14:25:51Z</time>
      </trkpt>
      <trkpt lat="43.46473" lon="-0.60546">
        <ele>241.753279</ele>
        <time>2011-03-22T14:25:54Z</time>
      </trkpt>
      <trkpt lat="43.46477" lon="-0.60557">
        <ele>241.230789</ele>
        <time>2011-03-22T14:25:56Z</time>
      </trkpt>
      <trkpt lat="43.46483" lon="-0.60572">
        <ele>240.693925</ele>
        <time>2011-03-22T14:25:59Z</time>
      </trkpt>
      <trkpt lat="43.46486" lon="-0.60585">
        <ele>240.300897</ele>
        <time>2011-03-22T14:26:02Z</time>
      </trkpt>
      <trkpt lat="43.4649" lon="-0.60598">
        <ele>240.158315</ele>
        <time>2011-03-22T14:26:06Z</time>
      </trkpt>
      <trkpt lat="43.46492" lon="-0.6061">
        <ele>240.163081</ele>
        <time>2011-03-22T14:26:09Z</time>
      </trkpt>
      <trkpt lat="43.46495" lon="-0.60625">
        <ele>240.345452</ele>
        <time>2011-03-22T14:26:12Z</time>
      </trkpt>
      <trkpt lat="43.46496" lon="-0.60641">
        <ele>240.875346</ele>
        <time>2011-03-22T14:26:15Z</time>
      </trkpt>
      <trkpt lat="43.46498" lon="-0.6066">
        <ele>241.615956</ele>
        <time>2011-03-22T14:26:18Z</time>
      </trkpt>
      <trkpt lat="43.46499" lon="-0.60672">
        <ele>242.160049</ele>
        <time>2011-03-22T14:26:20Z</time>
      </trkpt>
      <trkpt lat="43.46501" lon="-0.60692">
        <ele>242.358172</ele>
        <time>2011-03-22T14:26:23Z</time>
      </trkpt>
      <trkpt lat="43.46502" lon="-0.60706">
        <ele>242.213943</ele>
        <time>2011-03-22T14:26:25Z</time>
      </trkpt>
      <trkpt lat="43.46501" lon="-0.60728">
        <ele>241.793031</ele>
        <time>2011-03-22T14:26:28Z</time>
      </trkpt>
      <trkpt lat="43.46501" lon="-0.6075">
        <ele>241.24123</ele>
        <time>2011-03-22T14:26:31Z</time>
      </trkpt>
      <trkpt lat="43.46501" lon="-0.60772">
        <ele>240.690207</ele>
        <time>2011-03-22T14:26:34Z</time>
      </trkpt>
      <trkpt lat="43.465" lon="-0.60792">
        <ele>240.15669</ele>
        <time>2011-03-22T14:26:37Z</time>
      </trkpt>
      <trkpt lat="43.46499" lon="-0.60806">
        <ele>239.518301</ele>
        <time>2011-03-22T14:26:39Z</time>
      </trkpt>
      <trkpt lat="43.46496" lon="-0.6082">
        <ele>238.79606</ele>
        <time>2011-03-22T14:26:41Z</time>
      </trkpt>
      <trkpt lat="43.46492" lon="-0.60841">
        <ele>238.296632</ele>
        <time>2011-03-22T14:26:44Z</time>
      </trkpt>
      <trkpt lat="43.46487" lon="-0.60862">
        <ele>238.126825</ele>
        <time>2011-03-22T14:26:47Z</time>
      </trkpt>
      <trkpt lat="43.46481" lon="-0.60881">
        <ele>238.141409</ele>
        <time>2011-03-22T14:26:50Z</time>
      </trkpt>
      <trkpt lat="43.46474" lon="-0.609">
        <ele>238.200749</ele>
        <time>2011-03-22T14:26:53Z</time>
      </trkpt>
      <trkpt lat="43.4647" lon="-0.60913">
        <ele>238.241216</ele>
        <time>2011-03-22T14:26:55Z</time>
      </trkpt>
      <trkpt lat="43.46464" lon="-0.6093">
        <ele>238.392869</ele>
        <time>2011-03-22T14:26:58Z</time>
      </trkpt>
      <trkpt lat="43.46458" lon="-0.60949">
        <ele>238.889409</ele>
        <time>2011-03-22T14:27:01Z</time>
      </trkpt>
      <trkpt lat="43.46451" lon="-0.60968">
        <ele>239.613613</ele>
        <time>2011-03-22T14:27:04Z</time>
      </trkpt>
      <trkpt lat="43.46445" lon="-0.60986">
        <ele>240.154846</ele>
        <time>2011-03-22T14:27:07Z</time>
      </trkpt>
      <trkpt lat="43.46442" lon="-0.61006">
        <ele>240.355494</ele>
        <time>2011-03-22T14:27:10Z</time>
      </trkpt>
      <trkpt lat="43.46439" lon="-0.61025">
        <ele>240.213973</ele>
        <time>2011-03-22T14:27:13Z</time>
      </trkpt>
      <trkpt lat="43.46436" lon="-0.61044">
        <ele>239.794361</ele>
        <time>2011-03-22T14:27:16Z</time>
      </trkpt>
      <trkpt lat="43.46433" lon="-0.61056">
        <ele>239.380925</ele>
        <time>2011-03-22T14:27:18Z</time>
      </trkpt>
      <trkpt lat="43.46431" lon="-0.61069">
        <ele>239.189548</ele>
        <time>2011-03-22T14:27:20Z</time>
      </trkpt>
      <trkpt lat="43.46427" lon="-0.61088">
        <ele>239.163403</ele>
        <time>2011-03-22T14:27:23Z</time>
      </trkpt>
      <trkpt lat="43.46423" lon="-0.61107">
        <ele>239.198259</ele>
        <time>2011-03-22T14:27:26Z</time>
      </trkpt>
      <trkpt lat="43.4642" lon="-0.61119">
        <ele>239.231919</ele>
        <time>2011-03-22T14:27:28Z</time>
      </trkpt>
      <trkpt lat="43.46417" lon="-0.61139">
        <ele>239.385439</ele>
        <time>2011-03-22T14:27:31Z</time>
      </trkpt>
      <trkpt lat="43.46415" lon="-0.61159">
        <ele>239.885344</ele>
        <time>2011-03-22T14:27:34Z</time>
      </trkpt>
      <trkpt lat="43.46414" lon="-0.61181">
        <ele>240.611565</ele>
        <time>2011-03-22T14:27:37Z</time>
      </trkpt>
      <trkpt lat="43.46415" lon="-0.61196">
        <ele>241.153362</ele>
        <time>2011-03-22T14:27:39Z</time>
      </trkpt>
      <trkpt lat="43.46421" lon="-0.6122">
        <ele>241.353858</ele>
        <time>2011-03-22T14:27:42Z</time>
      </trkpt>
      <trkpt lat="43.46427" lon="-0.61246">
        <ele>241.350244</ele>
        <time>2011-03-22T14:27:45Z</time>
      </trkpt>
      <trkpt lat="43.4643" lon="-0.61264">
        <ele>241.152196</ele>
        <time>2011-03-22T14:27:47Z</time>
      </trkpt>
      <trkpt lat="43.46432" lon="-0.61281">
        <ele>240.748283</ele>
        <time>2011-03-22T14:27:49Z</time>
      </trkpt>
      <trkpt lat="43.46436" lon="-0.61308">
        <ele>240.362748</ele>
        <time>2011-03-22T14:27:52Z</time>
      </trkpt>
      <trkpt lat="43.46441" lon="-0.61334">
        <ele>240.049698</ele>
        <time>2011-03-22T14:27:55Z</time>
      </trkpt>
      <trkpt lat="43.46446" lon="-0.61359">
        <ele>239.668168</ele>
        <time>2011-03-22T14:27:58Z</time>
      </trkpt>
      <trkpt lat="43.46449" lon="-0.61383">
        <ele>239.332313</ele>
        <time>2011-03-22T14:28:01Z</time>
      </trkpt>
      <trkpt lat="43.46454" lon="-0.61406">
        <ele>239.326601</ele>
        <time>2011-03-22T14:28:04Z</time>
      </trkpt>
      <trkpt lat="43.46461" lon="-0.6143">
        <ele>239.673921</ele>
        <time>2011-03-22T14:28:07Z</time>
      </trkpt>
      <trkpt lat="43.46465" lon="-0.61447">
        <ele>240.351198</ele>
        <time>2011-03-22T14:28:09Z</time>
      </trkpt>
      <trkpt lat="43.46471" lon="-0.61468">
        <ele>241.273428</ele>
        <time>2011-03-22T14:28:12Z</time>
      </trkpt>
      <trkpt lat="43.46477" lon="-0.61488">
        <ele>242.050249</ele>
        <time>2011-03-22T14:28:15Z</time>
      </trkpt>
      <trkpt lat="43.46483" lon="-0.61498">
        <ele>242.371628</ele>
        <time>2011-03-22T14:28:17Z</time>
      </trkpt>
      <trkpt lat="43.46489" lon="-0.61509">
        <ele>242.391954</ele>
        <time>2011-03-22T14:28:19Z</time>
      </trkpt>
      <trkpt lat="43.46497" lon="-0.61519">
        <ele>242.315651</ele>
        <time>2011-03-22T14:28:23Z</time>
      </trkpt>
      <trkpt lat="43.46507" lon="-0.61518">
        <ele>242.252465</ele>
        <time>2011-03-22T14:28:27Z</time>
      </trkpt>
      <trkpt lat="43.46516" lon="-0.61514">
        <ele>242.226686</ele>
        <time>2011-03-22T14:28:31Z</time>
      </trkpt>
      <trkpt lat="43.46524" lon="-0.61508">
        <ele>242.225304</ele>
        <time>2011-03-22T14:28:35Z</time>
      </trkpt>
      <trkpt lat="43.46524" lon="-0.61508">
        <ele>242.231608</ele>
        <time>2011-03-22T14:29:05Z</time>
      </trkpt>
      <trkpt lat="43.46521" lon="-0.6147">
        <ele>242.236737</ele>
        <time>2011-03-22T14:29:46Z</time>
      </trkpt>
      <trkpt lat="43.46521" lon="-0.6147">
        <ele>242.238795</ele>
        <time>2011-03-22T14:29:50Z</time>
      </trkpt>
      <trkpt lat="43.46521" lon="-0.6147">
        <ele>242.200453</ele>
        <time>2011-03-22T14:30:17Z</time>
      </trkpt>
    </trkseg>
  </trk>
</gpx>